<?xml version="1.0" encoding="UTF-8" standalone="no" ?>
<gpx xmlns="http://www.topografix.com/GPX/1/1" xmlns:xsi="http://www.w3.org/2001/XMLSchema-instance" xsi:schemaLocation="http://www.topografix.com/GPX/1/1 http://www.topografix.com/GPX/1/1/gpx.xsd" version="1.1" creator="VisuGPX - https://www.visugpx.com">
  <metadata>
    <name>H-P : LAC DE VALLON-CHALETS DE PETETOZ</name>
    <desc><![CDATA[Circuit au départ du parking du lac de Vallon, que l'on contourne pour rejoindre la chapelle St Bruno, puis le parking de la Chèvrerie. Traversée de la forêt de Pététoz pour rejoindre les chalets du même nom et l'oratoire taillé dans un tronc d'arbre. Retour en suivant le Brevon, puis la route.
]]></desc>
  </metadata>
  <trk>
    <name><![CDATA[FEV-04-20 16:42:08]]></name>
    <trkseg>
      <trkpt lat="46.21882" lon="6.55791">
        <ele>1085.47</ele>
        <time>2020-02-04T08:37:26Z</time>
      </trkpt>
      <trkpt lat="46.21886" lon="6.55788">
        <ele>1086.43</ele>
        <time>2020-02-04T08:37:36Z</time>
      </trkpt>
      <trkpt lat="46.21878" lon="6.5579">
        <ele>1086.43</ele>
        <time>2020-02-04T08:38:54Z</time>
      </trkpt>
      <trkpt lat="46.21878" lon="6.5579">
        <ele>1085.47</ele>
        <time>2020-02-04T08:39:10Z</time>
      </trkpt>
      <trkpt lat="46.2188" lon="6.55791">
        <ele>1086.91</ele>
        <time>2020-02-04T08:39:47Z</time>
      </trkpt>
      <trkpt lat="46.21881" lon="6.55793">
        <ele>1086.91</ele>
        <time>2020-02-04T08:40:28Z</time>
      </trkpt>
      <trkpt lat="46.21882" lon="6.55794">
        <ele>1085.95</ele>
        <time>2020-02-04T08:42:31Z</time>
      </trkpt>
      <trkpt lat="46.2188" lon="6.55805">
        <ele>1085.47</ele>
        <time>2020-02-04T08:42:43Z</time>
      </trkpt>
      <trkpt lat="46.21873" lon="6.55815">
        <ele>1084.5</ele>
        <time>2020-02-04T08:42:54Z</time>
      </trkpt>
      <trkpt lat="46.21869" lon="6.55826">
        <ele>1084.02</ele>
        <time>2020-02-04T08:43:06Z</time>
      </trkpt>
      <trkpt lat="46.21863" lon="6.55838">
        <ele>1083.06</ele>
        <time>2020-02-04T08:43:18Z</time>
      </trkpt>
      <trkpt lat="46.21858" lon="6.55841">
        <ele>1083.54</ele>
        <time>2020-02-04T08:43:23Z</time>
      </trkpt>
      <trkpt lat="46.21852" lon="6.55841">
        <ele>1083.06</ele>
        <time>2020-02-04T08:43:29Z</time>
      </trkpt>
      <trkpt lat="46.21843" lon="6.55842">
        <ele>1081.62</ele>
        <time>2020-02-04T08:43:42Z</time>
      </trkpt>
      <trkpt lat="46.21841" lon="6.55843">
        <ele>1081.14</ele>
        <time>2020-02-04T08:43:53Z</time>
      </trkpt>
      <trkpt lat="46.21839" lon="6.55842">
        <ele>1081.62</ele>
        <time>2020-02-04T08:44:13Z</time>
      </trkpt>
      <trkpt lat="46.2183" lon="6.55835">
        <ele>1081.14</ele>
        <time>2020-02-04T08:44:28Z</time>
      </trkpt>
      <trkpt lat="46.21826" lon="6.55834">
        <ele>1081.14</ele>
        <time>2020-02-04T08:44:38Z</time>
      </trkpt>
      <trkpt lat="46.2182" lon="6.55832">
        <ele>1081.14</ele>
        <time>2020-02-04T08:44:50Z</time>
      </trkpt>
      <trkpt lat="46.21819" lon="6.55832">
        <ele>1081.14</ele>
        <time>2020-02-04T08:44:51Z</time>
      </trkpt>
      <trkpt lat="46.21811" lon="6.55827">
        <ele>1081.14</ele>
        <time>2020-02-04T08:45:01Z</time>
      </trkpt>
      <trkpt lat="46.21801" lon="6.55822">
        <ele>1081.14</ele>
        <time>2020-02-04T08:45:11Z</time>
      </trkpt>
      <trkpt lat="46.21794" lon="6.55813">
        <ele>1081.14</ele>
        <time>2020-02-04T08:45:21Z</time>
      </trkpt>
      <trkpt lat="46.21784" lon="6.55808">
        <ele>1082.58</ele>
        <time>2020-02-04T08:45:32Z</time>
      </trkpt>
      <trkpt lat="46.21782" lon="6.55807">
        <ele>1082.58</ele>
        <time>2020-02-04T08:45:34Z</time>
      </trkpt>
      <trkpt lat="46.21779" lon="6.55804">
        <ele>1082.1</ele>
        <time>2020-02-04T08:45:38Z</time>
      </trkpt>
      <trkpt lat="46.21771" lon="6.55799">
        <ele>1082.1</ele>
        <time>2020-02-04T08:45:50Z</time>
      </trkpt>
      <trkpt lat="46.21767" lon="6.55794">
        <ele>1082.1</ele>
        <time>2020-02-04T08:46:01Z</time>
      </trkpt>
      <trkpt lat="46.21767" lon="6.55794">
        <ele>1082.1</ele>
        <time>2020-02-04T08:46:13Z</time>
      </trkpt>
      <trkpt lat="46.21767" lon="6.55794">
        <ele>1080.66</ele>
        <time>2020-02-04T08:46:27Z</time>
      </trkpt>
      <trkpt lat="46.21764" lon="6.55794">
        <ele>1081.14</ele>
        <time>2020-02-04T08:46:40Z</time>
      </trkpt>
      <trkpt lat="46.21759" lon="6.55793">
        <ele>1080.66</ele>
        <time>2020-02-04T08:46:53Z</time>
      </trkpt>
      <trkpt lat="46.2175" lon="6.55791">
        <ele>1079.7</ele>
        <time>2020-02-04T08:47:06Z</time>
      </trkpt>
      <trkpt lat="46.21733" lon="6.55795">
        <ele>1078.74</ele>
        <time>2020-02-04T08:47:18Z</time>
      </trkpt>
      <trkpt lat="46.21732" lon="6.55797">
        <ele>1078.26</ele>
        <time>2020-02-04T08:47:25Z</time>
      </trkpt>
      <trkpt lat="46.21731" lon="6.55796">
        <ele>1077.29</ele>
        <time>2020-02-04T08:47:38Z</time>
      </trkpt>
      <trkpt lat="46.21731" lon="6.55796">
        <ele>1078.26</ele>
        <time>2020-02-04T08:47:53Z</time>
      </trkpt>
      <trkpt lat="46.21731" lon="6.55779">
        <ele>1077.29</ele>
        <time>2020-02-04T08:48:03Z</time>
      </trkpt>
      <trkpt lat="46.21731" lon="6.55765">
        <ele>1076.81</ele>
        <time>2020-02-04T08:48:13Z</time>
      </trkpt>
      <trkpt lat="46.21735" lon="6.55747">
        <ele>1076.81</ele>
        <time>2020-02-04T08:48:23Z</time>
      </trkpt>
      <trkpt lat="46.21735" lon="6.55746">
        <ele>1077.29</ele>
        <time>2020-02-04T08:48:31Z</time>
      </trkpt>
      <trkpt lat="46.21736" lon="6.55743">
        <ele>1075.85</ele>
        <time>2020-02-04T08:48:44Z</time>
      </trkpt>
      <trkpt lat="46.21738" lon="6.55735">
        <ele>1075.37</ele>
        <time>2020-02-04T08:48:58Z</time>
      </trkpt>
      <trkpt lat="46.21742" lon="6.55721">
        <ele>1075.37</ele>
        <time>2020-02-04T08:49:11Z</time>
      </trkpt>
      <trkpt lat="46.21751" lon="6.55715">
        <ele>1074.41</ele>
        <time>2020-02-04T08:49:21Z</time>
      </trkpt>
      <trkpt lat="46.21763" lon="6.55708">
        <ele>1074.41</ele>
        <time>2020-02-04T08:49:33Z</time>
      </trkpt>
      <trkpt lat="46.21774" lon="6.557">
        <ele>1073.93</ele>
        <time>2020-02-04T08:49:45Z</time>
      </trkpt>
      <trkpt lat="46.2178" lon="6.55695">
        <ele>1074.41</ele>
        <time>2020-02-04T08:49:56Z</time>
      </trkpt>
      <trkpt lat="46.21785" lon="6.55685">
        <ele>1073.45</ele>
        <time>2020-02-04T08:50:08Z</time>
      </trkpt>
      <trkpt lat="46.21785" lon="6.55685">
        <ele>1073.93</ele>
        <time>2020-02-04T08:50:12Z</time>
      </trkpt>
      <trkpt lat="46.21785" lon="6.55675">
        <ele>1074.41</ele>
        <time>2020-02-04T08:50:25Z</time>
      </trkpt>
      <trkpt lat="46.21787" lon="6.5567">
        <ele>1074.41</ele>
        <time>2020-02-04T08:50:38Z</time>
      </trkpt>
      <trkpt lat="46.21787" lon="6.55667">
        <ele>1073.45</ele>
        <time>2020-02-04T08:50:52Z</time>
      </trkpt>
      <trkpt lat="46.21792" lon="6.5566">
        <ele>1072.49</ele>
        <time>2020-02-04T08:51:02Z</time>
      </trkpt>
      <trkpt lat="46.21795" lon="6.55657">
        <ele>1072.49</ele>
        <time>2020-02-04T08:51:06Z</time>
      </trkpt>
      <trkpt lat="46.21802" lon="6.55646">
        <ele>1072.97</ele>
        <time>2020-02-04T08:51:18Z</time>
      </trkpt>
      <trkpt lat="46.2181" lon="6.55641">
        <ele>1073.45</ele>
        <time>2020-02-04T08:51:30Z</time>
      </trkpt>
      <trkpt lat="46.2181" lon="6.55641">
        <ele>1073.45</ele>
        <time>2020-02-04T08:52:02Z</time>
      </trkpt>
      <trkpt lat="46.21809" lon="6.55639">
        <ele>1071.53</ele>
        <time>2020-02-04T08:53:13Z</time>
      </trkpt>
      <trkpt lat="46.21813" lon="6.55632">
        <ele>1070.08</ele>
        <time>2020-02-04T08:54:59Z</time>
      </trkpt>
      <trkpt lat="46.21821" lon="6.55623">
        <ele>1070.08</ele>
        <time>2020-02-04T08:55:09Z</time>
      </trkpt>
      <trkpt lat="46.21824" lon="6.55615">
        <ele>1069.12</ele>
        <time>2020-02-04T08:55:17Z</time>
      </trkpt>
      <trkpt lat="46.21827" lon="6.55603">
        <ele>1069.6</ele>
        <time>2020-02-04T08:55:28Z</time>
      </trkpt>
      <trkpt lat="46.21831" lon="6.55592">
        <ele>1071.05</ele>
        <time>2020-02-04T08:55:39Z</time>
      </trkpt>
      <trkpt lat="46.21834" lon="6.55582">
        <ele>1070.08</ele>
        <time>2020-02-04T08:55:51Z</time>
      </trkpt>
      <trkpt lat="46.21837" lon="6.55572">
        <ele>1068.64</ele>
        <time>2020-02-04T08:56:00Z</time>
      </trkpt>
      <trkpt lat="46.21839" lon="6.55565">
        <ele>1068.64</ele>
        <time>2020-02-04T08:56:06Z</time>
      </trkpt>
      <trkpt lat="46.21845" lon="6.55553">
        <ele>1069.12</ele>
        <time>2020-02-04T08:56:17Z</time>
      </trkpt>
      <trkpt lat="46.21845" lon="6.55548">
        <ele>1069.12</ele>
        <time>2020-02-04T08:56:20Z</time>
      </trkpt>
      <trkpt lat="46.21846" lon="6.55529">
        <ele>1069.6</ele>
        <time>2020-02-04T08:56:32Z</time>
      </trkpt>
      <trkpt lat="46.21848" lon="6.55515">
        <ele>1069.6</ele>
        <time>2020-02-04T08:56:42Z</time>
      </trkpt>
      <trkpt lat="46.21848" lon="6.55508">
        <ele>1069.12</ele>
        <time>2020-02-04T08:56:51Z</time>
      </trkpt>
      <trkpt lat="46.21846" lon="6.55504">
        <ele>1068.64</ele>
        <time>2020-02-04T08:56:59Z</time>
      </trkpt>
      <trkpt lat="46.21842" lon="6.55499">
        <ele>1067.68</ele>
        <time>2020-02-04T08:57:05Z</time>
      </trkpt>
      <trkpt lat="46.21834" lon="6.55492">
        <ele>1067.2</ele>
        <time>2020-02-04T08:57:17Z</time>
      </trkpt>
      <trkpt lat="46.21831" lon="6.55484">
        <ele>1066.72</ele>
        <time>2020-02-04T08:57:26Z</time>
      </trkpt>
      <trkpt lat="46.21826" lon="6.55481">
        <ele>1066.72</ele>
        <time>2020-02-04T08:57:34Z</time>
      </trkpt>
      <trkpt lat="46.21822" lon="6.5548">
        <ele>1066.24</ele>
        <time>2020-02-04T08:57:40Z</time>
      </trkpt>
      <trkpt lat="46.2181" lon="6.5549">
        <ele>1066.24</ele>
        <time>2020-02-04T08:57:52Z</time>
      </trkpt>
      <trkpt lat="46.21799" lon="6.55494">
        <ele>1065.76</ele>
        <time>2020-02-04T08:58:02Z</time>
      </trkpt>
      <trkpt lat="46.21793" lon="6.55494">
        <ele>1066.72</ele>
        <time>2020-02-04T08:58:12Z</time>
      </trkpt>
      <trkpt lat="46.21785" lon="6.55493">
        <ele>1067.2</ele>
        <time>2020-02-04T08:58:22Z</time>
      </trkpt>
      <trkpt lat="46.21778" lon="6.55494">
        <ele>1067.68</ele>
        <time>2020-02-04T08:58:31Z</time>
      </trkpt>
      <trkpt lat="46.21773" lon="6.55493">
        <ele>1068.64</ele>
        <time>2020-02-04T08:58:43Z</time>
      </trkpt>
      <trkpt lat="46.21766" lon="6.55495">
        <ele>1069.12</ele>
        <time>2020-02-04T08:58:53Z</time>
      </trkpt>
      <trkpt lat="46.21757" lon="6.55498">
        <ele>1069.12</ele>
        <time>2020-02-04T08:59:03Z</time>
      </trkpt>
      <trkpt lat="46.21745" lon="6.55506">
        <ele>1069.6</ele>
        <time>2020-02-04T08:59:16Z</time>
      </trkpt>
      <trkpt lat="46.21733" lon="6.55512">
        <ele>1069.6</ele>
        <time>2020-02-04T08:59:27Z</time>
      </trkpt>
      <trkpt lat="46.2173" lon="6.55514">
        <ele>1069.6</ele>
        <time>2020-02-04T08:59:36Z</time>
      </trkpt>
      <trkpt lat="46.21719" lon="6.55521">
        <ele>1070.57</ele>
        <time>2020-02-04T08:59:44Z</time>
      </trkpt>
      <trkpt lat="46.21716" lon="6.55522">
        <ele>1070.57</ele>
        <time>2020-02-04T08:59:48Z</time>
      </trkpt>
      <trkpt lat="46.21712" lon="6.55523">
        <ele>1070.57</ele>
        <time>2020-02-04T08:59:52Z</time>
      </trkpt>
      <trkpt lat="46.21704" lon="6.55528">
        <ele>1071.05</ele>
        <time>2020-02-04T09:00:03Z</time>
      </trkpt>
      <trkpt lat="46.21693" lon="6.55534">
        <ele>1071.53</ele>
        <time>2020-02-04T09:00:13Z</time>
      </trkpt>
      <trkpt lat="46.21683" lon="6.55536">
        <ele>1072.97</ele>
        <time>2020-02-04T09:00:25Z</time>
      </trkpt>
      <trkpt lat="46.21675" lon="6.55542">
        <ele>1072.97</ele>
        <time>2020-02-04T09:00:36Z</time>
      </trkpt>
      <trkpt lat="46.21671" lon="6.55545">
        <ele>1073.93</ele>
        <time>2020-02-04T09:00:45Z</time>
      </trkpt>
      <trkpt lat="46.21666" lon="6.55548">
        <ele>1073.93</ele>
        <time>2020-02-04T09:00:55Z</time>
      </trkpt>
      <trkpt lat="46.21659" lon="6.55554">
        <ele>1074.41</ele>
        <time>2020-02-04T09:01:06Z</time>
      </trkpt>
      <trkpt lat="46.21653" lon="6.5556">
        <ele>1074.89</ele>
        <time>2020-02-04T09:01:15Z</time>
      </trkpt>
      <trkpt lat="46.2165" lon="6.55562">
        <ele>1075.37</ele>
        <time>2020-02-04T09:01:18Z</time>
      </trkpt>
      <trkpt lat="46.21647" lon="6.55563">
        <ele>1075.85</ele>
        <time>2020-02-04T09:01:20Z</time>
      </trkpt>
      <trkpt lat="46.21637" lon="6.55571">
        <ele>1075.85</ele>
        <time>2020-02-04T09:01:32Z</time>
      </trkpt>
      <trkpt lat="46.21627" lon="6.5558">
        <ele>1076.33</ele>
        <time>2020-02-04T09:01:43Z</time>
      </trkpt>
      <trkpt lat="46.21625" lon="6.55583">
        <ele>1076.33</ele>
        <time>2020-02-04T09:01:47Z</time>
      </trkpt>
      <trkpt lat="46.21618" lon="6.55591">
        <ele>1076.33</ele>
        <time>2020-02-04T09:01:56Z</time>
      </trkpt>
      <trkpt lat="46.21618" lon="6.55592">
        <ele>1076.33</ele>
        <time>2020-02-04T09:01:57Z</time>
      </trkpt>
      <trkpt lat="46.21614" lon="6.55598">
        <ele>1076.81</ele>
        <time>2020-02-04T09:02:05Z</time>
      </trkpt>
      <trkpt lat="46.2161" lon="6.55601">
        <ele>1076.33</ele>
        <time>2020-02-04T09:02:10Z</time>
      </trkpt>
      <trkpt lat="46.21603" lon="6.55602">
        <ele>1076.81</ele>
        <time>2020-02-04T09:02:20Z</time>
      </trkpt>
      <trkpt lat="46.21596" lon="6.55609">
        <ele>1075.85</ele>
        <time>2020-02-04T09:02:30Z</time>
      </trkpt>
      <trkpt lat="46.21595" lon="6.5561">
        <ele>1075.85</ele>
        <time>2020-02-04T09:02:32Z</time>
      </trkpt>
      <trkpt lat="46.21589" lon="6.55617">
        <ele>1075.37</ele>
        <time>2020-02-04T09:02:38Z</time>
      </trkpt>
      <trkpt lat="46.21579" lon="6.55625">
        <ele>1074.41</ele>
        <time>2020-02-04T09:02:52Z</time>
      </trkpt>
      <trkpt lat="46.2157" lon="6.55634">
        <ele>1073.45</ele>
        <time>2020-02-04T09:03:05Z</time>
      </trkpt>
      <trkpt lat="46.21562" lon="6.55641">
        <ele>1072.97</ele>
        <time>2020-02-04T09:03:15Z</time>
      </trkpt>
      <trkpt lat="46.21554" lon="6.55648">
        <ele>1072.97</ele>
        <time>2020-02-04T09:03:26Z</time>
      </trkpt>
      <trkpt lat="46.21553" lon="6.55651">
        <ele>1073.45</ele>
        <time>2020-02-04T09:04:10Z</time>
      </trkpt>
      <trkpt lat="46.21549" lon="6.55656">
        <ele>1073.45</ele>
        <time>2020-02-04T09:04:54Z</time>
      </trkpt>
      <trkpt lat="46.21544" lon="6.55665">
        <ele>1072.49</ele>
        <time>2020-02-04T09:05:05Z</time>
      </trkpt>
      <trkpt lat="46.21537" lon="6.55673">
        <ele>1072.01</ele>
        <time>2020-02-04T09:05:16Z</time>
      </trkpt>
      <trkpt lat="46.21534" lon="6.55678">
        <ele>1071.53</ele>
        <time>2020-02-04T09:05:22Z</time>
      </trkpt>
      <trkpt lat="46.21532" lon="6.5568">
        <ele>1071.53</ele>
        <time>2020-02-04T09:05:24Z</time>
      </trkpt>
      <trkpt lat="46.21529" lon="6.55684">
        <ele>1071.53</ele>
        <time>2020-02-04T09:05:28Z</time>
      </trkpt>
      <trkpt lat="46.21527" lon="6.55686">
        <ele>1072.01</ele>
        <time>2020-02-04T09:05:31Z</time>
      </trkpt>
      <trkpt lat="46.2152" lon="6.55693">
        <ele>1072.01</ele>
        <time>2020-02-04T09:05:43Z</time>
      </trkpt>
      <trkpt lat="46.21514" lon="6.55702">
        <ele>1071.53</ele>
        <time>2020-02-04T09:05:54Z</time>
      </trkpt>
      <trkpt lat="46.21512" lon="6.5571">
        <ele>1071.53</ele>
        <time>2020-02-04T09:06:00Z</time>
      </trkpt>
      <trkpt lat="46.2151" lon="6.55714">
        <ele>1071.05</ele>
        <time>2020-02-04T09:06:03Z</time>
      </trkpt>
      <trkpt lat="46.21503" lon="6.55726">
        <ele>1071.05</ele>
        <time>2020-02-04T09:06:13Z</time>
      </trkpt>
      <trkpt lat="46.21497" lon="6.55739">
        <ele>1071.05</ele>
        <time>2020-02-04T09:06:22Z</time>
      </trkpt>
      <trkpt lat="46.21491" lon="6.55752">
        <ele>1071.05</ele>
        <time>2020-02-04T09:06:33Z</time>
      </trkpt>
      <trkpt lat="46.21487" lon="6.55761">
        <ele>1070.57</ele>
        <time>2020-02-04T09:06:43Z</time>
      </trkpt>
      <trkpt lat="46.21483" lon="6.55768">
        <ele>1070.08</ele>
        <time>2020-02-04T09:06:53Z</time>
      </trkpt>
      <trkpt lat="46.2148" lon="6.55779">
        <ele>1069.12</ele>
        <time>2020-02-04T09:07:03Z</time>
      </trkpt>
      <trkpt lat="46.21472" lon="6.55794">
        <ele>1069.12</ele>
        <time>2020-02-04T09:07:13Z</time>
      </trkpt>
      <trkpt lat="46.21469" lon="6.55803">
        <ele>1069.6</ele>
        <time>2020-02-04T09:07:21Z</time>
      </trkpt>
      <trkpt lat="46.21468" lon="6.55804">
        <ele>1069.6</ele>
        <time>2020-02-04T09:07:22Z</time>
      </trkpt>
      <trkpt lat="46.21467" lon="6.55809">
        <ele>1068.64</ele>
        <time>2020-02-04T09:07:25Z</time>
      </trkpt>
      <trkpt lat="46.21466" lon="6.55825">
        <ele>1068.64</ele>
        <time>2020-02-04T09:07:35Z</time>
      </trkpt>
      <trkpt lat="46.21462" lon="6.5584">
        <ele>1068.16</ele>
        <time>2020-02-04T09:07:46Z</time>
      </trkpt>
      <trkpt lat="46.21458" lon="6.55853">
        <ele>1067.68</ele>
        <time>2020-02-04T09:07:57Z</time>
      </trkpt>
      <trkpt lat="46.21457" lon="6.55863">
        <ele>1067.2</ele>
        <time>2020-02-04T09:08:07Z</time>
      </trkpt>
      <trkpt lat="46.21456" lon="6.55873">
        <ele>1067.68</ele>
        <time>2020-02-04T09:08:18Z</time>
      </trkpt>
      <trkpt lat="46.21456" lon="6.55875">
        <ele>1067.2</ele>
        <time>2020-02-04T09:08:20Z</time>
      </trkpt>
      <trkpt lat="46.21464" lon="6.55884">
        <ele>1067.2</ele>
        <time>2020-02-04T09:08:33Z</time>
      </trkpt>
      <trkpt lat="46.2147" lon="6.55882">
        <ele>1067.2</ele>
        <time>2020-02-04T09:08:44Z</time>
      </trkpt>
      <trkpt lat="46.21477" lon="6.55882">
        <ele>1067.2</ele>
        <time>2020-02-04T09:08:55Z</time>
      </trkpt>
      <trkpt lat="46.21483" lon="6.55883">
        <ele>1067.68</ele>
        <time>2020-02-04T09:09:05Z</time>
      </trkpt>
      <trkpt lat="46.21489" lon="6.55888">
        <ele>1066.72</ele>
        <time>2020-02-04T09:09:16Z</time>
      </trkpt>
      <trkpt lat="46.21493" lon="6.55893">
        <ele>1068.16</ele>
        <time>2020-02-04T09:09:29Z</time>
      </trkpt>
      <trkpt lat="46.21493" lon="6.55893">
        <ele>1068.64</ele>
        <time>2020-02-04T09:09:30Z</time>
      </trkpt>
      <trkpt lat="46.21495" lon="6.55899">
        <ele>1068.16</ele>
        <time>2020-02-04T09:09:51Z</time>
      </trkpt>
      <trkpt lat="46.21497" lon="6.55909">
        <ele>1067.2</ele>
        <time>2020-02-04T09:10:01Z</time>
      </trkpt>
      <trkpt lat="46.21497" lon="6.5591">
        <ele>1067.68</ele>
        <time>2020-02-04T09:10:02Z</time>
      </trkpt>
      <trkpt lat="46.21496" lon="6.55914">
        <ele>1067.2</ele>
        <time>2020-02-04T09:10:05Z</time>
      </trkpt>
      <trkpt lat="46.21494" lon="6.55919">
        <ele>1067.68</ele>
        <time>2020-02-04T09:10:11Z</time>
      </trkpt>
      <trkpt lat="46.2149" lon="6.55929">
        <ele>1068.64</ele>
        <time>2020-02-04T09:10:23Z</time>
      </trkpt>
      <trkpt lat="46.21489" lon="6.55933">
        <ele>1069.12</ele>
        <time>2020-02-04T09:10:28Z</time>
      </trkpt>
      <trkpt lat="46.21488" lon="6.55937">
        <ele>1069.12</ele>
        <time>2020-02-04T09:10:32Z</time>
      </trkpt>
      <trkpt lat="46.21484" lon="6.55947">
        <ele>1069.6</ele>
        <time>2020-02-04T09:10:45Z</time>
      </trkpt>
      <trkpt lat="46.21485" lon="6.55957">
        <ele>1069.12</ele>
        <time>2020-02-04T09:10:57Z</time>
      </trkpt>
      <trkpt lat="46.21484" lon="6.55957">
        <ele>1068.64</ele>
        <time>2020-02-04T09:11:13Z</time>
      </trkpt>
      <trkpt lat="46.21484" lon="6.55957">
        <ele>1070.57</ele>
        <time>2020-02-04T09:11:23Z</time>
      </trkpt>
      <trkpt lat="46.21484" lon="6.55954">
        <ele>1069.12</ele>
        <time>2020-02-04T09:11:32Z</time>
      </trkpt>
      <trkpt lat="46.21484" lon="6.55954">
        <ele>1069.6</ele>
        <time>2020-02-04T09:11:36Z</time>
      </trkpt>
      <trkpt lat="46.21484" lon="6.55957">
        <ele>1069.6</ele>
        <time>2020-02-04T09:11:55Z</time>
      </trkpt>
      <trkpt lat="46.21485" lon="6.55957">
        <ele>1072.01</ele>
        <time>2020-02-04T09:12:21Z</time>
      </trkpt>
      <trkpt lat="46.21483" lon="6.55963">
        <ele>1069.6</ele>
        <time>2020-02-04T09:12:40Z</time>
      </trkpt>
      <trkpt lat="46.21483" lon="6.55965">
        <ele>1069.6</ele>
        <time>2020-02-04T09:12:41Z</time>
      </trkpt>
      <trkpt lat="46.21481" lon="6.55973">
        <ele>1070.57</ele>
        <time>2020-02-04T09:12:52Z</time>
      </trkpt>
      <trkpt lat="46.21479" lon="6.55977">
        <ele>1071.53</ele>
        <time>2020-02-04T09:12:59Z</time>
      </trkpt>
      <trkpt lat="46.21475" lon="6.55981">
        <ele>1071.05</ele>
        <time>2020-02-04T09:13:02Z</time>
      </trkpt>
      <trkpt lat="46.21464" lon="6.55994">
        <ele>1071.53</ele>
        <time>2020-02-04T09:13:15Z</time>
      </trkpt>
      <trkpt lat="46.21461" lon="6.56001">
        <ele>1072.01</ele>
        <time>2020-02-04T09:13:26Z</time>
      </trkpt>
      <trkpt lat="46.21456" lon="6.56005">
        <ele>1072.01</ele>
        <time>2020-02-04T09:13:35Z</time>
      </trkpt>
      <trkpt lat="46.21455" lon="6.56023">
        <ele>1073.45</ele>
        <time>2020-02-04T09:13:49Z</time>
      </trkpt>
      <trkpt lat="46.21452" lon="6.56038">
        <ele>1073.93</ele>
        <time>2020-02-04T09:14:02Z</time>
      </trkpt>
      <trkpt lat="46.21452" lon="6.56053">
        <ele>1074.41</ele>
        <time>2020-02-04T09:14:13Z</time>
      </trkpt>
      <trkpt lat="46.21451" lon="6.56067">
        <ele>1074.41</ele>
        <time>2020-02-04T09:14:26Z</time>
      </trkpt>
      <trkpt lat="46.2145" lon="6.56078">
        <ele>1074.89</ele>
        <time>2020-02-04T09:14:35Z</time>
      </trkpt>
      <trkpt lat="46.21447" lon="6.56089">
        <ele>1074.89</ele>
        <time>2020-02-04T09:14:46Z</time>
      </trkpt>
      <trkpt lat="46.21441" lon="6.56096">
        <ele>1075.37</ele>
        <time>2020-02-04T09:14:58Z</time>
      </trkpt>
      <trkpt lat="46.21433" lon="6.56107">
        <ele>1075.85</ele>
        <time>2020-02-04T09:15:09Z</time>
      </trkpt>
      <trkpt lat="46.21426" lon="6.56116">
        <ele>1077.29</ele>
        <time>2020-02-04T09:15:20Z</time>
      </trkpt>
      <trkpt lat="46.2142" lon="6.56122">
        <ele>1077.29</ele>
        <time>2020-02-04T09:15:30Z</time>
      </trkpt>
      <trkpt lat="46.21413" lon="6.56127">
        <ele>1077.78</ele>
        <time>2020-02-04T09:15:42Z</time>
      </trkpt>
      <trkpt lat="46.21408" lon="6.5613">
        <ele>1077.78</ele>
        <time>2020-02-04T09:15:48Z</time>
      </trkpt>
      <trkpt lat="46.21406" lon="6.56131">
        <ele>1077.78</ele>
        <time>2020-02-04T09:15:53Z</time>
      </trkpt>
      <trkpt lat="46.21403" lon="6.56142">
        <ele>1078.26</ele>
        <time>2020-02-04T09:16:04Z</time>
      </trkpt>
      <trkpt lat="46.21397" lon="6.56157">
        <ele>1078.74</ele>
        <time>2020-02-04T09:16:17Z</time>
      </trkpt>
      <trkpt lat="46.2139" lon="6.56166">
        <ele>1078.26</ele>
        <time>2020-02-04T09:16:28Z</time>
      </trkpt>
      <trkpt lat="46.21388" lon="6.56173">
        <ele>1080.66</ele>
        <time>2020-02-04T09:16:37Z</time>
      </trkpt>
      <trkpt lat="46.21384" lon="6.56179">
        <ele>1081.62</ele>
        <time>2020-02-04T09:16:48Z</time>
      </trkpt>
      <trkpt lat="46.21377" lon="6.56188">
        <ele>1083.06</ele>
        <time>2020-02-04T09:16:58Z</time>
      </trkpt>
      <trkpt lat="46.21374" lon="6.56192">
        <ele>1083.54</ele>
        <time>2020-02-04T09:17:03Z</time>
      </trkpt>
      <trkpt lat="46.21364" lon="6.56199">
        <ele>1083.06</ele>
        <time>2020-02-04T09:17:14Z</time>
      </trkpt>
      <trkpt lat="46.21363" lon="6.562">
        <ele>1083.06</ele>
        <time>2020-02-04T09:17:15Z</time>
      </trkpt>
      <trkpt lat="46.21358" lon="6.56203">
        <ele>1082.58</ele>
        <time>2020-02-04T09:17:22Z</time>
      </trkpt>
      <trkpt lat="46.21349" lon="6.56208">
        <ele>1083.54</ele>
        <time>2020-02-04T09:17:34Z</time>
      </trkpt>
      <trkpt lat="46.21348" lon="6.56208">
        <ele>1083.06</ele>
        <time>2020-02-04T09:17:36Z</time>
      </trkpt>
      <trkpt lat="46.21339" lon="6.56213">
        <ele>1083.54</ele>
        <time>2020-02-04T09:17:48Z</time>
      </trkpt>
      <trkpt lat="46.21333" lon="6.56218">
        <ele>1083.54</ele>
        <time>2020-02-04T09:18:00Z</time>
      </trkpt>
      <trkpt lat="46.21327" lon="6.56221">
        <ele>1082.58</ele>
        <time>2020-02-04T09:18:09Z</time>
      </trkpt>
      <trkpt lat="46.21318" lon="6.56224">
        <ele>1081.14</ele>
        <time>2020-02-04T09:18:20Z</time>
      </trkpt>
      <trkpt lat="46.21313" lon="6.56225">
        <ele>1079.7</ele>
        <time>2020-02-04T09:18:32Z</time>
      </trkpt>
      <trkpt lat="46.21309" lon="6.56226">
        <ele>1078.74</ele>
        <time>2020-02-04T09:18:39Z</time>
      </trkpt>
      <trkpt lat="46.21305" lon="6.56227">
        <ele>1077.78</ele>
        <time>2020-02-04T09:18:45Z</time>
      </trkpt>
      <trkpt lat="46.21295" lon="6.56233">
        <ele>1076.81</ele>
        <time>2020-02-04T09:18:58Z</time>
      </trkpt>
      <trkpt lat="46.21281" lon="6.56247">
        <ele>1076.81</ele>
        <time>2020-02-04T09:19:09Z</time>
      </trkpt>
      <trkpt lat="46.21277" lon="6.56263">
        <ele>1076.81</ele>
        <time>2020-02-04T09:19:20Z</time>
      </trkpt>
      <trkpt lat="46.2128" lon="6.56271">
        <ele>1077.29</ele>
        <time>2020-02-04T09:19:29Z</time>
      </trkpt>
      <trkpt lat="46.21282" lon="6.5628">
        <ele>1079.22</ele>
        <time>2020-02-04T09:19:41Z</time>
      </trkpt>
      <trkpt lat="46.21284" lon="6.5628">
        <ele>1079.22</ele>
        <time>2020-02-04T09:20:02Z</time>
      </trkpt>
      <trkpt lat="46.21283" lon="6.56282">
        <ele>1079.7</ele>
        <time>2020-02-04T09:20:52Z</time>
      </trkpt>
      <trkpt lat="46.21283" lon="6.56281">
        <ele>1079.7</ele>
        <time>2020-02-04T09:21:02Z</time>
      </trkpt>
      <trkpt lat="46.21283" lon="6.56281">
        <ele>1078.26</ele>
        <time>2020-02-04T09:21:05Z</time>
      </trkpt>
      <trkpt lat="46.21286" lon="6.56282">
        <ele>1078.74</ele>
        <time>2020-02-04T09:21:30Z</time>
      </trkpt>
      <trkpt lat="46.21286" lon="6.56282">
        <ele>1079.22</ele>
        <time>2020-02-04T09:22:02Z</time>
      </trkpt>
      <trkpt lat="46.21288" lon="6.56281">
        <ele>1079.22</ele>
        <time>2020-02-04T09:22:18Z</time>
      </trkpt>
      <trkpt lat="46.21287" lon="6.5628">
        <ele>1080.18</ele>
        <time>2020-02-04T09:22:29Z</time>
      </trkpt>
      <trkpt lat="46.21287" lon="6.56281">
        <ele>1080.18</ele>
        <time>2020-02-04T09:22:45Z</time>
      </trkpt>
      <trkpt lat="46.21288" lon="6.56283">
        <ele>1080.66</ele>
        <time>2020-02-04T09:22:47Z</time>
      </trkpt>
      <trkpt lat="46.21292" lon="6.56291">
        <ele>1081.14</ele>
        <time>2020-02-04T09:22:56Z</time>
      </trkpt>
      <trkpt lat="46.21294" lon="6.56293">
        <ele>1081.14</ele>
        <time>2020-02-04T09:23:01Z</time>
      </trkpt>
      <trkpt lat="46.21296" lon="6.56295">
        <ele>1081.62</ele>
        <time>2020-02-04T09:23:03Z</time>
      </trkpt>
      <trkpt lat="46.21294" lon="6.56304">
        <ele>1082.1</ele>
        <time>2020-02-04T09:23:14Z</time>
      </trkpt>
      <trkpt lat="46.21294" lon="6.56307">
        <ele>1083.06</ele>
        <time>2020-02-04T09:23:32Z</time>
      </trkpt>
      <trkpt lat="46.21292" lon="6.56325">
        <ele>1083.54</ele>
        <time>2020-02-04T09:23:49Z</time>
      </trkpt>
      <trkpt lat="46.21288" lon="6.56339">
        <ele>1084.02</ele>
        <time>2020-02-04T09:24:01Z</time>
      </trkpt>
      <trkpt lat="46.21287" lon="6.56342">
        <ele>1084.02</ele>
        <time>2020-02-04T09:24:17Z</time>
      </trkpt>
      <trkpt lat="46.21286" lon="6.56344">
        <ele>1083.54</ele>
        <time>2020-02-04T09:24:32Z</time>
      </trkpt>
      <trkpt lat="46.21284" lon="6.5635">
        <ele>1084.99</ele>
        <time>2020-02-04T09:24:45Z</time>
      </trkpt>
      <trkpt lat="46.21289" lon="6.56352">
        <ele>1085.95</ele>
        <time>2020-02-04T09:25:02Z</time>
      </trkpt>
      <trkpt lat="46.2129" lon="6.56353">
        <ele>1085.95</ele>
        <time>2020-02-04T09:25:05Z</time>
      </trkpt>
      <trkpt lat="46.21287" lon="6.56348">
        <ele>1085.47</ele>
        <time>2020-02-04T09:25:18Z</time>
      </trkpt>
      <trkpt lat="46.21287" lon="6.56351">
        <ele>1086.43</ele>
        <time>2020-02-04T09:25:38Z</time>
      </trkpt>
      <trkpt lat="46.21287" lon="6.56352">
        <ele>1085.47</ele>
        <time>2020-02-04T09:25:57Z</time>
      </trkpt>
      <trkpt lat="46.21288" lon="6.56352">
        <ele>1087.39</ele>
        <time>2020-02-04T09:26:53Z</time>
      </trkpt>
      <trkpt lat="46.21288" lon="6.56353">
        <ele>1086.91</ele>
        <time>2020-02-04T09:28:12Z</time>
      </trkpt>
      <trkpt lat="46.21289" lon="6.56353">
        <ele>1088.35</ele>
        <time>2020-02-04T09:29:49Z</time>
      </trkpt>
      <trkpt lat="46.21286" lon="6.56357">
        <ele>1088.35</ele>
        <time>2020-02-04T09:30:59Z</time>
      </trkpt>
      <trkpt lat="46.21281" lon="6.56364">
        <ele>1087.87</ele>
        <time>2020-02-04T09:31:24Z</time>
      </trkpt>
      <trkpt lat="46.21279" lon="6.56367">
        <ele>1087.87</ele>
        <time>2020-02-04T09:31:27Z</time>
      </trkpt>
      <trkpt lat="46.21272" lon="6.56378">
        <ele>1087.39</ele>
        <time>2020-02-04T09:31:36Z</time>
      </trkpt>
      <trkpt lat="46.2127" lon="6.56379">
        <ele>1086.43</ele>
        <time>2020-02-04T09:31:38Z</time>
      </trkpt>
      <trkpt lat="46.21262" lon="6.56397">
        <ele>1086.91</ele>
        <time>2020-02-04T09:31:52Z</time>
      </trkpt>
      <trkpt lat="46.21262" lon="6.56398">
        <ele>1087.39</ele>
        <time>2020-02-04T09:31:53Z</time>
      </trkpt>
      <trkpt lat="46.21258" lon="6.56415">
        <ele>1086.91</ele>
        <time>2020-02-04T09:32:08Z</time>
      </trkpt>
      <trkpt lat="46.21253" lon="6.56421">
        <ele>1086.43</ele>
        <time>2020-02-04T09:32:20Z</time>
      </trkpt>
      <trkpt lat="46.21253" lon="6.56425">
        <ele>1086.91</ele>
        <time>2020-02-04T09:32:25Z</time>
      </trkpt>
      <trkpt lat="46.21254" lon="6.56432">
        <ele>1085.95</ele>
        <time>2020-02-04T09:32:35Z</time>
      </trkpt>
      <trkpt lat="46.21255" lon="6.56441">
        <ele>1087.39</ele>
        <time>2020-02-04T09:33:06Z</time>
      </trkpt>
      <trkpt lat="46.21256" lon="6.56451">
        <ele>1086.91</ele>
        <time>2020-02-04T09:33:12Z</time>
      </trkpt>
      <trkpt lat="46.21257" lon="6.56458">
        <ele>1086.91</ele>
        <time>2020-02-04T09:33:16Z</time>
      </trkpt>
      <trkpt lat="46.21263" lon="6.56471">
        <ele>1086.43</ele>
        <time>2020-02-04T09:33:25Z</time>
      </trkpt>
      <trkpt lat="46.21262" lon="6.56481">
        <ele>1086.43</ele>
        <time>2020-02-04T09:33:31Z</time>
      </trkpt>
      <trkpt lat="46.2126" lon="6.56487">
        <ele>1087.39</ele>
        <time>2020-02-04T09:33:34Z</time>
      </trkpt>
      <trkpt lat="46.21257" lon="6.5649">
        <ele>1086.91</ele>
        <time>2020-02-04T09:33:36Z</time>
      </trkpt>
      <trkpt lat="46.21246" lon="6.5651">
        <ele>1087.39</ele>
        <time>2020-02-04T09:33:49Z</time>
      </trkpt>
      <trkpt lat="46.2124" lon="6.5652">
        <ele>1087.87</ele>
        <time>2020-02-04T09:33:56Z</time>
      </trkpt>
      <trkpt lat="46.21236" lon="6.56539">
        <ele>1087.87</ele>
        <time>2020-02-04T09:34:09Z</time>
      </trkpt>
      <trkpt lat="46.21236" lon="6.56541">
        <ele>1087.87</ele>
        <time>2020-02-04T09:34:10Z</time>
      </trkpt>
      <trkpt lat="46.21235" lon="6.56546">
        <ele>1087.87</ele>
        <time>2020-02-04T09:34:13Z</time>
      </trkpt>
      <trkpt lat="46.21232" lon="6.56556">
        <ele>1086.91</ele>
        <time>2020-02-04T09:34:18Z</time>
      </trkpt>
      <trkpt lat="46.2123" lon="6.56561">
        <ele>1086.43</ele>
        <time>2020-02-04T09:34:23Z</time>
      </trkpt>
      <trkpt lat="46.21234" lon="6.56571">
        <ele>1085.47</ele>
        <time>2020-02-04T09:34:33Z</time>
      </trkpt>
      <trkpt lat="46.21235" lon="6.56571">
        <ele>1084.5</ele>
        <time>2020-02-04T09:34:34Z</time>
      </trkpt>
      <trkpt lat="46.21241" lon="6.5657">
        <ele>1084.02</ele>
        <time>2020-02-04T09:34:46Z</time>
      </trkpt>
      <trkpt lat="46.21238" lon="6.56579">
        <ele>1083.06</ele>
        <time>2020-02-04T09:34:53Z</time>
      </trkpt>
      <trkpt lat="46.21235" lon="6.56588">
        <ele>1082.1</ele>
        <time>2020-02-04T09:34:58Z</time>
      </trkpt>
      <trkpt lat="46.21237" lon="6.566">
        <ele>1080.18</ele>
        <time>2020-02-04T09:35:09Z</time>
      </trkpt>
      <trkpt lat="46.21231" lon="6.56615">
        <ele>1079.7</ele>
        <time>2020-02-04T09:35:20Z</time>
      </trkpt>
      <trkpt lat="46.2123" lon="6.56629">
        <ele>1079.22</ele>
        <time>2020-02-04T09:35:30Z</time>
      </trkpt>
      <trkpt lat="46.21229" lon="6.5663">
        <ele>1079.22</ele>
        <time>2020-02-04T09:35:31Z</time>
      </trkpt>
      <trkpt lat="46.21226" lon="6.56639">
        <ele>1079.7</ele>
        <time>2020-02-04T09:35:41Z</time>
      </trkpt>
      <trkpt lat="46.21224" lon="6.56645">
        <ele>1079.7</ele>
        <time>2020-02-04T09:35:46Z</time>
      </trkpt>
      <trkpt lat="46.21217" lon="6.56663">
        <ele>1080.66</ele>
        <time>2020-02-04T09:36:00Z</time>
      </trkpt>
      <trkpt lat="46.21215" lon="6.56669">
        <ele>1081.62</ele>
        <time>2020-02-04T09:36:05Z</time>
      </trkpt>
      <trkpt lat="46.21207" lon="6.56683">
        <ele>1082.1</ele>
        <time>2020-02-04T09:36:15Z</time>
      </trkpt>
      <trkpt lat="46.21206" lon="6.56685">
        <ele>1082.58</ele>
        <time>2020-02-04T09:36:17Z</time>
      </trkpt>
      <trkpt lat="46.21206" lon="6.56687">
        <ele>1082.58</ele>
        <time>2020-02-04T09:36:18Z</time>
      </trkpt>
      <trkpt lat="46.21207" lon="6.56701">
        <ele>1084.5</ele>
        <time>2020-02-04T09:36:29Z</time>
      </trkpt>
      <trkpt lat="46.21208" lon="6.5671">
        <ele>1085.47</ele>
        <time>2020-02-04T09:36:40Z</time>
      </trkpt>
      <trkpt lat="46.21208" lon="6.56721">
        <ele>1087.39</ele>
        <time>2020-02-04T09:36:51Z</time>
      </trkpt>
      <trkpt lat="46.21212" lon="6.56739">
        <ele>1087.87</ele>
        <time>2020-02-04T09:37:01Z</time>
      </trkpt>
      <trkpt lat="46.21219" lon="6.5675">
        <ele>1088.35</ele>
        <time>2020-02-04T09:37:12Z</time>
      </trkpt>
      <trkpt lat="46.21217" lon="6.56767">
        <ele>1089.31</ele>
        <time>2020-02-04T09:37:24Z</time>
      </trkpt>
      <trkpt lat="46.21218" lon="6.56782">
        <ele>1089.31</ele>
        <time>2020-02-04T09:37:33Z</time>
      </trkpt>
      <trkpt lat="46.21218" lon="6.56797">
        <ele>1090.27</ele>
        <time>2020-02-04T09:37:44Z</time>
      </trkpt>
      <trkpt lat="46.21216" lon="6.56811">
        <ele>1090.75</ele>
        <time>2020-02-04T09:37:57Z</time>
      </trkpt>
      <trkpt lat="46.21213" lon="6.56824">
        <ele>1091.71</ele>
        <time>2020-02-04T09:38:08Z</time>
      </trkpt>
      <trkpt lat="46.21209" lon="6.56832">
        <ele>1091.71</ele>
        <time>2020-02-04T09:38:16Z</time>
      </trkpt>
      <trkpt lat="46.21202" lon="6.5684">
        <ele>1091.71</ele>
        <time>2020-02-04T09:38:28Z</time>
      </trkpt>
      <trkpt lat="46.212" lon="6.56853">
        <ele>1092.68</ele>
        <time>2020-02-04T09:38:40Z</time>
      </trkpt>
      <trkpt lat="46.212" lon="6.56857">
        <ele>1092.68</ele>
        <time>2020-02-04T09:38:44Z</time>
      </trkpt>
      <trkpt lat="46.212" lon="6.56869">
        <ele>1091.71</ele>
        <time>2020-02-04T09:38:55Z</time>
      </trkpt>
      <trkpt lat="46.21202" lon="6.56877">
        <ele>1090.27</ele>
        <time>2020-02-04T09:39:02Z</time>
      </trkpt>
      <trkpt lat="46.21203" lon="6.56892">
        <ele>1089.31</ele>
        <time>2020-02-04T09:39:14Z</time>
      </trkpt>
      <trkpt lat="46.21202" lon="6.56902">
        <ele>1088.35</ele>
        <time>2020-02-04T09:39:23Z</time>
      </trkpt>
      <trkpt lat="46.21202" lon="6.56911">
        <ele>1087.87</ele>
        <time>2020-02-04T09:39:29Z</time>
      </trkpt>
      <trkpt lat="46.21203" lon="6.56921">
        <ele>1087.87</ele>
        <time>2020-02-04T09:39:35Z</time>
      </trkpt>
      <trkpt lat="46.21202" lon="6.5693">
        <ele>1088.35</ele>
        <time>2020-02-04T09:39:43Z</time>
      </trkpt>
      <trkpt lat="46.21203" lon="6.56952">
        <ele>1089.31</ele>
        <time>2020-02-04T09:39:57Z</time>
      </trkpt>
      <trkpt lat="46.21202" lon="6.56956">
        <ele>1089.31</ele>
        <time>2020-02-04T09:40:13Z</time>
      </trkpt>
      <trkpt lat="46.21204" lon="6.56957">
        <ele>1088.83</ele>
        <time>2020-02-04T09:40:47Z</time>
      </trkpt>
      <trkpt lat="46.212" lon="6.56959">
        <ele>1089.79</ele>
        <time>2020-02-04T09:41:56Z</time>
      </trkpt>
      <trkpt lat="46.21201" lon="6.56963">
        <ele>1089.79</ele>
        <time>2020-02-04T09:42:32Z</time>
      </trkpt>
      <trkpt lat="46.21204" lon="6.56979">
        <ele>1089.79</ele>
        <time>2020-02-04T09:42:45Z</time>
      </trkpt>
      <trkpt lat="46.21203" lon="6.56982">
        <ele>1089.79</ele>
        <time>2020-02-04T09:42:56Z</time>
      </trkpt>
      <trkpt lat="46.21197" lon="6.56997">
        <ele>1090.27</ele>
        <time>2020-02-04T09:43:21Z</time>
      </trkpt>
      <trkpt lat="46.21186" lon="6.57006">
        <ele>1090.27</ele>
        <time>2020-02-04T09:43:34Z</time>
      </trkpt>
      <trkpt lat="46.21178" lon="6.5702">
        <ele>1090.75</ele>
        <time>2020-02-04T09:43:48Z</time>
      </trkpt>
      <trkpt lat="46.21174" lon="6.57029">
        <ele>1090.27</ele>
        <time>2020-02-04T09:44:12Z</time>
      </trkpt>
      <trkpt lat="46.2117" lon="6.57036">
        <ele>1091.23</ele>
        <time>2020-02-04T09:44:18Z</time>
      </trkpt>
      <trkpt lat="46.21168" lon="6.57049">
        <ele>1091.23</ele>
        <time>2020-02-04T09:44:31Z</time>
      </trkpt>
      <trkpt lat="46.21165" lon="6.57058">
        <ele>1091.71</ele>
        <time>2020-02-04T09:44:41Z</time>
      </trkpt>
      <trkpt lat="46.21162" lon="6.57066">
        <ele>1092.2</ele>
        <time>2020-02-04T09:44:48Z</time>
      </trkpt>
      <trkpt lat="46.21159" lon="6.57069">
        <ele>1092.2</ele>
        <time>2020-02-04T09:44:51Z</time>
      </trkpt>
      <trkpt lat="46.21157" lon="6.5708">
        <ele>1092.68</ele>
        <time>2020-02-04T09:45:00Z</time>
      </trkpt>
      <trkpt lat="46.21151" lon="6.57095">
        <ele>1092.68</ele>
        <time>2020-02-04T09:45:11Z</time>
      </trkpt>
      <trkpt lat="46.21149" lon="6.5711">
        <ele>1093.16</ele>
        <time>2020-02-04T09:45:22Z</time>
      </trkpt>
      <trkpt lat="46.21144" lon="6.57119">
        <ele>1093.64</ele>
        <time>2020-02-04T09:45:31Z</time>
      </trkpt>
      <trkpt lat="46.21133" lon="6.57134">
        <ele>1094.12</ele>
        <time>2020-02-04T09:45:45Z</time>
      </trkpt>
      <trkpt lat="46.21127" lon="6.57137">
        <ele>1094.6</ele>
        <time>2020-02-04T09:45:55Z</time>
      </trkpt>
      <trkpt lat="46.21124" lon="6.57142">
        <ele>1094.6</ele>
        <time>2020-02-04T09:46:07Z</time>
      </trkpt>
      <trkpt lat="46.21121" lon="6.57148">
        <ele>1094.6</ele>
        <time>2020-02-04T09:46:12Z</time>
      </trkpt>
      <trkpt lat="46.2112" lon="6.57152">
        <ele>1095.08</ele>
        <time>2020-02-04T09:46:15Z</time>
      </trkpt>
      <trkpt lat="46.21118" lon="6.57169">
        <ele>1095.56</ele>
        <time>2020-02-04T09:46:25Z</time>
      </trkpt>
      <trkpt lat="46.21119" lon="6.57171">
        <ele>1095.56</ele>
        <time>2020-02-04T09:46:27Z</time>
      </trkpt>
      <trkpt lat="46.21117" lon="6.57186">
        <ele>1096.04</ele>
        <time>2020-02-04T09:46:40Z</time>
      </trkpt>
      <trkpt lat="46.21116" lon="6.57191">
        <ele>1096.52</ele>
        <time>2020-02-04T09:46:44Z</time>
      </trkpt>
      <trkpt lat="46.21116" lon="6.57196">
        <ele>1096.52</ele>
        <time>2020-02-04T09:46:48Z</time>
      </trkpt>
      <trkpt lat="46.21114" lon="6.57202">
        <ele>1097</ele>
        <time>2020-02-04T09:46:52Z</time>
      </trkpt>
      <trkpt lat="46.21113" lon="6.57206">
        <ele>1097.48</ele>
        <time>2020-02-04T09:46:56Z</time>
      </trkpt>
      <trkpt lat="46.21114" lon="6.57217">
        <ele>1097.96</ele>
        <time>2020-02-04T09:47:06Z</time>
      </trkpt>
      <trkpt lat="46.21113" lon="6.57226">
        <ele>1097.96</ele>
        <time>2020-02-04T09:47:13Z</time>
      </trkpt>
      <trkpt lat="46.21113" lon="6.57238">
        <ele>1099.89</ele>
        <time>2020-02-04T09:47:25Z</time>
      </trkpt>
      <trkpt lat="46.21119" lon="6.57248">
        <ele>1100.85</ele>
        <time>2020-02-04T09:47:35Z</time>
      </trkpt>
      <trkpt lat="46.21121" lon="6.5725">
        <ele>1101.33</ele>
        <time>2020-02-04T09:47:37Z</time>
      </trkpt>
      <trkpt lat="46.21129" lon="6.57264">
        <ele>1101.33</ele>
        <time>2020-02-04T09:47:50Z</time>
      </trkpt>
      <trkpt lat="46.21123" lon="6.57278">
        <ele>1101.33</ele>
        <time>2020-02-04T09:47:59Z</time>
      </trkpt>
      <trkpt lat="46.21122" lon="6.57281">
        <ele>1101.81</ele>
        <time>2020-02-04T09:48:03Z</time>
      </trkpt>
      <trkpt lat="46.21114" lon="6.57297">
        <ele>1101.81</ele>
        <time>2020-02-04T09:48:16Z</time>
      </trkpt>
      <trkpt lat="46.21112" lon="6.57304">
        <ele>1100.85</ele>
        <time>2020-02-04T09:48:23Z</time>
      </trkpt>
      <trkpt lat="46.21106" lon="6.57319">
        <ele>1101.81</ele>
        <time>2020-02-04T09:48:37Z</time>
      </trkpt>
      <trkpt lat="46.21099" lon="6.57335">
        <ele>1102.29</ele>
        <time>2020-02-04T09:48:50Z</time>
      </trkpt>
      <trkpt lat="46.21091" lon="6.57345">
        <ele>1103.73</ele>
        <time>2020-02-04T09:49:03Z</time>
      </trkpt>
      <trkpt lat="46.21083" lon="6.57348">
        <ele>1104.21</ele>
        <time>2020-02-04T09:49:15Z</time>
      </trkpt>
      <trkpt lat="46.21073" lon="6.57354">
        <ele>1105.17</ele>
        <time>2020-02-04T09:49:26Z</time>
      </trkpt>
      <trkpt lat="46.21068" lon="6.57359">
        <ele>1105.65</ele>
        <time>2020-02-04T09:49:33Z</time>
      </trkpt>
      <trkpt lat="46.21061" lon="6.57366">
        <ele>1106.13</ele>
        <time>2020-02-04T09:49:42Z</time>
      </trkpt>
      <trkpt lat="46.21054" lon="6.57381">
        <ele>1106.61</ele>
        <time>2020-02-04T09:49:55Z</time>
      </trkpt>
      <trkpt lat="46.21045" lon="6.57393">
        <ele>1107.1</ele>
        <time>2020-02-04T09:50:08Z</time>
      </trkpt>
      <trkpt lat="46.21036" lon="6.5741">
        <ele>1107.58</ele>
        <time>2020-02-04T09:50:22Z</time>
      </trkpt>
      <trkpt lat="46.21031" lon="6.57425">
        <ele>1107.58</ele>
        <time>2020-02-04T09:50:36Z</time>
      </trkpt>
      <trkpt lat="46.21026" lon="6.57436">
        <ele>1108.06</ele>
        <time>2020-02-04T09:50:48Z</time>
      </trkpt>
      <trkpt lat="46.21018" lon="6.5745">
        <ele>1108.54</ele>
        <time>2020-02-04T09:51:02Z</time>
      </trkpt>
      <trkpt lat="46.21009" lon="6.57459">
        <ele>1109.98</ele>
        <time>2020-02-04T09:51:15Z</time>
      </trkpt>
      <trkpt lat="46.21" lon="6.57467">
        <ele>1109.98</ele>
        <time>2020-02-04T09:51:27Z</time>
      </trkpt>
      <trkpt lat="46.20993" lon="6.57472">
        <ele>1110.94</ele>
        <time>2020-02-04T09:51:39Z</time>
      </trkpt>
      <trkpt lat="46.20986" lon="6.57476">
        <ele>1111.9</ele>
        <time>2020-02-04T09:51:49Z</time>
      </trkpt>
      <trkpt lat="46.20975" lon="6.57486">
        <ele>1112.38</ele>
        <time>2020-02-04T09:52:02Z</time>
      </trkpt>
      <trkpt lat="46.20968" lon="6.57493">
        <ele>1113.34</ele>
        <time>2020-02-04T09:52:12Z</time>
      </trkpt>
      <trkpt lat="46.2096" lon="6.57501">
        <ele>1112.86</ele>
        <time>2020-02-04T09:52:24Z</time>
      </trkpt>
      <trkpt lat="46.2095" lon="6.57507">
        <ele>1113.34</ele>
        <time>2020-02-04T09:52:36Z</time>
      </trkpt>
      <trkpt lat="46.20943" lon="6.57508">
        <ele>1113.82</ele>
        <time>2020-02-04T09:52:44Z</time>
      </trkpt>
      <trkpt lat="46.20937" lon="6.57511">
        <ele>1115.27</ele>
        <time>2020-02-04T09:52:51Z</time>
      </trkpt>
      <trkpt lat="46.20932" lon="6.57514">
        <ele>1114.79</ele>
        <time>2020-02-04T09:53:01Z</time>
      </trkpt>
      <trkpt lat="46.20918" lon="6.57523">
        <ele>1115.27</ele>
        <time>2020-02-04T09:53:14Z</time>
      </trkpt>
      <trkpt lat="46.20905" lon="6.5753">
        <ele>1114.31</ele>
        <time>2020-02-04T09:53:28Z</time>
      </trkpt>
      <trkpt lat="46.20898" lon="6.57534">
        <ele>1115.75</ele>
        <time>2020-02-04T09:53:40Z</time>
      </trkpt>
      <trkpt lat="46.20895" lon="6.57536">
        <ele>1116.23</ele>
        <time>2020-02-04T09:53:51Z</time>
      </trkpt>
      <trkpt lat="46.20888" lon="6.57539">
        <ele>1117.67</ele>
        <time>2020-02-04T09:54:03Z</time>
      </trkpt>
      <trkpt lat="46.20882" lon="6.57541">
        <ele>1117.67</ele>
        <time>2020-02-04T09:54:15Z</time>
      </trkpt>
      <trkpt lat="46.20882" lon="6.57545">
        <ele>1118.15</ele>
        <time>2020-02-04T09:54:18Z</time>
      </trkpt>
      <trkpt lat="46.20882" lon="6.57554">
        <ele>1118.15</ele>
        <time>2020-02-04T09:54:23Z</time>
      </trkpt>
      <trkpt lat="46.20881" lon="6.57558">
        <ele>1118.15</ele>
        <time>2020-02-04T09:54:26Z</time>
      </trkpt>
      <trkpt lat="46.2088" lon="6.57566">
        <ele>1117.67</ele>
        <time>2020-02-04T09:54:31Z</time>
      </trkpt>
      <trkpt lat="46.20877" lon="6.57588">
        <ele>1118.15</ele>
        <time>2020-02-04T09:54:46Z</time>
      </trkpt>
      <trkpt lat="46.20871" lon="6.576">
        <ele>1118.63</ele>
        <time>2020-02-04T09:54:59Z</time>
      </trkpt>
      <trkpt lat="46.20864" lon="6.57615">
        <ele>1120.07</ele>
        <time>2020-02-04T09:55:13Z</time>
      </trkpt>
      <trkpt lat="46.20858" lon="6.57629">
        <ele>1119.59</ele>
        <time>2020-02-04T09:55:28Z</time>
      </trkpt>
      <trkpt lat="46.20856" lon="6.57636">
        <ele>1119.11</ele>
        <time>2020-02-04T09:55:46Z</time>
      </trkpt>
      <trkpt lat="46.20857" lon="6.57649">
        <ele>1119.59</ele>
        <time>2020-02-04T09:55:59Z</time>
      </trkpt>
      <trkpt lat="46.20858" lon="6.57659">
        <ele>1120.07</ele>
        <time>2020-02-04T09:56:09Z</time>
      </trkpt>
      <trkpt lat="46.20862" lon="6.57667">
        <ele>1121.52</ele>
        <time>2020-02-04T09:56:19Z</time>
      </trkpt>
      <trkpt lat="46.20866" lon="6.57678">
        <ele>1122.96</ele>
        <time>2020-02-04T09:56:30Z</time>
      </trkpt>
      <trkpt lat="46.2087" lon="6.57683">
        <ele>1123.44</ele>
        <time>2020-02-04T09:56:38Z</time>
      </trkpt>
      <trkpt lat="46.20876" lon="6.57692">
        <ele>1125.36</ele>
        <time>2020-02-04T09:56:49Z</time>
      </trkpt>
      <trkpt lat="46.20879" lon="6.57697">
        <ele>1125.84</ele>
        <time>2020-02-04T09:57:00Z</time>
      </trkpt>
      <trkpt lat="46.2088" lon="6.57698">
        <ele>1125.36</ele>
        <time>2020-02-04T09:59:09Z</time>
      </trkpt>
      <trkpt lat="46.20879" lon="6.577">
        <ele>1124.4</ele>
        <time>2020-02-04T10:00:45Z</time>
      </trkpt>
      <trkpt lat="46.2088" lon="6.57699">
        <ele>1126.32</ele>
        <time>2020-02-04T10:02:34Z</time>
      </trkpt>
      <trkpt lat="46.20879" lon="6.57699">
        <ele>1127.28</ele>
        <time>2020-02-04T10:04:45Z</time>
      </trkpt>
      <trkpt lat="46.20878" lon="6.57707">
        <ele>1127.28</ele>
        <time>2020-02-04T10:05:06Z</time>
      </trkpt>
      <trkpt lat="46.2087" lon="6.57714">
        <ele>1128.24</ele>
        <time>2020-02-04T10:05:18Z</time>
      </trkpt>
      <trkpt lat="46.20865" lon="6.57714">
        <ele>1129.21</ele>
        <time>2020-02-04T10:05:29Z</time>
      </trkpt>
      <trkpt lat="46.20859" lon="6.5771">
        <ele>1130.65</ele>
        <time>2020-02-04T10:05:41Z</time>
      </trkpt>
      <trkpt lat="46.20856" lon="6.57706">
        <ele>1131.13</ele>
        <time>2020-02-04T10:05:52Z</time>
      </trkpt>
      <trkpt lat="46.20845" lon="6.57693">
        <ele>1132.57</ele>
        <time>2020-02-04T10:06:05Z</time>
      </trkpt>
      <trkpt lat="46.20839" lon="6.57678">
        <ele>1134.01</ele>
        <time>2020-02-04T10:06:20Z</time>
      </trkpt>
      <trkpt lat="46.20833" lon="6.57666">
        <ele>1135.45</ele>
        <time>2020-02-04T10:06:33Z</time>
      </trkpt>
      <trkpt lat="46.20827" lon="6.57656">
        <ele>1136.9</ele>
        <time>2020-02-04T10:06:46Z</time>
      </trkpt>
      <trkpt lat="46.20826" lon="6.57653">
        <ele>1136.9</ele>
        <time>2020-02-04T10:06:48Z</time>
      </trkpt>
      <trkpt lat="46.2082" lon="6.57641">
        <ele>1138.82</ele>
        <time>2020-02-04T10:07:01Z</time>
      </trkpt>
      <trkpt lat="46.20817" lon="6.57628">
        <ele>1140.26</ele>
        <time>2020-02-04T10:07:14Z</time>
      </trkpt>
      <trkpt lat="46.20816" lon="6.57624">
        <ele>1140.74</ele>
        <time>2020-02-04T10:07:18Z</time>
      </trkpt>
      <trkpt lat="46.20812" lon="6.5761">
        <ele>1141.7</ele>
        <time>2020-02-04T10:07:31Z</time>
      </trkpt>
      <trkpt lat="46.20812" lon="6.57608">
        <ele>1142.18</ele>
        <time>2020-02-04T10:07:33Z</time>
      </trkpt>
      <trkpt lat="46.2081" lon="6.57604">
        <ele>1143.63</ele>
        <time>2020-02-04T10:07:38Z</time>
      </trkpt>
      <trkpt lat="46.20805" lon="6.57595">
        <ele>1143.63</ele>
        <time>2020-02-04T10:07:48Z</time>
      </trkpt>
      <trkpt lat="46.20798" lon="6.57598">
        <ele>1144.59</ele>
        <time>2020-02-04T10:07:58Z</time>
      </trkpt>
      <trkpt lat="46.20792" lon="6.57609">
        <ele>1146.03</ele>
        <time>2020-02-04T10:08:12Z</time>
      </trkpt>
      <trkpt lat="46.2079" lon="6.57619">
        <ele>1147.47</ele>
        <time>2020-02-04T10:08:24Z</time>
      </trkpt>
      <trkpt lat="46.20784" lon="6.57628">
        <ele>1148.91</ele>
        <time>2020-02-04T10:08:35Z</time>
      </trkpt>
      <trkpt lat="46.20782" lon="6.57631">
        <ele>1150.35</ele>
        <time>2020-02-04T10:08:47Z</time>
      </trkpt>
      <trkpt lat="46.20777" lon="6.57635">
        <ele>1149.87</ele>
        <time>2020-02-04T10:09:18Z</time>
      </trkpt>
      <trkpt lat="46.20776" lon="6.57636">
        <ele>1149.39</ele>
        <time>2020-02-04T10:09:19Z</time>
      </trkpt>
      <trkpt lat="46.20768" lon="6.57644">
        <ele>1151.32</ele>
        <time>2020-02-04T10:09:27Z</time>
      </trkpt>
      <trkpt lat="46.20757" lon="6.57651">
        <ele>1152.76</ele>
        <time>2020-02-04T10:09:39Z</time>
      </trkpt>
      <trkpt lat="46.20754" lon="6.57653">
        <ele>1153.24</ele>
        <time>2020-02-04T10:09:43Z</time>
      </trkpt>
      <trkpt lat="46.20743" lon="6.57661">
        <ele>1155.64</ele>
        <time>2020-02-04T10:09:56Z</time>
      </trkpt>
      <trkpt lat="46.20734" lon="6.5767">
        <ele>1157.56</ele>
        <time>2020-02-04T10:10:09Z</time>
      </trkpt>
      <trkpt lat="46.2073" lon="6.57678">
        <ele>1158.05</ele>
        <time>2020-02-04T10:10:20Z</time>
      </trkpt>
      <trkpt lat="46.20725" lon="6.57687">
        <ele>1159.97</ele>
        <time>2020-02-04T10:10:32Z</time>
      </trkpt>
      <trkpt lat="46.20722" lon="6.57698">
        <ele>1160.45</ele>
        <time>2020-02-04T10:10:44Z</time>
      </trkpt>
      <trkpt lat="46.20719" lon="6.57709">
        <ele>1162.37</ele>
        <time>2020-02-04T10:10:58Z</time>
      </trkpt>
      <trkpt lat="46.20718" lon="6.5772">
        <ele>1163.81</ele>
        <time>2020-02-04T10:11:09Z</time>
      </trkpt>
      <trkpt lat="46.20717" lon="6.57734">
        <ele>1164.29</ele>
        <time>2020-02-04T10:11:23Z</time>
      </trkpt>
      <trkpt lat="46.20713" lon="6.57745">
        <ele>1165.74</ele>
        <time>2020-02-04T10:11:35Z</time>
      </trkpt>
      <trkpt lat="46.20711" lon="6.57759">
        <ele>1166.7</ele>
        <time>2020-02-04T10:11:48Z</time>
      </trkpt>
      <trkpt lat="46.20709" lon="6.57772">
        <ele>1168.14</ele>
        <time>2020-02-04T10:12:01Z</time>
      </trkpt>
      <trkpt lat="46.20707" lon="6.57783">
        <ele>1169.1</ele>
        <time>2020-02-04T10:12:14Z</time>
      </trkpt>
      <trkpt lat="46.20704" lon="6.57788">
        <ele>1169.58</ele>
        <time>2020-02-04T10:12:28Z</time>
      </trkpt>
      <trkpt lat="46.20705" lon="6.57788">
        <ele>1169.58</ele>
        <time>2020-02-04T10:13:15Z</time>
      </trkpt>
      <trkpt lat="46.20704" lon="6.57788">
        <ele>1169.58</ele>
        <time>2020-02-04T10:13:31Z</time>
      </trkpt>
      <trkpt lat="46.20704" lon="6.57789">
        <ele>1169.1</ele>
        <time>2020-02-04T10:13:46Z</time>
      </trkpt>
      <trkpt lat="46.20704" lon="6.57789">
        <ele>1170.06</ele>
        <time>2020-02-04T10:14:09Z</time>
      </trkpt>
      <trkpt lat="46.20703" lon="6.5779">
        <ele>1170.06</ele>
        <time>2020-02-04T10:14:50Z</time>
      </trkpt>
      <trkpt lat="46.20703" lon="6.5779">
        <ele>1170.54</ele>
        <time>2020-02-04T10:16:50Z</time>
      </trkpt>
      <trkpt lat="46.20703" lon="6.57792">
        <ele>1171.02</ele>
        <time>2020-02-04T10:19:29Z</time>
      </trkpt>
      <trkpt lat="46.20697" lon="6.5779">
        <ele>1171.02</ele>
        <time>2020-02-04T10:19:42Z</time>
      </trkpt>
      <trkpt lat="46.20691" lon="6.57788">
        <ele>1172.95</ele>
        <time>2020-02-04T10:19:54Z</time>
      </trkpt>
      <trkpt lat="46.20688" lon="6.57786">
        <ele>1173.91</ele>
        <time>2020-02-04T10:19:59Z</time>
      </trkpt>
      <trkpt lat="46.20681" lon="6.57787">
        <ele>1175.35</ele>
        <time>2020-02-04T10:20:12Z</time>
      </trkpt>
      <trkpt lat="46.20675" lon="6.57787">
        <ele>1176.31</ele>
        <time>2020-02-04T10:20:23Z</time>
      </trkpt>
      <trkpt lat="46.2067" lon="6.57788">
        <ele>1177.27</ele>
        <time>2020-02-04T10:20:36Z</time>
      </trkpt>
      <trkpt lat="46.20663" lon="6.57791">
        <ele>1179.67</ele>
        <time>2020-02-04T10:20:48Z</time>
      </trkpt>
      <trkpt lat="46.20658" lon="6.57794">
        <ele>1181.12</ele>
        <time>2020-02-04T10:21:00Z</time>
      </trkpt>
      <trkpt lat="46.20653" lon="6.57801">
        <ele>1182.08</ele>
        <time>2020-02-04T10:21:14Z</time>
      </trkpt>
      <trkpt lat="46.20646" lon="6.57805">
        <ele>1184.48</ele>
        <time>2020-02-04T10:21:27Z</time>
      </trkpt>
      <trkpt lat="46.20642" lon="6.57805">
        <ele>1185.92</ele>
        <time>2020-02-04T10:21:41Z</time>
      </trkpt>
      <trkpt lat="46.2064" lon="6.57805">
        <ele>1187.37</ele>
        <time>2020-02-04T10:21:55Z</time>
      </trkpt>
      <trkpt lat="46.20633" lon="6.57802">
        <ele>1190.25</ele>
        <time>2020-02-04T10:22:16Z</time>
      </trkpt>
      <trkpt lat="46.20628" lon="6.57801">
        <ele>1191.69</ele>
        <time>2020-02-04T10:22:29Z</time>
      </trkpt>
      <trkpt lat="46.20622" lon="6.57804">
        <ele>1192.65</ele>
        <time>2020-02-04T10:22:41Z</time>
      </trkpt>
      <trkpt lat="46.20616" lon="6.57805">
        <ele>1194.58</ele>
        <time>2020-02-04T10:22:52Z</time>
      </trkpt>
      <trkpt lat="46.20608" lon="6.57799">
        <ele>1196.98</ele>
        <time>2020-02-04T10:23:04Z</time>
      </trkpt>
      <trkpt lat="46.20604" lon="6.57796">
        <ele>1197.94</ele>
        <time>2020-02-04T10:23:15Z</time>
      </trkpt>
      <trkpt lat="46.20596" lon="6.57794">
        <ele>1199.86</ele>
        <time>2020-02-04T10:23:30Z</time>
      </trkpt>
      <trkpt lat="46.20591" lon="6.57788">
        <ele>1201.3</ele>
        <time>2020-02-04T10:23:44Z</time>
      </trkpt>
      <trkpt lat="46.20589" lon="6.57786">
        <ele>1203.23</ele>
        <time>2020-02-04T10:23:59Z</time>
      </trkpt>
      <trkpt lat="46.20587" lon="6.57778">
        <ele>1203.71</ele>
        <time>2020-02-04T10:24:21Z</time>
      </trkpt>
      <trkpt lat="46.20583" lon="6.57768">
        <ele>1204.19</ele>
        <time>2020-02-04T10:24:34Z</time>
      </trkpt>
      <trkpt lat="46.20582" lon="6.57763">
        <ele>1205.15</ele>
        <time>2020-02-04T10:24:51Z</time>
      </trkpt>
      <trkpt lat="46.20582" lon="6.57768">
        <ele>1207.07</ele>
        <time>2020-02-04T10:25:04Z</time>
      </trkpt>
      <trkpt lat="46.20574" lon="6.57771">
        <ele>1209.96</ele>
        <time>2020-02-04T10:25:20Z</time>
      </trkpt>
      <trkpt lat="46.20569" lon="6.57771">
        <ele>1211.88</ele>
        <time>2020-02-04T10:25:32Z</time>
      </trkpt>
      <trkpt lat="46.20566" lon="6.57769">
        <ele>1213.32</ele>
        <time>2020-02-04T10:25:43Z</time>
      </trkpt>
      <trkpt lat="46.20566" lon="6.57768">
        <ele>1212.36</ele>
        <time>2020-02-04T10:26:04Z</time>
      </trkpt>
      <trkpt lat="46.20566" lon="6.57766">
        <ele>1212.84</ele>
        <time>2020-02-04T10:26:30Z</time>
      </trkpt>
      <trkpt lat="46.20567" lon="6.57764">
        <ele>1213.8</ele>
        <time>2020-02-04T10:27:05Z</time>
      </trkpt>
      <trkpt lat="46.20566" lon="6.57763">
        <ele>1213.8</ele>
        <time>2020-02-04T10:28:11Z</time>
      </trkpt>
      <trkpt lat="46.20565" lon="6.57762">
        <ele>1214.28</ele>
        <time>2020-02-04T10:29:13Z</time>
      </trkpt>
      <trkpt lat="46.20564" lon="6.5776">
        <ele>1215.24</ele>
        <time>2020-02-04T10:30:05Z</time>
      </trkpt>
      <trkpt lat="46.20564" lon="6.5776">
        <ele>1214.76</ele>
        <time>2020-02-04T10:31:14Z</time>
      </trkpt>
      <trkpt lat="46.2056" lon="6.57757">
        <ele>1216.69</ele>
        <time>2020-02-04T10:31:55Z</time>
      </trkpt>
      <trkpt lat="46.20556" lon="6.57754">
        <ele>1218.13</ele>
        <time>2020-02-04T10:32:13Z</time>
      </trkpt>
      <trkpt lat="46.20552" lon="6.57753">
        <ele>1220.05</ele>
        <time>2020-02-04T10:32:31Z</time>
      </trkpt>
      <trkpt lat="46.20546" lon="6.5775">
        <ele>1221.49</ele>
        <time>2020-02-04T10:32:48Z</time>
      </trkpt>
      <trkpt lat="46.20541" lon="6.57747">
        <ele>1223.42</ele>
        <time>2020-02-04T10:33:02Z</time>
      </trkpt>
      <trkpt lat="46.20534" lon="6.57743">
        <ele>1225.34</ele>
        <time>2020-02-04T10:33:19Z</time>
      </trkpt>
      <trkpt lat="46.20526" lon="6.57734">
        <ele>1227.74</ele>
        <time>2020-02-04T10:33:34Z</time>
      </trkpt>
      <trkpt lat="46.20525" lon="6.57735">
        <ele>1229.66</ele>
        <time>2020-02-04T10:33:48Z</time>
      </trkpt>
      <trkpt lat="46.20523" lon="6.5774">
        <ele>1232.07</ele>
        <time>2020-02-04T10:34:04Z</time>
      </trkpt>
      <trkpt lat="46.2052" lon="6.57748">
        <ele>1233.99</ele>
        <time>2020-02-04T10:34:21Z</time>
      </trkpt>
      <trkpt lat="46.20519" lon="6.57754">
        <ele>1235.91</ele>
        <time>2020-02-04T10:34:41Z</time>
      </trkpt>
      <trkpt lat="46.20517" lon="6.57763">
        <ele>1237.35</ele>
        <time>2020-02-04T10:34:52Z</time>
      </trkpt>
      <trkpt lat="46.20509" lon="6.57766">
        <ele>1240.24</ele>
        <time>2020-02-04T10:35:08Z</time>
      </trkpt>
      <trkpt lat="46.20502" lon="6.57765">
        <ele>1241.2</ele>
        <time>2020-02-04T10:35:23Z</time>
      </trkpt>
      <trkpt lat="46.20497" lon="6.57759">
        <ele>1243.12</ele>
        <time>2020-02-04T10:35:39Z</time>
      </trkpt>
      <trkpt lat="46.20493" lon="6.57753">
        <ele>1244.56</ele>
        <time>2020-02-04T10:35:53Z</time>
      </trkpt>
      <trkpt lat="46.2049" lon="6.57748">
        <ele>1245.53</ele>
        <time>2020-02-04T10:36:07Z</time>
      </trkpt>
      <trkpt lat="46.20486" lon="6.57745">
        <ele>1247.45</ele>
        <time>2020-02-04T10:36:27Z</time>
      </trkpt>
      <trkpt lat="46.20484" lon="6.57741">
        <ele>1249.85</ele>
        <time>2020-02-04T10:36:43Z</time>
      </trkpt>
      <trkpt lat="46.20483" lon="6.5774">
        <ele>1251.77</ele>
        <time>2020-02-04T10:37:07Z</time>
      </trkpt>
      <trkpt lat="46.20482" lon="6.57739">
        <ele>1249.85</ele>
        <time>2020-02-04T10:37:56Z</time>
      </trkpt>
      <trkpt lat="46.20477" lon="6.57736">
        <ele>1252.25</ele>
        <time>2020-02-04T10:38:13Z</time>
      </trkpt>
      <trkpt lat="46.20471" lon="6.57738">
        <ele>1252.74</ele>
        <time>2020-02-04T10:38:26Z</time>
      </trkpt>
      <trkpt lat="46.2047" lon="6.57738">
        <ele>1252.25</ele>
        <time>2020-02-04T10:38:27Z</time>
      </trkpt>
      <trkpt lat="46.20466" lon="6.57744">
        <ele>1254.66</ele>
        <time>2020-02-04T10:38:40Z</time>
      </trkpt>
      <trkpt lat="46.20465" lon="6.57749">
        <ele>1256.58</ele>
        <time>2020-02-04T10:38:52Z</time>
      </trkpt>
      <trkpt lat="46.20462" lon="6.57758">
        <ele>1257.54</ele>
        <time>2020-02-04T10:39:04Z</time>
      </trkpt>
      <trkpt lat="46.20463" lon="6.57764">
        <ele>1258.98</ele>
        <time>2020-02-04T10:39:18Z</time>
      </trkpt>
      <trkpt lat="46.20457" lon="6.57765">
        <ele>1260.43</ele>
        <time>2020-02-04T10:39:29Z</time>
      </trkpt>
      <trkpt lat="46.2045" lon="6.57762">
        <ele>1261.87</ele>
        <time>2020-02-04T10:39:44Z</time>
      </trkpt>
      <trkpt lat="46.20443" lon="6.57761">
        <ele>1263.79</ele>
        <time>2020-02-04T10:39:58Z</time>
      </trkpt>
      <trkpt lat="46.20439" lon="6.57758">
        <ele>1264.75</ele>
        <time>2020-02-04T10:40:09Z</time>
      </trkpt>
      <trkpt lat="46.20433" lon="6.57755">
        <ele>1266.19</ele>
        <time>2020-02-04T10:40:22Z</time>
      </trkpt>
      <trkpt lat="46.20429" lon="6.57756">
        <ele>1267.64</ele>
        <time>2020-02-04T10:40:33Z</time>
      </trkpt>
      <trkpt lat="46.20423" lon="6.57754">
        <ele>1268.6</ele>
        <time>2020-02-04T10:40:45Z</time>
      </trkpt>
      <trkpt lat="46.20417" lon="6.57752">
        <ele>1270.04</ele>
        <time>2020-02-04T10:40:58Z</time>
      </trkpt>
      <trkpt lat="46.20408" lon="6.57751">
        <ele>1271.48</ele>
        <time>2020-02-04T10:41:10Z</time>
      </trkpt>
      <trkpt lat="46.20404" lon="6.5775">
        <ele>1272.92</ele>
        <time>2020-02-04T10:41:21Z</time>
      </trkpt>
      <trkpt lat="46.20403" lon="6.5775">
        <ele>1272.92</ele>
        <time>2020-02-04T10:41:24Z</time>
      </trkpt>
      <trkpt lat="46.20396" lon="6.57753">
        <ele>1274.85</ele>
        <time>2020-02-04T10:41:36Z</time>
      </trkpt>
      <trkpt lat="46.2039" lon="6.57753">
        <ele>1275.81</ele>
        <time>2020-02-04T10:41:48Z</time>
      </trkpt>
      <trkpt lat="46.20387" lon="6.57752">
        <ele>1277.25</ele>
        <time>2020-02-04T10:42:00Z</time>
      </trkpt>
      <trkpt lat="46.20381" lon="6.57751">
        <ele>1278.21</ele>
        <time>2020-02-04T10:42:11Z</time>
      </trkpt>
      <trkpt lat="46.20375" lon="6.57748">
        <ele>1279.65</ele>
        <time>2020-02-04T10:42:23Z</time>
      </trkpt>
      <trkpt lat="46.20371" lon="6.57745">
        <ele>1280.61</ele>
        <time>2020-02-04T10:42:37Z</time>
      </trkpt>
      <trkpt lat="46.20369" lon="6.57742">
        <ele>1281.09</ele>
        <time>2020-02-04T10:42:54Z</time>
      </trkpt>
      <trkpt lat="46.20367" lon="6.5774">
        <ele>1281.57</ele>
        <time>2020-02-04T10:43:49Z</time>
      </trkpt>
      <trkpt lat="46.20367" lon="6.57735">
        <ele>1281.57</ele>
        <time>2020-02-04T10:44:01Z</time>
      </trkpt>
      <trkpt lat="46.20366" lon="6.57735">
        <ele>1281.57</ele>
        <time>2020-02-04T10:44:30Z</time>
      </trkpt>
      <trkpt lat="46.20366" lon="6.57741">
        <ele>1282.06</ele>
        <time>2020-02-04T10:45:09Z</time>
      </trkpt>
      <trkpt lat="46.20367" lon="6.57743">
        <ele>1281.57</ele>
        <time>2020-02-04T10:45:24Z</time>
      </trkpt>
      <trkpt lat="46.20367" lon="6.57743">
        <ele>1281.57</ele>
        <time>2020-02-04T10:45:51Z</time>
      </trkpt>
      <trkpt lat="46.20365" lon="6.57742">
        <ele>1280.61</ele>
        <time>2020-02-04T10:46:48Z</time>
      </trkpt>
      <trkpt lat="46.20357" lon="6.57739">
        <ele>1279.65</ele>
        <time>2020-02-04T10:47:01Z</time>
      </trkpt>
      <trkpt lat="46.20355" lon="6.57737">
        <ele>1280.13</ele>
        <time>2020-02-04T10:47:12Z</time>
      </trkpt>
      <trkpt lat="46.20353" lon="6.57737">
        <ele>1280.61</ele>
        <time>2020-02-04T10:47:26Z</time>
      </trkpt>
      <trkpt lat="46.20348" lon="6.57737">
        <ele>1282.06</ele>
        <time>2020-02-04T10:47:39Z</time>
      </trkpt>
      <trkpt lat="46.20344" lon="6.57737">
        <ele>1283.5</ele>
        <time>2020-02-04T10:47:51Z</time>
      </trkpt>
      <trkpt lat="46.20338" lon="6.57737">
        <ele>1284.46</ele>
        <time>2020-02-04T10:48:03Z</time>
      </trkpt>
      <trkpt lat="46.20336" lon="6.57735">
        <ele>1285.42</ele>
        <time>2020-02-04T10:48:17Z</time>
      </trkpt>
      <trkpt lat="46.20332" lon="6.57733">
        <ele>1287.82</ele>
        <time>2020-02-04T10:48:34Z</time>
      </trkpt>
      <trkpt lat="46.20325" lon="6.57731">
        <ele>1288.78</ele>
        <time>2020-02-04T10:48:46Z</time>
      </trkpt>
      <trkpt lat="46.2032" lon="6.5773">
        <ele>1290.71</ele>
        <time>2020-02-04T10:49:01Z</time>
      </trkpt>
      <trkpt lat="46.20309" lon="6.57732">
        <ele>1292.63</ele>
        <time>2020-02-04T10:49:13Z</time>
      </trkpt>
      <trkpt lat="46.20302" lon="6.57729">
        <ele>1293.11</ele>
        <time>2020-02-04T10:49:26Z</time>
      </trkpt>
      <trkpt lat="46.20295" lon="6.57722">
        <ele>1295.03</ele>
        <time>2020-02-04T10:49:40Z</time>
      </trkpt>
      <trkpt lat="46.20289" lon="6.57719">
        <ele>1296.48</ele>
        <time>2020-02-04T10:49:52Z</time>
      </trkpt>
      <trkpt lat="46.20283" lon="6.57718">
        <ele>1297.92</ele>
        <time>2020-02-04T10:50:07Z</time>
      </trkpt>
      <trkpt lat="46.2028" lon="6.57716">
        <ele>1299.36</ele>
        <time>2020-02-04T10:50:20Z</time>
      </trkpt>
      <trkpt lat="46.20272" lon="6.57716">
        <ele>1300.32</ele>
        <time>2020-02-04T10:50:34Z</time>
      </trkpt>
      <trkpt lat="46.20267" lon="6.57714">
        <ele>1301.28</ele>
        <time>2020-02-04T10:50:47Z</time>
      </trkpt>
      <trkpt lat="46.20262" lon="6.57712">
        <ele>1302.72</ele>
        <time>2020-02-04T10:51:00Z</time>
      </trkpt>
      <trkpt lat="46.20253" lon="6.5771">
        <ele>1303.69</ele>
        <time>2020-02-04T10:51:13Z</time>
      </trkpt>
      <trkpt lat="46.20244" lon="6.57717">
        <ele>1305.13</ele>
        <time>2020-02-04T10:51:25Z</time>
      </trkpt>
      <trkpt lat="46.20237" lon="6.57716">
        <ele>1306.57</ele>
        <time>2020-02-04T10:51:37Z</time>
      </trkpt>
      <trkpt lat="46.20231" lon="6.57713">
        <ele>1308.49</ele>
        <time>2020-02-04T10:51:51Z</time>
      </trkpt>
      <trkpt lat="46.2023" lon="6.57714">
        <ele>1308.01</ele>
        <time>2020-02-04T10:51:54Z</time>
      </trkpt>
      <trkpt lat="46.20221" lon="6.5772">
        <ele>1309.93</ele>
        <time>2020-02-04T10:52:07Z</time>
      </trkpt>
      <trkpt lat="46.20214" lon="6.57719">
        <ele>1310.41</ele>
        <time>2020-02-04T10:52:20Z</time>
      </trkpt>
      <trkpt lat="46.20204" lon="6.57716">
        <ele>1312.82</ele>
        <time>2020-02-04T10:52:36Z</time>
      </trkpt>
      <trkpt lat="46.20196" lon="6.57718">
        <ele>1314.74</ele>
        <time>2020-02-04T10:52:49Z</time>
      </trkpt>
      <trkpt lat="46.20193" lon="6.57719">
        <ele>1315.7</ele>
        <time>2020-02-04T10:53:02Z</time>
      </trkpt>
      <trkpt lat="46.20187" lon="6.57728">
        <ele>1316.66</ele>
        <time>2020-02-04T10:53:14Z</time>
      </trkpt>
      <trkpt lat="46.20183" lon="6.57728">
        <ele>1318.1</ele>
        <time>2020-02-04T10:53:23Z</time>
      </trkpt>
      <trkpt lat="46.20176" lon="6.57732">
        <ele>1319.55</ele>
        <time>2020-02-04T10:53:35Z</time>
      </trkpt>
      <trkpt lat="46.2017" lon="6.57732">
        <ele>1320.51</ele>
        <time>2020-02-04T10:53:49Z</time>
      </trkpt>
      <trkpt lat="46.20164" lon="6.57732">
        <ele>1321.47</ele>
        <time>2020-02-04T10:54:00Z</time>
      </trkpt>
      <trkpt lat="46.20158" lon="6.5773">
        <ele>1323.39</ele>
        <time>2020-02-04T10:54:12Z</time>
      </trkpt>
      <trkpt lat="46.2015" lon="6.57738">
        <ele>1325.31</ele>
        <time>2020-02-04T10:54:25Z</time>
      </trkpt>
      <trkpt lat="46.20143" lon="6.57741">
        <ele>1326.28</ele>
        <time>2020-02-04T10:54:37Z</time>
      </trkpt>
      <trkpt lat="46.20137" lon="6.57744">
        <ele>1328.2</ele>
        <time>2020-02-04T10:54:49Z</time>
      </trkpt>
      <trkpt lat="46.20129" lon="6.57747">
        <ele>1330.12</ele>
        <time>2020-02-04T10:55:04Z</time>
      </trkpt>
      <trkpt lat="46.20122" lon="6.57751">
        <ele>1331.08</ele>
        <time>2020-02-04T10:55:15Z</time>
      </trkpt>
      <trkpt lat="46.20117" lon="6.57754">
        <ele>1332.04</ele>
        <time>2020-02-04T10:55:27Z</time>
      </trkpt>
      <trkpt lat="46.2011" lon="6.57761">
        <ele>1332.04</ele>
        <time>2020-02-04T10:55:39Z</time>
      </trkpt>
      <trkpt lat="46.20102" lon="6.57761">
        <ele>1333.01</ele>
        <time>2020-02-04T10:55:52Z</time>
      </trkpt>
      <trkpt lat="46.20092" lon="6.57762">
        <ele>1333.97</ele>
        <time>2020-02-04T10:56:05Z</time>
      </trkpt>
      <trkpt lat="46.20083" lon="6.57771">
        <ele>1335.41</ele>
        <time>2020-02-04T10:56:17Z</time>
      </trkpt>
      <trkpt lat="46.20082" lon="6.57773">
        <ele>1335.41</ele>
        <time>2020-02-04T10:56:21Z</time>
      </trkpt>
      <trkpt lat="46.20077" lon="6.57777">
        <ele>1337.81</ele>
        <time>2020-02-04T10:56:36Z</time>
      </trkpt>
      <trkpt lat="46.20073" lon="6.57778">
        <ele>1339.25</ele>
        <time>2020-02-04T10:56:55Z</time>
      </trkpt>
      <trkpt lat="46.20062" lon="6.57781">
        <ele>1340.22</ele>
        <time>2020-02-04T10:57:09Z</time>
      </trkpt>
      <trkpt lat="46.20059" lon="6.57783">
        <ele>1341.18</ele>
        <time>2020-02-04T10:57:22Z</time>
      </trkpt>
      <trkpt lat="46.20055" lon="6.57786">
        <ele>1342.62</ele>
        <time>2020-02-04T10:57:36Z</time>
      </trkpt>
      <trkpt lat="46.20055" lon="6.57786">
        <ele>1343.1</ele>
        <time>2020-02-04T10:58:37Z</time>
      </trkpt>
      <trkpt lat="46.20055" lon="6.57785">
        <ele>1341.66</ele>
        <time>2020-02-04T10:59:42Z</time>
      </trkpt>
      <trkpt lat="46.20055" lon="6.57787">
        <ele>1341.66</ele>
        <time>2020-02-04T11:00:35Z</time>
      </trkpt>
      <trkpt lat="46.20053" lon="6.57793">
        <ele>1342.62</ele>
        <time>2020-02-04T11:01:03Z</time>
      </trkpt>
      <trkpt lat="46.2005" lon="6.57798">
        <ele>1343.58</ele>
        <time>2020-02-04T11:01:16Z</time>
      </trkpt>
      <trkpt lat="46.20047" lon="6.578">
        <ele>1345.5</ele>
        <time>2020-02-04T11:01:31Z</time>
      </trkpt>
      <trkpt lat="46.20046" lon="6.57801">
        <ele>1346.94</ele>
        <time>2020-02-04T11:01:46Z</time>
      </trkpt>
      <trkpt lat="46.20033" lon="6.57807">
        <ele>1348.87</ele>
        <time>2020-02-04T11:02:01Z</time>
      </trkpt>
      <trkpt lat="46.20029" lon="6.57809">
        <ele>1350.79</ele>
        <time>2020-02-04T11:02:15Z</time>
      </trkpt>
      <trkpt lat="46.20027" lon="6.57805">
        <ele>1353.19</ele>
        <time>2020-02-04T11:02:29Z</time>
      </trkpt>
      <trkpt lat="46.20023" lon="6.57799">
        <ele>1355.12</ele>
        <time>2020-02-04T11:02:44Z</time>
      </trkpt>
      <trkpt lat="46.20021" lon="6.57798">
        <ele>1356.08</ele>
        <time>2020-02-04T11:03:01Z</time>
      </trkpt>
      <trkpt lat="46.20018" lon="6.57803">
        <ele>1358</ele>
        <time>2020-02-04T11:03:16Z</time>
      </trkpt>
      <trkpt lat="46.20013" lon="6.57808">
        <ele>1358.96</ele>
        <time>2020-02-04T11:03:31Z</time>
      </trkpt>
      <trkpt lat="46.20004" lon="6.57805">
        <ele>1361.36</ele>
        <time>2020-02-04T11:03:48Z</time>
      </trkpt>
      <trkpt lat="46.2" lon="6.57805">
        <ele>1362.81</ele>
        <time>2020-02-04T11:04:04Z</time>
      </trkpt>
      <trkpt lat="46.19996" lon="6.57802">
        <ele>1364.73</ele>
        <time>2020-02-04T11:04:20Z</time>
      </trkpt>
      <trkpt lat="46.19992" lon="6.578">
        <ele>1366.17</ele>
        <time>2020-02-04T11:04:36Z</time>
      </trkpt>
      <trkpt lat="46.1999" lon="6.57804">
        <ele>1367.61</ele>
        <time>2020-02-04T11:04:55Z</time>
      </trkpt>
      <trkpt lat="46.1999" lon="6.57805">
        <ele>1369.05</ele>
        <time>2020-02-04T11:05:09Z</time>
      </trkpt>
      <trkpt lat="46.1999" lon="6.57807">
        <ele>1370.98</ele>
        <time>2020-02-04T11:05:30Z</time>
      </trkpt>
      <trkpt lat="46.19989" lon="6.57811">
        <ele>1372.42</ele>
        <time>2020-02-04T11:05:47Z</time>
      </trkpt>
      <trkpt lat="46.19988" lon="6.57816">
        <ele>1373.86</ele>
        <time>2020-02-04T11:06:03Z</time>
      </trkpt>
      <trkpt lat="46.19991" lon="6.57824">
        <ele>1375.3</ele>
        <time>2020-02-04T11:06:21Z</time>
      </trkpt>
      <trkpt lat="46.19989" lon="6.57828">
        <ele>1377.71</ele>
        <time>2020-02-04T11:06:36Z</time>
      </trkpt>
      <trkpt lat="46.19989" lon="6.57832">
        <ele>1379.15</ele>
        <time>2020-02-04T11:06:53Z</time>
      </trkpt>
      <trkpt lat="46.19989" lon="6.57833">
        <ele>1380.11</ele>
        <time>2020-02-04T11:07:15Z</time>
      </trkpt>
      <trkpt lat="46.19988" lon="6.57838">
        <ele>1383.47</ele>
        <time>2020-02-04T11:07:33Z</time>
      </trkpt>
      <trkpt lat="46.19987" lon="6.57847">
        <ele>1385.4</ele>
        <time>2020-02-04T11:07:47Z</time>
      </trkpt>
      <trkpt lat="46.19988" lon="6.57849">
        <ele>1387.32</ele>
        <time>2020-02-04T11:08:01Z</time>
      </trkpt>
      <trkpt lat="46.19988" lon="6.57849">
        <ele>1387.32</ele>
        <time>2020-02-04T11:08:20Z</time>
      </trkpt>
      <trkpt lat="46.19988" lon="6.57851">
        <ele>1387.32</ele>
        <time>2020-02-04T11:08:47Z</time>
      </trkpt>
      <trkpt lat="46.19988" lon="6.57853">
        <ele>1391.65</ele>
        <time>2020-02-04T11:09:24Z</time>
      </trkpt>
      <trkpt lat="46.19988" lon="6.57853">
        <ele>1388.28</ele>
        <time>2020-02-04T11:09:26Z</time>
      </trkpt>
      <trkpt lat="46.19989" lon="6.57856">
        <ele>1387.8</ele>
        <time>2020-02-04T11:11:35Z</time>
      </trkpt>
      <trkpt lat="46.19988" lon="6.5786">
        <ele>1387.32</ele>
        <time>2020-02-04T11:12:03Z</time>
      </trkpt>
      <trkpt lat="46.19988" lon="6.57869">
        <ele>1390.68</ele>
        <time>2020-02-04T11:12:17Z</time>
      </trkpt>
      <trkpt lat="46.19986" lon="6.57873">
        <ele>1393.09</ele>
        <time>2020-02-04T11:12:38Z</time>
      </trkpt>
      <trkpt lat="46.19985" lon="6.5788">
        <ele>1395.49</ele>
        <time>2020-02-04T11:12:51Z</time>
      </trkpt>
      <trkpt lat="46.19984" lon="6.57884">
        <ele>1397.41</ele>
        <time>2020-02-04T11:13:03Z</time>
      </trkpt>
      <trkpt lat="46.1998" lon="6.57889">
        <ele>1398.86</ele>
        <time>2020-02-04T11:13:18Z</time>
      </trkpt>
      <trkpt lat="46.19979" lon="6.5789">
        <ele>1399.82</ele>
        <time>2020-02-04T11:13:31Z</time>
      </trkpt>
      <trkpt lat="46.19979" lon="6.57894">
        <ele>1401.26</ele>
        <time>2020-02-04T11:13:45Z</time>
      </trkpt>
      <trkpt lat="46.19977" lon="6.57895">
        <ele>1402.22</ele>
        <time>2020-02-04T11:13:56Z</time>
      </trkpt>
      <trkpt lat="46.19973" lon="6.57896">
        <ele>1401.74</ele>
        <time>2020-02-04T11:14:09Z</time>
      </trkpt>
      <trkpt lat="46.19971" lon="6.57898">
        <ele>1401.74</ele>
        <time>2020-02-04T11:14:30Z</time>
      </trkpt>
      <trkpt lat="46.1997" lon="6.57899">
        <ele>1401.26</ele>
        <time>2020-02-04T11:14:52Z</time>
      </trkpt>
      <trkpt lat="46.19969" lon="6.57899">
        <ele>1400.3</ele>
        <time>2020-02-04T11:16:04Z</time>
      </trkpt>
      <trkpt lat="46.19968" lon="6.579">
        <ele>1400.3</ele>
        <time>2020-02-04T11:16:18Z</time>
      </trkpt>
      <trkpt lat="46.19967" lon="6.57901">
        <ele>1400.3</ele>
        <time>2020-02-04T11:17:02Z</time>
      </trkpt>
      <trkpt lat="46.19966" lon="6.57904">
        <ele>1400.3</ele>
        <time>2020-02-04T11:17:18Z</time>
      </trkpt>
      <trkpt lat="46.19965" lon="6.57905">
        <ele>1399.34</ele>
        <time>2020-02-04T11:17:42Z</time>
      </trkpt>
      <trkpt lat="46.19965" lon="6.57905">
        <ele>1399.82</ele>
        <time>2020-02-04T11:18:10Z</time>
      </trkpt>
      <trkpt lat="46.19965" lon="6.57905">
        <ele>1400.3</ele>
        <time>2020-02-04T11:18:37Z</time>
      </trkpt>
      <trkpt lat="46.19966" lon="6.57904">
        <ele>1400.3</ele>
        <time>2020-02-04T11:20:11Z</time>
      </trkpt>
      <trkpt lat="46.19962" lon="6.5791">
        <ele>1400.3</ele>
        <time>2020-02-04T11:20:48Z</time>
      </trkpt>
      <trkpt lat="46.19958" lon="6.57912">
        <ele>1401.26</ele>
        <time>2020-02-04T11:21:00Z</time>
      </trkpt>
      <trkpt lat="46.19951" lon="6.57915">
        <ele>1402.7</ele>
        <time>2020-02-04T11:21:12Z</time>
      </trkpt>
      <trkpt lat="46.19946" lon="6.57912">
        <ele>1403.66</ele>
        <time>2020-02-04T11:21:26Z</time>
      </trkpt>
      <trkpt lat="46.19938" lon="6.57911">
        <ele>1405.1</ele>
        <time>2020-02-04T11:21:47Z</time>
      </trkpt>
      <trkpt lat="46.19933" lon="6.57909">
        <ele>1406.55</ele>
        <time>2020-02-04T11:22:01Z</time>
      </trkpt>
      <trkpt lat="46.19927" lon="6.57901">
        <ele>1407.99</ele>
        <time>2020-02-04T11:22:14Z</time>
      </trkpt>
      <trkpt lat="46.19919" lon="6.57898">
        <ele>1409.43</ele>
        <time>2020-02-04T11:22:26Z</time>
      </trkpt>
      <trkpt lat="46.19918" lon="6.57898">
        <ele>1412.31</ele>
        <time>2020-02-04T11:22:42Z</time>
      </trkpt>
      <trkpt lat="46.19909" lon="6.57894">
        <ele>1414.24</ele>
        <time>2020-02-04T11:22:58Z</time>
      </trkpt>
      <trkpt lat="46.19905" lon="6.57895">
        <ele>1416.16</ele>
        <time>2020-02-04T11:23:12Z</time>
      </trkpt>
      <trkpt lat="46.19898" lon="6.57894">
        <ele>1418.08</ele>
        <time>2020-02-04T11:23:26Z</time>
      </trkpt>
      <trkpt lat="46.19889" lon="6.57892">
        <ele>1419.52</ele>
        <time>2020-02-04T11:23:38Z</time>
      </trkpt>
      <trkpt lat="46.19883" lon="6.5789">
        <ele>1420.97</ele>
        <time>2020-02-04T11:23:51Z</time>
      </trkpt>
      <trkpt lat="46.1988" lon="6.5789">
        <ele>1423.37</ele>
        <time>2020-02-04T11:24:07Z</time>
      </trkpt>
      <trkpt lat="46.19874" lon="6.5789">
        <ele>1425.29</ele>
        <time>2020-02-04T11:24:22Z</time>
      </trkpt>
      <trkpt lat="46.19871" lon="6.57894">
        <ele>1427.21</ele>
        <time>2020-02-04T11:24:35Z</time>
      </trkpt>
      <trkpt lat="46.19866" lon="6.57897">
        <ele>1428.18</ele>
        <time>2020-02-04T11:24:44Z</time>
      </trkpt>
      <trkpt lat="46.19859" lon="6.579">
        <ele>1430.58</ele>
        <time>2020-02-04T11:24:57Z</time>
      </trkpt>
      <trkpt lat="46.1985" lon="6.57903">
        <ele>1432.02</ele>
        <time>2020-02-04T11:25:09Z</time>
      </trkpt>
      <trkpt lat="46.1984" lon="6.57902">
        <ele>1433.46</ele>
        <time>2020-02-04T11:25:23Z</time>
      </trkpt>
      <trkpt lat="46.19835" lon="6.57896">
        <ele>1435.39</ele>
        <time>2020-02-04T11:25:36Z</time>
      </trkpt>
      <trkpt lat="46.19829" lon="6.57893">
        <ele>1436.83</ele>
        <time>2020-02-04T11:25:52Z</time>
      </trkpt>
      <trkpt lat="46.19821" lon="6.57886">
        <ele>1438.75</ele>
        <time>2020-02-04T11:26:08Z</time>
      </trkpt>
      <trkpt lat="46.19815" lon="6.57881">
        <ele>1440.67</ele>
        <time>2020-02-04T11:26:21Z</time>
      </trkpt>
      <trkpt lat="46.1981" lon="6.57878">
        <ele>1442.11</ele>
        <time>2020-02-04T11:26:32Z</time>
      </trkpt>
      <trkpt lat="46.19805" lon="6.57875">
        <ele>1444.04</ele>
        <time>2020-02-04T11:26:46Z</time>
      </trkpt>
      <trkpt lat="46.19795" lon="6.57867">
        <ele>1445.48</ele>
        <time>2020-02-04T11:27:01Z</time>
      </trkpt>
      <trkpt lat="46.1979" lon="6.57862">
        <ele>1447.4</ele>
        <time>2020-02-04T11:27:17Z</time>
      </trkpt>
      <trkpt lat="46.19787" lon="6.57852">
        <ele>1450.29</ele>
        <time>2020-02-04T11:27:31Z</time>
      </trkpt>
      <trkpt lat="46.19784" lon="6.57843">
        <ele>1450.29</ele>
        <time>2020-02-04T11:27:43Z</time>
      </trkpt>
      <trkpt lat="46.19774" lon="6.57835">
        <ele>1452.21</ele>
        <time>2020-02-04T11:27:56Z</time>
      </trkpt>
      <trkpt lat="46.19772" lon="6.5783">
        <ele>1453.17</ele>
        <time>2020-02-04T11:28:01Z</time>
      </trkpt>
      <trkpt lat="46.19771" lon="6.57819">
        <ele>1455.09</ele>
        <time>2020-02-04T11:28:13Z</time>
      </trkpt>
      <trkpt lat="46.19772" lon="6.57811">
        <ele>1457.5</ele>
        <time>2020-02-04T11:28:29Z</time>
      </trkpt>
      <trkpt lat="46.1978" lon="6.57806">
        <ele>1459.9</ele>
        <time>2020-02-04T11:28:44Z</time>
      </trkpt>
      <trkpt lat="46.19786" lon="6.57804">
        <ele>1461.34</ele>
        <time>2020-02-04T11:28:58Z</time>
      </trkpt>
      <trkpt lat="46.19787" lon="6.57801">
        <ele>1462.78</ele>
        <time>2020-02-04T11:29:09Z</time>
      </trkpt>
      <trkpt lat="46.19802" lon="6.578">
        <ele>1466.15</ele>
        <time>2020-02-04T11:29:23Z</time>
      </trkpt>
      <trkpt lat="46.19808" lon="6.57794">
        <ele>1467.11</ele>
        <time>2020-02-04T11:29:37Z</time>
      </trkpt>
      <trkpt lat="46.19809" lon="6.57788">
        <ele>1469.99</ele>
        <time>2020-02-04T11:29:53Z</time>
      </trkpt>
      <trkpt lat="46.19806" lon="6.57776">
        <ele>1471.92</ele>
        <time>2020-02-04T11:30:08Z</time>
      </trkpt>
      <trkpt lat="46.19803" lon="6.57776">
        <ele>1472.4</ele>
        <time>2020-02-04T11:30:21Z</time>
      </trkpt>
      <trkpt lat="46.19799" lon="6.57778">
        <ele>1472.88</ele>
        <time>2020-02-04T11:30:28Z</time>
      </trkpt>
      <trkpt lat="46.19797" lon="6.57778">
        <ele>1473.84</ele>
        <time>2020-02-04T11:30:30Z</time>
      </trkpt>
      <trkpt lat="46.19794" lon="6.57775">
        <ele>1475.28</ele>
        <time>2020-02-04T11:30:40Z</time>
      </trkpt>
      <trkpt lat="46.19795" lon="6.57769">
        <ele>1476.72</ele>
        <time>2020-02-04T11:30:55Z</time>
      </trkpt>
      <trkpt lat="46.198" lon="6.57757">
        <ele>1478.16</ele>
        <time>2020-02-04T11:31:06Z</time>
      </trkpt>
      <trkpt lat="46.19799" lon="6.57751">
        <ele>1479.61</ele>
        <time>2020-02-04T11:31:18Z</time>
      </trkpt>
      <trkpt lat="46.19794" lon="6.57745">
        <ele>1482.49</ele>
        <time>2020-02-04T11:31:30Z</time>
      </trkpt>
      <trkpt lat="46.19787" lon="6.57742">
        <ele>1483.45</ele>
        <time>2020-02-04T11:31:43Z</time>
      </trkpt>
      <trkpt lat="46.19782" lon="6.57737">
        <ele>1486.34</ele>
        <time>2020-02-04T11:31:56Z</time>
      </trkpt>
      <trkpt lat="46.19779" lon="6.57734">
        <ele>1486.82</ele>
        <time>2020-02-04T11:32:07Z</time>
      </trkpt>
      <trkpt lat="46.19779" lon="6.57734">
        <ele>1486.82</ele>
        <time>2020-02-04T11:33:21Z</time>
      </trkpt>
      <trkpt lat="46.19779" lon="6.57734">
        <ele>1486.82</ele>
        <time>2020-02-04T11:34:28Z</time>
      </trkpt>
      <trkpt lat="46.19779" lon="6.57734">
        <ele>1486.82</ele>
        <time>2020-02-04T11:35:38Z</time>
      </trkpt>
      <trkpt lat="46.19779" lon="6.57733">
        <ele>1487.3</ele>
        <time>2020-02-04T11:38:03Z</time>
      </trkpt>
      <trkpt lat="46.19774" lon="6.57733">
        <ele>1488.74</ele>
        <time>2020-02-04T11:39:04Z</time>
      </trkpt>
      <trkpt lat="46.1977" lon="6.57733">
        <ele>1490.18</ele>
        <time>2020-02-04T11:39:17Z</time>
      </trkpt>
      <trkpt lat="46.19762" lon="6.57735">
        <ele>1491.62</ele>
        <time>2020-02-04T11:39:33Z</time>
      </trkpt>
      <trkpt lat="46.19756" lon="6.57736">
        <ele>1493.06</ele>
        <time>2020-02-04T11:39:44Z</time>
      </trkpt>
      <trkpt lat="46.19747" lon="6.57739">
        <ele>1493.55</ele>
        <time>2020-02-04T11:39:58Z</time>
      </trkpt>
      <trkpt lat="46.1974" lon="6.57742">
        <ele>1495.95</ele>
        <time>2020-02-04T11:40:13Z</time>
      </trkpt>
      <trkpt lat="46.19734" lon="6.57744">
        <ele>1497.39</ele>
        <time>2020-02-04T11:40:27Z</time>
      </trkpt>
      <trkpt lat="46.19729" lon="6.57747">
        <ele>1499.79</ele>
        <time>2020-02-04T11:40:44Z</time>
      </trkpt>
      <trkpt lat="46.19723" lon="6.57753">
        <ele>1500.27</ele>
        <time>2020-02-04T11:40:58Z</time>
      </trkpt>
      <trkpt lat="46.19716" lon="6.57766">
        <ele>1502.2</ele>
        <time>2020-02-04T11:41:12Z</time>
      </trkpt>
      <trkpt lat="46.19708" lon="6.57776">
        <ele>1502.2</ele>
        <time>2020-02-04T11:41:23Z</time>
      </trkpt>
      <trkpt lat="46.19698" lon="6.57784">
        <ele>1503.64</ele>
        <time>2020-02-04T11:41:37Z</time>
      </trkpt>
      <trkpt lat="46.19686" lon="6.5779">
        <ele>1502.68</ele>
        <time>2020-02-04T11:41:50Z</time>
      </trkpt>
      <trkpt lat="46.19675" lon="6.57791">
        <ele>1504.12</ele>
        <time>2020-02-04T11:42:03Z</time>
      </trkpt>
      <trkpt lat="46.19666" lon="6.5779">
        <ele>1505.08</ele>
        <time>2020-02-04T11:42:17Z</time>
      </trkpt>
      <trkpt lat="46.19664" lon="6.5779">
        <ele>1506.52</ele>
        <time>2020-02-04T11:42:30Z</time>
      </trkpt>
      <trkpt lat="46.19651" lon="6.57794">
        <ele>1508.93</ele>
        <time>2020-02-04T11:42:44Z</time>
      </trkpt>
      <trkpt lat="46.19646" lon="6.57799">
        <ele>1510.85</ele>
        <time>2020-02-04T11:42:58Z</time>
      </trkpt>
      <trkpt lat="46.19639" lon="6.57806">
        <ele>1512.77</ele>
        <time>2020-02-04T11:43:10Z</time>
      </trkpt>
      <trkpt lat="46.19628" lon="6.57811">
        <ele>1514.69</ele>
        <time>2020-02-04T11:43:22Z</time>
      </trkpt>
      <trkpt lat="46.19621" lon="6.57812">
        <ele>1515.18</ele>
        <time>2020-02-04T11:43:31Z</time>
      </trkpt>
      <trkpt lat="46.19613" lon="6.57814">
        <ele>1516.14</ele>
        <time>2020-02-04T11:43:42Z</time>
      </trkpt>
      <trkpt lat="46.19604" lon="6.57816">
        <ele>1516.62</ele>
        <time>2020-02-04T11:43:52Z</time>
      </trkpt>
      <trkpt lat="46.19599" lon="6.57818">
        <ele>1517.58</ele>
        <time>2020-02-04T11:43:59Z</time>
      </trkpt>
      <trkpt lat="46.1959" lon="6.57816">
        <ele>1518.54</ele>
        <time>2020-02-04T11:44:12Z</time>
      </trkpt>
      <trkpt lat="46.19579" lon="6.57821">
        <ele>1518.54</ele>
        <time>2020-02-04T11:44:27Z</time>
      </trkpt>
      <trkpt lat="46.19569" lon="6.57825">
        <ele>1519.02</ele>
        <time>2020-02-04T11:44:39Z</time>
      </trkpt>
      <trkpt lat="46.19559" lon="6.57816">
        <ele>1516.62</ele>
        <time>2020-02-04T11:44:52Z</time>
      </trkpt>
      <trkpt lat="46.1955" lon="6.57805">
        <ele>1517.1</ele>
        <time>2020-02-04T11:45:07Z</time>
      </trkpt>
      <trkpt lat="46.19542" lon="6.57796">
        <ele>1517.1</ele>
        <time>2020-02-04T11:45:21Z</time>
      </trkpt>
      <trkpt lat="46.19535" lon="6.57788">
        <ele>1517.1</ele>
        <time>2020-02-04T11:45:36Z</time>
      </trkpt>
      <trkpt lat="46.19529" lon="6.5778">
        <ele>1515.66</ele>
        <time>2020-02-04T11:45:50Z</time>
      </trkpt>
      <trkpt lat="46.19523" lon="6.57775">
        <ele>1515.66</ele>
        <time>2020-02-04T11:46:02Z</time>
      </trkpt>
      <trkpt lat="46.19519" lon="6.57765">
        <ele>1513.73</ele>
        <time>2020-02-04T11:46:15Z</time>
      </trkpt>
      <trkpt lat="46.19512" lon="6.57761">
        <ele>1513.25</ele>
        <time>2020-02-04T11:46:29Z</time>
      </trkpt>
      <trkpt lat="46.19504" lon="6.57755">
        <ele>1513.25</ele>
        <time>2020-02-04T11:46:41Z</time>
      </trkpt>
      <trkpt lat="46.19502" lon="6.57752">
        <ele>1511.81</ele>
        <time>2020-02-04T11:46:54Z</time>
      </trkpt>
      <trkpt lat="46.19503" lon="6.57755">
        <ele>1512.77</ele>
        <time>2020-02-04T11:47:22Z</time>
      </trkpt>
      <trkpt lat="46.19504" lon="6.57755">
        <ele>1511.81</ele>
        <time>2020-02-04T11:48:13Z</time>
      </trkpt>
      <trkpt lat="46.19504" lon="6.57755">
        <ele>1512.29</ele>
        <time>2020-02-04T11:48:20Z</time>
      </trkpt>
      <trkpt lat="46.19508" lon="6.57755">
        <ele>1511.33</ele>
        <time>2020-02-04T11:48:48Z</time>
      </trkpt>
      <trkpt lat="46.19514" lon="6.57757">
        <ele>1512.29</ele>
        <time>2020-02-04T11:49:01Z</time>
      </trkpt>
      <trkpt lat="46.19516" lon="6.57755">
        <ele>1510.37</ele>
        <time>2020-02-04T11:49:16Z</time>
      </trkpt>
      <trkpt lat="46.19513" lon="6.57758">
        <ele>1511.33</ele>
        <time>2020-02-04T11:49:35Z</time>
      </trkpt>
      <trkpt lat="46.19505" lon="6.57752">
        <ele>1510.85</ele>
        <time>2020-02-04T11:49:46Z</time>
      </trkpt>
      <trkpt lat="46.19503" lon="6.5775">
        <ele>1512.77</ele>
        <time>2020-02-04T11:49:50Z</time>
      </trkpt>
      <trkpt lat="46.19502" lon="6.57742">
        <ele>1510.85</ele>
        <time>2020-02-04T11:50:01Z</time>
      </trkpt>
      <trkpt lat="46.19499" lon="6.57732">
        <ele>1510.85</ele>
        <time>2020-02-04T11:50:12Z</time>
      </trkpt>
      <trkpt lat="46.19499" lon="6.57723">
        <ele>1513.73</ele>
        <time>2020-02-04T11:50:20Z</time>
      </trkpt>
      <trkpt lat="46.19505" lon="6.57712">
        <ele>1510.85</ele>
        <time>2020-02-04T11:50:33Z</time>
      </trkpt>
      <trkpt lat="46.19511" lon="6.577">
        <ele>1511.33</ele>
        <time>2020-02-04T11:50:47Z</time>
      </trkpt>
      <trkpt lat="46.19519" lon="6.57692">
        <ele>1512.29</ele>
        <time>2020-02-04T11:51:02Z</time>
      </trkpt>
      <trkpt lat="46.19525" lon="6.57686">
        <ele>1514.21</ele>
        <time>2020-02-04T11:51:13Z</time>
      </trkpt>
      <trkpt lat="46.1953" lon="6.57687">
        <ele>1514.69</ele>
        <time>2020-02-04T11:51:25Z</time>
      </trkpt>
      <trkpt lat="46.19535" lon="6.57691">
        <ele>1516.14</ele>
        <time>2020-02-04T11:51:38Z</time>
      </trkpt>
      <trkpt lat="46.19535" lon="6.57692">
        <ele>1515.66</ele>
        <time>2020-02-04T11:51:54Z</time>
      </trkpt>
      <trkpt lat="46.19536" lon="6.57693">
        <ele>1515.18</ele>
        <time>2020-02-04T11:52:14Z</time>
      </trkpt>
      <trkpt lat="46.19536" lon="6.57695">
        <ele>1515.66</ele>
        <time>2020-02-04T11:52:37Z</time>
      </trkpt>
      <trkpt lat="46.19537" lon="6.57699">
        <ele>1516.14</ele>
        <time>2020-02-04T11:52:54Z</time>
      </trkpt>
      <trkpt lat="46.19538" lon="6.57698">
        <ele>1516.62</ele>
        <time>2020-02-04T11:53:09Z</time>
      </trkpt>
      <trkpt lat="46.19539" lon="6.57697">
        <ele>1517.1</ele>
        <time>2020-02-04T11:53:27Z</time>
      </trkpt>
      <trkpt lat="46.19539" lon="6.57697">
        <ele>1516.62</ele>
        <time>2020-02-04T11:53:48Z</time>
      </trkpt>
      <trkpt lat="46.19539" lon="6.57697">
        <ele>1516.14</ele>
        <time>2020-02-04T11:54:10Z</time>
      </trkpt>
      <trkpt lat="46.19539" lon="6.57697">
        <ele>1515.66</ele>
        <time>2020-02-04T11:54:42Z</time>
      </trkpt>
      <trkpt lat="46.19539" lon="6.57697">
        <ele>1515.66</ele>
        <time>2020-02-04T11:55:28Z</time>
      </trkpt>
      <trkpt lat="46.19538" lon="6.57699">
        <ele>1516.14</ele>
        <time>2020-02-04T11:56:49Z</time>
      </trkpt>
      <trkpt lat="46.19538" lon="6.57698">
        <ele>1515.66</ele>
        <time>2020-02-04T11:57:36Z</time>
      </trkpt>
      <trkpt lat="46.19538" lon="6.57698">
        <ele>1514.69</ele>
        <time>2020-02-04T11:59:16Z</time>
      </trkpt>
      <trkpt lat="46.19538" lon="6.57697">
        <ele>1515.66</ele>
        <time>2020-02-04T12:00:51Z</time>
      </trkpt>
      <trkpt lat="46.19537" lon="6.57698">
        <ele>1516.14</ele>
        <time>2020-02-04T12:01:02Z</time>
      </trkpt>
      <trkpt lat="46.19532" lon="6.577">
        <ele>1515.66</ele>
        <time>2020-02-04T12:01:25Z</time>
      </trkpt>
      <trkpt lat="46.19534" lon="6.57699">
        <ele>1515.66</ele>
        <time>2020-02-04T12:02:02Z</time>
      </trkpt>
      <trkpt lat="46.19534" lon="6.577">
        <ele>1515.66</ele>
        <time>2020-02-04T12:02:36Z</time>
      </trkpt>
      <trkpt lat="46.19534" lon="6.57699">
        <ele>1514.69</ele>
        <time>2020-02-04T12:03:38Z</time>
      </trkpt>
      <trkpt lat="46.19532" lon="6.57699">
        <ele>1514.21</ele>
        <time>2020-02-04T12:04:02Z</time>
      </trkpt>
      <trkpt lat="46.19536" lon="6.57691">
        <ele>1513.73</ele>
        <time>2020-02-04T12:04:22Z</time>
      </trkpt>
      <trkpt lat="46.19536" lon="6.57691">
        <ele>1514.21</ele>
        <time>2020-02-04T12:04:56Z</time>
      </trkpt>
      <trkpt lat="46.19532" lon="6.57697">
        <ele>1515.18</ele>
        <time>2020-02-04T12:05:34Z</time>
      </trkpt>
      <trkpt lat="46.19532" lon="6.57697">
        <ele>1514.69</ele>
        <time>2020-02-04T12:06:11Z</time>
      </trkpt>
      <trkpt lat="46.19532" lon="6.57702">
        <ele>1513.73</ele>
        <time>2020-02-04T12:06:51Z</time>
      </trkpt>
      <trkpt lat="46.19532" lon="6.57702">
        <ele>1514.69</ele>
        <time>2020-02-04T12:07:21Z</time>
      </trkpt>
      <trkpt lat="46.19531" lon="6.57708">
        <ele>1514.21</ele>
        <time>2020-02-04T12:12:03Z</time>
      </trkpt>
      <trkpt lat="46.19531" lon="6.57707">
        <ele>1515.66</ele>
        <time>2020-02-04T12:14:57Z</time>
      </trkpt>
      <trkpt lat="46.19532" lon="6.57707">
        <ele>1515.18</ele>
        <time>2020-02-04T12:15:43Z</time>
      </trkpt>
      <trkpt lat="46.19533" lon="6.57707">
        <ele>1514.21</ele>
        <time>2020-02-04T12:16:13Z</time>
      </trkpt>
      <trkpt lat="46.19533" lon="6.57706">
        <ele>1517.58</ele>
        <time>2020-02-04T12:18:09Z</time>
      </trkpt>
      <trkpt lat="46.19533" lon="6.57706">
        <ele>1517.58</ele>
        <time>2020-02-04T12:18:10Z</time>
      </trkpt>
      <trkpt lat="46.19533" lon="6.57706">
        <ele>1517.58</ele>
        <time>2020-02-04T12:18:37Z</time>
      </trkpt>
      <trkpt lat="46.19534" lon="6.57705">
        <ele>1515.66</ele>
        <time>2020-02-04T12:20:26Z</time>
      </trkpt>
      <trkpt lat="46.19534" lon="6.57704">
        <ele>1516.14</ele>
        <time>2020-02-04T12:21:49Z</time>
      </trkpt>
      <trkpt lat="46.19535" lon="6.57704">
        <ele>1516.62</ele>
        <time>2020-02-04T12:22:42Z</time>
      </trkpt>
      <trkpt lat="46.19535" lon="6.57701">
        <ele>1518.54</ele>
        <time>2020-02-04T12:24:02Z</time>
      </trkpt>
      <trkpt lat="46.19535" lon="6.57702">
        <ele>1518.06</ele>
        <time>2020-02-04T12:24:24Z</time>
      </trkpt>
      <trkpt lat="46.19535" lon="6.577">
        <ele>1517.58</ele>
        <time>2020-02-04T12:24:39Z</time>
      </trkpt>
      <trkpt lat="46.19536" lon="6.57698">
        <ele>1515.66</ele>
        <time>2020-02-04T12:28:48Z</time>
      </trkpt>
      <trkpt lat="46.19538" lon="6.57696">
        <ele>1517.58</ele>
        <time>2020-02-04T12:29:10Z</time>
      </trkpt>
      <trkpt lat="46.19537" lon="6.57695">
        <ele>1518.06</ele>
        <time>2020-02-04T12:29:33Z</time>
      </trkpt>
      <trkpt lat="46.19538" lon="6.57696">
        <ele>1516.14</ele>
        <time>2020-02-04T12:30:06Z</time>
      </trkpt>
      <trkpt lat="46.19538" lon="6.57696">
        <ele>1516.14</ele>
        <time>2020-02-04T12:31:13Z</time>
      </trkpt>
      <trkpt lat="46.19539" lon="6.57695">
        <ele>1516.14</ele>
        <time>2020-02-04T12:31:37Z</time>
      </trkpt>
      <trkpt lat="46.19538" lon="6.57695">
        <ele>1516.62</ele>
        <time>2020-02-04T12:31:58Z</time>
      </trkpt>
      <trkpt lat="46.19538" lon="6.57695">
        <ele>1517.1</ele>
        <time>2020-02-04T12:33:15Z</time>
      </trkpt>
      <trkpt lat="46.19538" lon="6.57696">
        <ele>1518.06</ele>
        <time>2020-02-04T12:33:59Z</time>
      </trkpt>
      <trkpt lat="46.19537" lon="6.57696">
        <ele>1516.14</ele>
        <time>2020-02-04T12:35:10Z</time>
      </trkpt>
      <trkpt lat="46.19533" lon="6.57691">
        <ele>1516.62</ele>
        <time>2020-02-04T12:35:26Z</time>
      </trkpt>
      <trkpt lat="46.19533" lon="6.57691">
        <ele>1516.62</ele>
        <time>2020-02-04T12:35:41Z</time>
      </trkpt>
      <trkpt lat="46.19532" lon="6.57691">
        <ele>1516.14</ele>
        <time>2020-02-04T12:35:44Z</time>
      </trkpt>
      <trkpt lat="46.19529" lon="6.57691">
        <ele>1515.18</ele>
        <time>2020-02-04T12:35:48Z</time>
      </trkpt>
      <trkpt lat="46.1952" lon="6.57697">
        <ele>1514.21</ele>
        <time>2020-02-04T12:35:59Z</time>
      </trkpt>
      <trkpt lat="46.19517" lon="6.57698">
        <ele>1514.21</ele>
        <time>2020-02-04T12:36:02Z</time>
      </trkpt>
      <trkpt lat="46.19512" lon="6.57702">
        <ele>1513.25</ele>
        <time>2020-02-04T12:36:13Z</time>
      </trkpt>
      <trkpt lat="46.19505" lon="6.57711">
        <ele>1511.81</ele>
        <time>2020-02-04T12:36:28Z</time>
      </trkpt>
      <trkpt lat="46.19503" lon="6.57715">
        <ele>1511.33</ele>
        <time>2020-02-04T12:36:32Z</time>
      </trkpt>
      <trkpt lat="46.19498" lon="6.57726">
        <ele>1511.81</ele>
        <time>2020-02-04T12:36:45Z</time>
      </trkpt>
      <trkpt lat="46.19494" lon="6.57733">
        <ele>1511.81</ele>
        <time>2020-02-04T12:36:57Z</time>
      </trkpt>
      <trkpt lat="46.19488" lon="6.57731">
        <ele>1512.77</ele>
        <time>2020-02-04T12:37:07Z</time>
      </trkpt>
      <trkpt lat="46.19484" lon="6.5773">
        <ele>1514.69</ele>
        <time>2020-02-04T12:37:18Z</time>
      </trkpt>
      <trkpt lat="46.1948" lon="6.57736">
        <ele>1515.66</ele>
        <time>2020-02-04T12:37:29Z</time>
      </trkpt>
      <trkpt lat="46.19475" lon="6.57739">
        <ele>1515.66</ele>
        <time>2020-02-04T12:37:39Z</time>
      </trkpt>
      <trkpt lat="46.19469" lon="6.57735">
        <ele>1516.62</ele>
        <time>2020-02-04T12:37:51Z</time>
      </trkpt>
      <trkpt lat="46.19465" lon="6.57741">
        <ele>1518.06</ele>
        <time>2020-02-04T12:38:04Z</time>
      </trkpt>
      <trkpt lat="46.19462" lon="6.57747">
        <ele>1519.5</ele>
        <time>2020-02-04T12:38:15Z</time>
      </trkpt>
      <trkpt lat="46.19455" lon="6.57743">
        <ele>1520.46</ele>
        <time>2020-02-04T12:38:27Z</time>
      </trkpt>
      <trkpt lat="46.19454" lon="6.57743">
        <ele>1521.9</ele>
        <time>2020-02-04T12:38:37Z</time>
      </trkpt>
      <trkpt lat="46.1945" lon="6.57753">
        <ele>1522.39</ele>
        <time>2020-02-04T12:38:49Z</time>
      </trkpt>
      <trkpt lat="46.19446" lon="6.57754">
        <ele>1523.35</ele>
        <time>2020-02-04T12:38:58Z</time>
      </trkpt>
      <trkpt lat="46.19441" lon="6.57753">
        <ele>1524.31</ele>
        <time>2020-02-04T12:39:07Z</time>
      </trkpt>
      <trkpt lat="46.19439" lon="6.57757">
        <ele>1525.27</ele>
        <time>2020-02-04T12:39:17Z</time>
      </trkpt>
      <trkpt lat="46.19438" lon="6.57761">
        <ele>1525.27</ele>
        <time>2020-02-04T12:39:23Z</time>
      </trkpt>
      <trkpt lat="46.19436" lon="6.5777">
        <ele>1526.71</ele>
        <time>2020-02-04T12:39:35Z</time>
      </trkpt>
      <trkpt lat="46.1943" lon="6.57773">
        <ele>1528.15</ele>
        <time>2020-02-04T12:39:46Z</time>
      </trkpt>
      <trkpt lat="46.19428" lon="6.57776">
        <ele>1528.15</ele>
        <time>2020-02-04T12:39:51Z</time>
      </trkpt>
      <trkpt lat="46.19425" lon="6.57785">
        <ele>1529.59</ele>
        <time>2020-02-04T12:40:04Z</time>
      </trkpt>
      <trkpt lat="46.19423" lon="6.57792">
        <ele>1530.56</ele>
        <time>2020-02-04T12:40:11Z</time>
      </trkpt>
      <trkpt lat="46.19422" lon="6.57797">
        <ele>1530.08</ele>
        <time>2020-02-04T12:40:16Z</time>
      </trkpt>
      <trkpt lat="46.19421" lon="6.57809">
        <ele>1531.52</ele>
        <time>2020-02-04T12:40:30Z</time>
      </trkpt>
      <trkpt lat="46.19419" lon="6.57813">
        <ele>1532.48</ele>
        <time>2020-02-04T12:40:45Z</time>
      </trkpt>
      <trkpt lat="46.19415" lon="6.57817">
        <ele>1531.04</ele>
        <time>2020-02-04T12:41:00Z</time>
      </trkpt>
      <trkpt lat="46.1941" lon="6.57813">
        <ele>1532.48</ele>
        <time>2020-02-04T12:41:12Z</time>
      </trkpt>
      <trkpt lat="46.19404" lon="6.57809">
        <ele>1532.48</ele>
        <time>2020-02-04T12:41:23Z</time>
      </trkpt>
      <trkpt lat="46.19399" lon="6.57806">
        <ele>1532.48</ele>
        <time>2020-02-04T12:41:35Z</time>
      </trkpt>
      <trkpt lat="46.19395" lon="6.57804">
        <ele>1532.96</ele>
        <time>2020-02-04T12:41:45Z</time>
      </trkpt>
      <trkpt lat="46.19388" lon="6.57796">
        <ele>1533.44</ele>
        <time>2020-02-04T12:41:56Z</time>
      </trkpt>
      <trkpt lat="46.19382" lon="6.57792">
        <ele>1533.92</ele>
        <time>2020-02-04T12:42:06Z</time>
      </trkpt>
      <trkpt lat="46.19376" lon="6.57785">
        <ele>1534.4</ele>
        <time>2020-02-04T12:42:18Z</time>
      </trkpt>
      <trkpt lat="46.19371" lon="6.57781">
        <ele>1534.4</ele>
        <time>2020-02-04T12:42:29Z</time>
      </trkpt>
      <trkpt lat="46.1937" lon="6.57779">
        <ele>1535.36</ele>
        <time>2020-02-04T12:42:40Z</time>
      </trkpt>
      <trkpt lat="46.19365" lon="6.57776">
        <ele>1536.32</ele>
        <time>2020-02-04T12:42:52Z</time>
      </trkpt>
      <trkpt lat="46.19362" lon="6.57774">
        <ele>1536.32</ele>
        <time>2020-02-04T12:43:03Z</time>
      </trkpt>
      <trkpt lat="46.19357" lon="6.57771">
        <ele>1536.8</ele>
        <time>2020-02-04T12:43:16Z</time>
      </trkpt>
      <trkpt lat="46.19355" lon="6.57772">
        <ele>1536.8</ele>
        <time>2020-02-04T12:43:30Z</time>
      </trkpt>
      <trkpt lat="46.1935" lon="6.57772">
        <ele>1538.73</ele>
        <time>2020-02-04T12:43:45Z</time>
      </trkpt>
      <trkpt lat="46.19345" lon="6.57772">
        <ele>1538.73</ele>
        <time>2020-02-04T12:43:56Z</time>
      </trkpt>
      <trkpt lat="46.1934" lon="6.57774">
        <ele>1538.25</ele>
        <time>2020-02-04T12:44:07Z</time>
      </trkpt>
      <trkpt lat="46.19336" lon="6.57774">
        <ele>1537.77</ele>
        <time>2020-02-04T12:44:19Z</time>
      </trkpt>
      <trkpt lat="46.19335" lon="6.57774">
        <ele>1537.29</ele>
        <time>2020-02-04T12:44:29Z</time>
      </trkpt>
      <trkpt lat="46.1933" lon="6.57771">
        <ele>1537.77</ele>
        <time>2020-02-04T12:44:41Z</time>
      </trkpt>
      <trkpt lat="46.19329" lon="6.57771">
        <ele>1536.32</ele>
        <time>2020-02-04T12:44:44Z</time>
      </trkpt>
      <trkpt lat="46.19323" lon="6.57766">
        <ele>1538.25</ele>
        <time>2020-02-04T12:44:57Z</time>
      </trkpt>
      <trkpt lat="46.19324" lon="6.57766">
        <ele>1538.73</ele>
        <time>2020-02-04T12:45:25Z</time>
      </trkpt>
      <trkpt lat="46.19326" lon="6.57762">
        <ele>1539.21</ele>
        <time>2020-02-04T12:45:44Z</time>
      </trkpt>
      <trkpt lat="46.1932" lon="6.57761">
        <ele>1538.73</ele>
        <time>2020-02-04T12:45:51Z</time>
      </trkpt>
      <trkpt lat="46.19313" lon="6.57762">
        <ele>1540.17</ele>
        <time>2020-02-04T12:46:02Z</time>
      </trkpt>
      <trkpt lat="46.19313" lon="6.57762">
        <ele>1540.65</ele>
        <time>2020-02-04T12:46:40Z</time>
      </trkpt>
      <trkpt lat="46.19313" lon="6.57762">
        <ele>1540.65</ele>
        <time>2020-02-04T12:46:48Z</time>
      </trkpt>
      <trkpt lat="46.19309" lon="6.57765">
        <ele>1540.65</ele>
        <time>2020-02-04T12:47:06Z</time>
      </trkpt>
      <trkpt lat="46.19301" lon="6.57767">
        <ele>1541.61</ele>
        <time>2020-02-04T12:47:17Z</time>
      </trkpt>
      <trkpt lat="46.19296" lon="6.57768">
        <ele>1542.09</ele>
        <time>2020-02-04T12:47:31Z</time>
      </trkpt>
      <trkpt lat="46.19293" lon="6.57768">
        <ele>1543.05</ele>
        <time>2020-02-04T12:47:48Z</time>
      </trkpt>
      <trkpt lat="46.19292" lon="6.57768">
        <ele>1543.53</ele>
        <time>2020-02-04T12:48:02Z</time>
      </trkpt>
      <trkpt lat="46.19291" lon="6.57768">
        <ele>1544.5</ele>
        <time>2020-02-04T12:48:45Z</time>
      </trkpt>
      <trkpt lat="46.1929" lon="6.57769">
        <ele>1544.98</ele>
        <time>2020-02-04T12:49:37Z</time>
      </trkpt>
      <trkpt lat="46.19289" lon="6.57769">
        <ele>1544.98</ele>
        <time>2020-02-04T12:52:39Z</time>
      </trkpt>
      <trkpt lat="46.19284" lon="6.57765">
        <ele>1546.42</ele>
        <time>2020-02-04T12:53:21Z</time>
      </trkpt>
      <trkpt lat="46.1928" lon="6.57766">
        <ele>1547.86</ele>
        <time>2020-02-04T12:53:33Z</time>
      </trkpt>
      <trkpt lat="46.19274" lon="6.57768">
        <ele>1549.3</ele>
        <time>2020-02-04T12:53:46Z</time>
      </trkpt>
      <trkpt lat="46.19267" lon="6.57769">
        <ele>1549.3</ele>
        <time>2020-02-04T12:53:58Z</time>
      </trkpt>
      <trkpt lat="46.19267" lon="6.57769">
        <ele>1549.78</ele>
        <time>2020-02-04T12:54:00Z</time>
      </trkpt>
      <trkpt lat="46.19259" lon="6.57774">
        <ele>1550.26</ele>
        <time>2020-02-04T12:54:13Z</time>
      </trkpt>
      <trkpt lat="46.19253" lon="6.57778">
        <ele>1550.74</ele>
        <time>2020-02-04T12:54:23Z</time>
      </trkpt>
      <trkpt lat="46.19248" lon="6.57787">
        <ele>1551.71</ele>
        <time>2020-02-04T12:54:36Z</time>
      </trkpt>
      <trkpt lat="46.19246" lon="6.5779">
        <ele>1552.19</ele>
        <time>2020-02-04T12:54:50Z</time>
      </trkpt>
      <trkpt lat="46.19247" lon="6.57793">
        <ele>1552.19</ele>
        <time>2020-02-04T12:55:01Z</time>
      </trkpt>
      <trkpt lat="46.19246" lon="6.57794">
        <ele>1552.67</ele>
        <time>2020-02-04T12:55:27Z</time>
      </trkpt>
      <trkpt lat="46.1925" lon="6.57795">
        <ele>1550.74</ele>
        <time>2020-02-04T12:56:30Z</time>
      </trkpt>
      <trkpt lat="46.19254" lon="6.57798">
        <ele>1549.3</ele>
        <time>2020-02-04T12:56:43Z</time>
      </trkpt>
      <trkpt lat="46.19256" lon="6.57801">
        <ele>1546.42</ele>
        <time>2020-02-04T12:56:54Z</time>
      </trkpt>
      <trkpt lat="46.19257" lon="6.5781">
        <ele>1545.94</ele>
        <time>2020-02-04T12:57:08Z</time>
      </trkpt>
      <trkpt lat="46.19257" lon="6.57812">
        <ele>1544.01</ele>
        <time>2020-02-04T12:57:22Z</time>
      </trkpt>
      <trkpt lat="46.19256" lon="6.57816">
        <ele>1543.53</ele>
        <time>2020-02-04T12:57:34Z</time>
      </trkpt>
      <trkpt lat="46.19258" lon="6.57822">
        <ele>1541.13</ele>
        <time>2020-02-04T12:58:42Z</time>
      </trkpt>
      <trkpt lat="46.19264" lon="6.57833">
        <ele>1539.21</ele>
        <time>2020-02-04T12:58:56Z</time>
      </trkpt>
      <trkpt lat="46.19268" lon="6.57846">
        <ele>1538.25</ele>
        <time>2020-02-04T12:59:11Z</time>
      </trkpt>
      <trkpt lat="46.19273" lon="6.57852">
        <ele>1536.32</ele>
        <time>2020-02-04T12:59:23Z</time>
      </trkpt>
      <trkpt lat="46.1928" lon="6.57855">
        <ele>1534.88</ele>
        <time>2020-02-04T12:59:36Z</time>
      </trkpt>
      <trkpt lat="46.19285" lon="6.57861">
        <ele>1533.44</ele>
        <time>2020-02-04T12:59:50Z</time>
      </trkpt>
      <trkpt lat="46.19288" lon="6.57865">
        <ele>1532.96</ele>
        <time>2020-02-04T13:00:04Z</time>
      </trkpt>
      <trkpt lat="46.19291" lon="6.57869">
        <ele>1532</ele>
        <time>2020-02-04T13:00:17Z</time>
      </trkpt>
      <trkpt lat="46.19295" lon="6.57874">
        <ele>1531.52</ele>
        <time>2020-02-04T13:00:30Z</time>
      </trkpt>
      <trkpt lat="46.19301" lon="6.57877">
        <ele>1532.48</ele>
        <time>2020-02-04T13:00:43Z</time>
      </trkpt>
      <trkpt lat="46.19305" lon="6.5788">
        <ele>1530.56</ele>
        <time>2020-02-04T13:00:56Z</time>
      </trkpt>
      <trkpt lat="46.19309" lon="6.57883">
        <ele>1529.59</ele>
        <time>2020-02-04T13:01:11Z</time>
      </trkpt>
      <trkpt lat="46.19313" lon="6.57885">
        <ele>1529.59</ele>
        <time>2020-02-04T13:01:25Z</time>
      </trkpt>
      <trkpt lat="46.19318" lon="6.57887">
        <ele>1529.59</ele>
        <time>2020-02-04T13:01:37Z</time>
      </trkpt>
      <trkpt lat="46.19322" lon="6.57889">
        <ele>1529.11</ele>
        <time>2020-02-04T13:01:51Z</time>
      </trkpt>
      <trkpt lat="46.19326" lon="6.57891">
        <ele>1528.15</ele>
        <time>2020-02-04T13:02:04Z</time>
      </trkpt>
      <trkpt lat="46.19331" lon="6.57892">
        <ele>1528.63</ele>
        <time>2020-02-04T13:02:16Z</time>
      </trkpt>
      <trkpt lat="46.19335" lon="6.57893">
        <ele>1528.63</ele>
        <time>2020-02-04T13:02:27Z</time>
      </trkpt>
      <trkpt lat="46.19335" lon="6.57893">
        <ele>1528.15</ele>
        <time>2020-02-04T13:02:29Z</time>
      </trkpt>
      <trkpt lat="46.19342" lon="6.57896">
        <ele>1527.19</ele>
        <time>2020-02-04T13:02:42Z</time>
      </trkpt>
      <trkpt lat="46.19346" lon="6.57899">
        <ele>1527.67</ele>
        <time>2020-02-04T13:02:53Z</time>
      </trkpt>
      <trkpt lat="46.1935" lon="6.57905">
        <ele>1527.19</ele>
        <time>2020-02-04T13:03:07Z</time>
      </trkpt>
      <trkpt lat="46.19357" lon="6.57913">
        <ele>1526.23</ele>
        <time>2020-02-04T13:03:22Z</time>
      </trkpt>
      <trkpt lat="46.19362" lon="6.57916">
        <ele>1526.23</ele>
        <time>2020-02-04T13:03:35Z</time>
      </trkpt>
      <trkpt lat="46.19369" lon="6.5792">
        <ele>1525.75</ele>
        <time>2020-02-04T13:03:48Z</time>
      </trkpt>
      <trkpt lat="46.19373" lon="6.57922">
        <ele>1525.27</ele>
        <time>2020-02-04T13:04:00Z</time>
      </trkpt>
      <trkpt lat="46.1938" lon="6.57926">
        <ele>1524.79</ele>
        <time>2020-02-04T13:04:12Z</time>
      </trkpt>
      <trkpt lat="46.19384" lon="6.57928">
        <ele>1524.31</ele>
        <time>2020-02-04T13:04:25Z</time>
      </trkpt>
      <trkpt lat="46.19391" lon="6.57932">
        <ele>1523.35</ele>
        <time>2020-02-04T13:04:39Z</time>
      </trkpt>
      <trkpt lat="46.19397" lon="6.57935">
        <ele>1523.35</ele>
        <time>2020-02-04T13:04:48Z</time>
      </trkpt>
      <trkpt lat="46.19403" lon="6.57937">
        <ele>1523.35</ele>
        <time>2020-02-04T13:05:00Z</time>
      </trkpt>
      <trkpt lat="46.19407" lon="6.5794">
        <ele>1522.39</ele>
        <time>2020-02-04T13:05:12Z</time>
      </trkpt>
      <trkpt lat="46.19409" lon="6.57942">
        <ele>1523.35</ele>
        <time>2020-02-04T13:05:26Z</time>
      </trkpt>
      <trkpt lat="46.19414" lon="6.57947">
        <ele>1524.31</ele>
        <time>2020-02-04T13:05:40Z</time>
      </trkpt>
      <trkpt lat="46.19416" lon="6.57942">
        <ele>1524.79</ele>
        <time>2020-02-04T13:05:51Z</time>
      </trkpt>
      <trkpt lat="46.19419" lon="6.57934">
        <ele>1527.19</ele>
        <time>2020-02-04T13:06:04Z</time>
      </trkpt>
      <trkpt lat="46.19422" lon="6.57927">
        <ele>1528.15</ele>
        <time>2020-02-04T13:06:15Z</time>
      </trkpt>
      <trkpt lat="46.19424" lon="6.57919">
        <ele>1529.59</ele>
        <time>2020-02-04T13:06:25Z</time>
      </trkpt>
      <trkpt lat="46.19426" lon="6.5791">
        <ele>1531.52</ele>
        <time>2020-02-04T13:06:38Z</time>
      </trkpt>
      <trkpt lat="46.19428" lon="6.57902">
        <ele>1533.44</ele>
        <time>2020-02-04T13:06:48Z</time>
      </trkpt>
      <trkpt lat="46.19431" lon="6.57893">
        <ele>1533.92</ele>
        <time>2020-02-04T13:06:58Z</time>
      </trkpt>
      <trkpt lat="46.19433" lon="6.57884">
        <ele>1535.36</ele>
        <time>2020-02-04T13:07:10Z</time>
      </trkpt>
      <trkpt lat="46.19435" lon="6.57875">
        <ele>1535.36</ele>
        <time>2020-02-04T13:07:22Z</time>
      </trkpt>
      <trkpt lat="46.19439" lon="6.57866">
        <ele>1535.36</ele>
        <time>2020-02-04T13:07:33Z</time>
      </trkpt>
      <trkpt lat="46.19445" lon="6.57854">
        <ele>1534.88</ele>
        <time>2020-02-04T13:07:48Z</time>
      </trkpt>
      <trkpt lat="46.19448" lon="6.57852">
        <ele>1533.92</ele>
        <time>2020-02-04T13:07:52Z</time>
      </trkpt>
      <trkpt lat="46.19456" lon="6.57854">
        <ele>1532.48</ele>
        <time>2020-02-04T13:08:04Z</time>
      </trkpt>
      <trkpt lat="46.19457" lon="6.57854">
        <ele>1532.48</ele>
        <time>2020-02-04T13:08:05Z</time>
      </trkpt>
      <trkpt lat="46.19466" lon="6.57847">
        <ele>1530.08</ele>
        <time>2020-02-04T13:08:19Z</time>
      </trkpt>
      <trkpt lat="46.19467" lon="6.57846">
        <ele>1530.56</ele>
        <time>2020-02-04T13:08:20Z</time>
      </trkpt>
      <trkpt lat="46.19477" lon="6.57843">
        <ele>1528.63</ele>
        <time>2020-02-04T13:08:33Z</time>
      </trkpt>
      <trkpt lat="46.19487" lon="6.5784">
        <ele>1527.19</ele>
        <time>2020-02-04T13:08:46Z</time>
      </trkpt>
      <trkpt lat="46.19499" lon="6.57836">
        <ele>1525.27</ele>
        <time>2020-02-04T13:09:03Z</time>
      </trkpt>
      <trkpt lat="46.19511" lon="6.57832">
        <ele>1523.35</ele>
        <time>2020-02-04T13:09:17Z</time>
      </trkpt>
      <trkpt lat="46.19522" lon="6.5783">
        <ele>1522.39</ele>
        <time>2020-02-04T13:09:31Z</time>
      </trkpt>
      <trkpt lat="46.19531" lon="6.5783">
        <ele>1520.46</ele>
        <time>2020-02-04T13:09:43Z</time>
      </trkpt>
      <trkpt lat="46.19542" lon="6.57831">
        <ele>1519.02</ele>
        <time>2020-02-04T13:09:56Z</time>
      </trkpt>
      <trkpt lat="46.19554" lon="6.57828">
        <ele>1519.02</ele>
        <time>2020-02-04T13:10:12Z</time>
      </trkpt>
      <trkpt lat="46.19562" lon="6.57823">
        <ele>1518.06</ele>
        <time>2020-02-04T13:10:26Z</time>
      </trkpt>
      <trkpt lat="46.19569" lon="6.57819">
        <ele>1517.1</ele>
        <time>2020-02-04T13:10:39Z</time>
      </trkpt>
      <trkpt lat="46.19579" lon="6.57817">
        <ele>1516.62</ele>
        <time>2020-02-04T13:10:51Z</time>
      </trkpt>
      <trkpt lat="46.19591" lon="6.57814">
        <ele>1516.62</ele>
        <time>2020-02-04T13:11:07Z</time>
      </trkpt>
      <trkpt lat="46.19601" lon="6.57812">
        <ele>1515.66</ele>
        <time>2020-02-04T13:11:21Z</time>
      </trkpt>
      <trkpt lat="46.19612" lon="6.57811">
        <ele>1514.21</ele>
        <time>2020-02-04T13:11:34Z</time>
      </trkpt>
      <trkpt lat="46.19625" lon="6.57808">
        <ele>1512.77</ele>
        <time>2020-02-04T13:11:50Z</time>
      </trkpt>
      <trkpt lat="46.19635" lon="6.57803">
        <ele>1511.81</ele>
        <time>2020-02-04T13:12:03Z</time>
      </trkpt>
      <trkpt lat="46.19645" lon="6.57795">
        <ele>1508.93</ele>
        <time>2020-02-04T13:12:18Z</time>
      </trkpt>
      <trkpt lat="46.19651" lon="6.57791">
        <ele>1507</ele>
        <time>2020-02-04T13:12:29Z</time>
      </trkpt>
      <trkpt lat="46.19663" lon="6.57789">
        <ele>1505.08</ele>
        <time>2020-02-04T13:12:43Z</time>
      </trkpt>
      <trkpt lat="46.19666" lon="6.5779">
        <ele>1505.08</ele>
        <time>2020-02-04T13:12:47Z</time>
      </trkpt>
      <trkpt lat="46.19675" lon="6.57793">
        <ele>1503.64</ele>
        <time>2020-02-04T13:12:58Z</time>
      </trkpt>
      <trkpt lat="46.19681" lon="6.57793">
        <ele>1502.68</ele>
        <time>2020-02-04T13:13:11Z</time>
      </trkpt>
      <trkpt lat="46.19681" lon="6.57792">
        <ele>1502.2</ele>
        <time>2020-02-04T13:13:27Z</time>
      </trkpt>
      <trkpt lat="46.19681" lon="6.5779">
        <ele>1501.24</ele>
        <time>2020-02-04T13:13:58Z</time>
      </trkpt>
      <trkpt lat="46.19681" lon="6.5779">
        <ele>1501.24</ele>
        <time>2020-02-04T13:14:33Z</time>
      </trkpt>
      <trkpt lat="46.19681" lon="6.57791">
        <ele>1502.2</ele>
        <time>2020-02-04T13:15:06Z</time>
      </trkpt>
      <trkpt lat="46.1968" lon="6.57789">
        <ele>1502.2</ele>
        <time>2020-02-04T13:16:01Z</time>
      </trkpt>
      <trkpt lat="46.19681" lon="6.57789">
        <ele>1501.24</ele>
        <time>2020-02-04T13:18:55Z</time>
      </trkpt>
      <trkpt lat="46.19685" lon="6.5779">
        <ele>1499.79</ele>
        <time>2020-02-04T13:20:56Z</time>
      </trkpt>
      <trkpt lat="46.19694" lon="6.57784">
        <ele>1499.31</ele>
        <time>2020-02-04T13:21:09Z</time>
      </trkpt>
      <trkpt lat="46.19704" lon="6.57777">
        <ele>1498.35</ele>
        <time>2020-02-04T13:21:23Z</time>
      </trkpt>
      <trkpt lat="46.19709" lon="6.57768">
        <ele>1496.91</ele>
        <time>2020-02-04T13:21:35Z</time>
      </trkpt>
      <trkpt lat="46.1971" lon="6.57764">
        <ele>1495.95</ele>
        <time>2020-02-04T13:21:38Z</time>
      </trkpt>
      <trkpt lat="46.19716" lon="6.57758">
        <ele>1495.47</ele>
        <time>2020-02-04T13:21:48Z</time>
      </trkpt>
      <trkpt lat="46.19721" lon="6.57755">
        <ele>1494.51</ele>
        <time>2020-02-04T13:22:00Z</time>
      </trkpt>
      <trkpt lat="46.19728" lon="6.57748">
        <ele>1491.62</ele>
        <time>2020-02-04T13:22:13Z</time>
      </trkpt>
      <trkpt lat="46.1973" lon="6.57743">
        <ele>1489.7</ele>
        <time>2020-02-04T13:22:26Z</time>
      </trkpt>
      <trkpt lat="46.19734" lon="6.57741">
        <ele>1489.7</ele>
        <time>2020-02-04T13:22:30Z</time>
      </trkpt>
      <trkpt lat="46.19749" lon="6.57731">
        <ele>1487.78</ele>
        <time>2020-02-04T13:22:44Z</time>
      </trkpt>
      <trkpt lat="46.1975" lon="6.57731">
        <ele>1487.3</ele>
        <time>2020-02-04T13:22:46Z</time>
      </trkpt>
      <trkpt lat="46.19764" lon="6.57726">
        <ele>1484.89</ele>
        <time>2020-02-04T13:23:00Z</time>
      </trkpt>
      <trkpt lat="46.19777" lon="6.57729">
        <ele>1482.97</ele>
        <time>2020-02-04T13:23:14Z</time>
      </trkpt>
      <trkpt lat="46.19786" lon="6.57735">
        <ele>1481.05</ele>
        <time>2020-02-04T13:23:28Z</time>
      </trkpt>
      <trkpt lat="46.19793" lon="6.57741">
        <ele>1478.65</ele>
        <time>2020-02-04T13:23:40Z</time>
      </trkpt>
      <trkpt lat="46.19795" lon="6.57749">
        <ele>1476.72</ele>
        <time>2020-02-04T13:23:54Z</time>
      </trkpt>
      <trkpt lat="46.19794" lon="6.57759">
        <ele>1474.32</ele>
        <time>2020-02-04T13:24:07Z</time>
      </trkpt>
      <trkpt lat="46.19797" lon="6.57774">
        <ele>1471.92</ele>
        <time>2020-02-04T13:24:22Z</time>
      </trkpt>
      <trkpt lat="46.19805" lon="6.57779">
        <ele>1468.55</ele>
        <time>2020-02-04T13:24:37Z</time>
      </trkpt>
      <trkpt lat="46.19808" lon="6.57786">
        <ele>1466.63</ele>
        <time>2020-02-04T13:24:49Z</time>
      </trkpt>
      <trkpt lat="46.19804" lon="6.57794">
        <ele>1463.74</ele>
        <time>2020-02-04T13:25:01Z</time>
      </trkpt>
      <trkpt lat="46.19797" lon="6.578">
        <ele>1461.82</ele>
        <time>2020-02-04T13:25:14Z</time>
      </trkpt>
      <trkpt lat="46.19793" lon="6.57802">
        <ele>1460.86</ele>
        <time>2020-02-04T13:25:19Z</time>
      </trkpt>
      <trkpt lat="46.19782" lon="6.57805">
        <ele>1458.46</ele>
        <time>2020-02-04T13:25:30Z</time>
      </trkpt>
      <trkpt lat="46.19774" lon="6.57812">
        <ele>1456.05</ele>
        <time>2020-02-04T13:25:43Z</time>
      </trkpt>
      <trkpt lat="46.19771" lon="6.57819">
        <ele>1453.65</ele>
        <time>2020-02-04T13:25:55Z</time>
      </trkpt>
      <trkpt lat="46.19771" lon="6.57829">
        <ele>1451.25</ele>
        <time>2020-02-04T13:26:10Z</time>
      </trkpt>
      <trkpt lat="46.19775" lon="6.57831">
        <ele>1448.36</ele>
        <time>2020-02-04T13:26:22Z</time>
      </trkpt>
      <trkpt lat="46.19782" lon="6.57844">
        <ele>1446.44</ele>
        <time>2020-02-04T13:26:34Z</time>
      </trkpt>
      <trkpt lat="46.19785" lon="6.5785">
        <ele>1443.56</ele>
        <time>2020-02-04T13:26:45Z</time>
      </trkpt>
      <trkpt lat="46.1979" lon="6.57856">
        <ele>1441.15</ele>
        <time>2020-02-04T13:26:59Z</time>
      </trkpt>
      <trkpt lat="46.19806" lon="6.57866">
        <ele>1438.27</ele>
        <time>2020-02-04T13:27:16Z</time>
      </trkpt>
      <trkpt lat="46.19813" lon="6.57872">
        <ele>1435.39</ele>
        <time>2020-02-04T13:27:27Z</time>
      </trkpt>
      <trkpt lat="46.19818" lon="6.57874">
        <ele>1432.98</ele>
        <time>2020-02-04T13:27:39Z</time>
      </trkpt>
      <trkpt lat="46.19822" lon="6.57879">
        <ele>1432.02</ele>
        <time>2020-02-04T13:27:46Z</time>
      </trkpt>
      <trkpt lat="46.19826" lon="6.57883">
        <ele>1432.02</ele>
        <time>2020-02-04T13:27:49Z</time>
      </trkpt>
      <trkpt lat="46.19832" lon="6.5789">
        <ele>1430.58</ele>
        <time>2020-02-04T13:27:59Z</time>
      </trkpt>
      <trkpt lat="46.19843" lon="6.57893">
        <ele>1428.18</ele>
        <time>2020-02-04T13:28:12Z</time>
      </trkpt>
      <trkpt lat="46.19854" lon="6.57892">
        <ele>1426.25</ele>
        <time>2020-02-04T13:28:26Z</time>
      </trkpt>
      <trkpt lat="46.19859" lon="6.5789">
        <ele>1423.85</ele>
        <time>2020-02-04T13:28:37Z</time>
      </trkpt>
      <trkpt lat="46.19865" lon="6.57885">
        <ele>1420.97</ele>
        <time>2020-02-04T13:28:52Z</time>
      </trkpt>
      <trkpt lat="46.19876" lon="6.57884">
        <ele>1418.08</ele>
        <time>2020-02-04T13:29:03Z</time>
      </trkpt>
      <trkpt lat="46.19885" lon="6.57889">
        <ele>1415.68</ele>
        <time>2020-02-04T13:29:16Z</time>
      </trkpt>
      <trkpt lat="46.19893" lon="6.57891">
        <ele>1413.76</ele>
        <time>2020-02-04T13:29:30Z</time>
      </trkpt>
      <trkpt lat="46.19899" lon="6.57889">
        <ele>1412.31</ele>
        <time>2020-02-04T13:29:38Z</time>
      </trkpt>
      <trkpt lat="46.19906" lon="6.5789">
        <ele>1409.43</ele>
        <time>2020-02-04T13:29:51Z</time>
      </trkpt>
      <trkpt lat="46.19915" lon="6.57895">
        <ele>1407.03</ele>
        <time>2020-02-04T13:30:05Z</time>
      </trkpt>
      <trkpt lat="46.19922" lon="6.57902">
        <ele>1403.66</ele>
        <time>2020-02-04T13:30:17Z</time>
      </trkpt>
      <trkpt lat="46.19932" lon="6.5791">
        <ele>1402.22</ele>
        <time>2020-02-04T13:30:30Z</time>
      </trkpt>
      <trkpt lat="46.19935" lon="6.5791">
        <ele>1401.26</ele>
        <time>2020-02-04T13:30:50Z</time>
      </trkpt>
      <trkpt lat="46.19937" lon="6.5791">
        <ele>1399.34</ele>
        <time>2020-02-04T13:31:08Z</time>
      </trkpt>
      <trkpt lat="46.1994" lon="6.57909">
        <ele>1399.82</ele>
        <time>2020-02-04T13:31:21Z</time>
      </trkpt>
      <trkpt lat="46.19943" lon="6.57912">
        <ele>1398.86</ele>
        <time>2020-02-04T13:31:37Z</time>
      </trkpt>
      <trkpt lat="46.19945" lon="6.5791">
        <ele>1398.37</ele>
        <time>2020-02-04T13:31:51Z</time>
      </trkpt>
      <trkpt lat="46.19948" lon="6.57906">
        <ele>1397.89</ele>
        <time>2020-02-04T13:32:06Z</time>
      </trkpt>
      <trkpt lat="46.19952" lon="6.57904">
        <ele>1396.93</ele>
        <time>2020-02-04T13:32:18Z</time>
      </trkpt>
      <trkpt lat="46.19952" lon="6.57904">
        <ele>1396.93</ele>
        <time>2020-02-04T13:33:01Z</time>
      </trkpt>
      <trkpt lat="46.19953" lon="6.57905">
        <ele>1395.97</ele>
        <time>2020-02-04T13:33:44Z</time>
      </trkpt>
      <trkpt lat="46.19952" lon="6.57906">
        <ele>1396.45</ele>
        <time>2020-02-04T13:34:36Z</time>
      </trkpt>
      <trkpt lat="46.19952" lon="6.57907">
        <ele>1395.97</ele>
        <time>2020-02-04T13:35:50Z</time>
      </trkpt>
      <trkpt lat="46.19953" lon="6.57907">
        <ele>1395.01</ele>
        <time>2020-02-04T13:36:20Z</time>
      </trkpt>
      <trkpt lat="46.1996" lon="6.57916">
        <ele>1394.05</ele>
        <time>2020-02-04T13:36:34Z</time>
      </trkpt>
      <trkpt lat="46.19961" lon="6.57917">
        <ele>1394.05</ele>
        <time>2020-02-04T13:36:35Z</time>
      </trkpt>
      <trkpt lat="46.19961" lon="6.57927">
        <ele>1392.13</ele>
        <time>2020-02-04T13:36:48Z</time>
      </trkpt>
      <trkpt lat="46.19953" lon="6.57933">
        <ele>1391.17</ele>
        <time>2020-02-04T13:37:04Z</time>
      </trkpt>
      <trkpt lat="46.19945" lon="6.57938">
        <ele>1389.24</ele>
        <time>2020-02-04T13:37:16Z</time>
      </trkpt>
      <trkpt lat="46.19935" lon="6.57942">
        <ele>1388.28</ele>
        <time>2020-02-04T13:37:29Z</time>
      </trkpt>
      <trkpt lat="46.19921" lon="6.57947">
        <ele>1386.84</ele>
        <time>2020-02-04T13:37:44Z</time>
      </trkpt>
      <trkpt lat="46.19918" lon="6.5795">
        <ele>1386.36</ele>
        <time>2020-02-04T13:37:59Z</time>
      </trkpt>
      <trkpt lat="46.19908" lon="6.57951">
        <ele>1385.88</ele>
        <time>2020-02-04T13:38:10Z</time>
      </trkpt>
      <trkpt lat="46.199" lon="6.57953">
        <ele>1385.88</ele>
        <time>2020-02-04T13:38:20Z</time>
      </trkpt>
      <trkpt lat="46.19897" lon="6.57954">
        <ele>1385.88</ele>
        <time>2020-02-04T13:38:23Z</time>
      </trkpt>
      <trkpt lat="46.19894" lon="6.57956">
        <ele>1386.36</ele>
        <time>2020-02-04T13:38:26Z</time>
      </trkpt>
      <trkpt lat="46.19887" lon="6.5796">
        <ele>1385.4</ele>
        <time>2020-02-04T13:38:33Z</time>
      </trkpt>
      <trkpt lat="46.19885" lon="6.57962">
        <ele>1385.88</ele>
        <time>2020-02-04T13:38:35Z</time>
      </trkpt>
      <trkpt lat="46.1988" lon="6.57965">
        <ele>1386.36</ele>
        <time>2020-02-04T13:38:49Z</time>
      </trkpt>
      <trkpt lat="46.19874" lon="6.57969">
        <ele>1386.36</ele>
        <time>2020-02-04T13:39:02Z</time>
      </trkpt>
      <trkpt lat="46.19874" lon="6.57969">
        <ele>1386.84</ele>
        <time>2020-02-04T13:39:16Z</time>
      </trkpt>
      <trkpt lat="46.19874" lon="6.57968">
        <ele>1385.88</ele>
        <time>2020-02-04T13:39:46Z</time>
      </trkpt>
      <trkpt lat="46.19872" lon="6.57969">
        <ele>1385.88</ele>
        <time>2020-02-04T13:40:29Z</time>
      </trkpt>
      <trkpt lat="46.19872" lon="6.57969">
        <ele>1385.4</ele>
        <time>2020-02-04T13:41:16Z</time>
      </trkpt>
      <trkpt lat="46.1986" lon="6.57981">
        <ele>1386.84</ele>
        <time>2020-02-04T13:41:29Z</time>
      </trkpt>
      <trkpt lat="46.19849" lon="6.57992">
        <ele>1387.8</ele>
        <time>2020-02-04T13:41:42Z</time>
      </trkpt>
      <trkpt lat="46.19841" lon="6.58">
        <ele>1389.24</ele>
        <time>2020-02-04T13:41:53Z</time>
      </trkpt>
      <trkpt lat="46.19838" lon="6.58004">
        <ele>1389.24</ele>
        <time>2020-02-04T13:41:57Z</time>
      </trkpt>
      <trkpt lat="46.19827" lon="6.58017">
        <ele>1390.2</ele>
        <time>2020-02-04T13:42:11Z</time>
      </trkpt>
      <trkpt lat="46.19816" lon="6.58028">
        <ele>1391.17</ele>
        <time>2020-02-04T13:42:24Z</time>
      </trkpt>
      <trkpt lat="46.1981" lon="6.58031">
        <ele>1391.17</ele>
        <time>2020-02-04T13:42:32Z</time>
      </trkpt>
      <trkpt lat="46.19806" lon="6.58035">
        <ele>1391.17</ele>
        <time>2020-02-04T13:42:36Z</time>
      </trkpt>
      <trkpt lat="46.19797" lon="6.58046">
        <ele>1391.65</ele>
        <time>2020-02-04T13:42:45Z</time>
      </trkpt>
      <trkpt lat="46.19795" lon="6.58049">
        <ele>1392.61</ele>
        <time>2020-02-04T13:42:48Z</time>
      </trkpt>
      <trkpt lat="46.19791" lon="6.5806">
        <ele>1392.61</ele>
        <time>2020-02-04T13:42:56Z</time>
      </trkpt>
      <trkpt lat="46.19791" lon="6.58063">
        <ele>1392.61</ele>
        <time>2020-02-04T13:42:58Z</time>
      </trkpt>
      <trkpt lat="46.19787" lon="6.58077">
        <ele>1392.13</ele>
        <time>2020-02-04T13:43:07Z</time>
      </trkpt>
      <trkpt lat="46.19786" lon="6.58092">
        <ele>1392.61</ele>
        <time>2020-02-04T13:43:17Z</time>
      </trkpt>
      <trkpt lat="46.19786" lon="6.58095">
        <ele>1392.61</ele>
        <time>2020-02-04T13:43:19Z</time>
      </trkpt>
      <trkpt lat="46.19783" lon="6.58108">
        <ele>1393.09</ele>
        <time>2020-02-04T13:43:28Z</time>
      </trkpt>
      <trkpt lat="46.1978" lon="6.58119">
        <ele>1392.61</ele>
        <time>2020-02-04T13:43:39Z</time>
      </trkpt>
      <trkpt lat="46.19779" lon="6.58121">
        <ele>1393.09</ele>
        <time>2020-02-04T13:44:23Z</time>
      </trkpt>
      <trkpt lat="46.19774" lon="6.58141">
        <ele>1394.05</ele>
        <time>2020-02-04T13:44:37Z</time>
      </trkpt>
      <trkpt lat="46.19777" lon="6.58155">
        <ele>1395.49</ele>
        <time>2020-02-04T13:44:50Z</time>
      </trkpt>
      <trkpt lat="46.1978" lon="6.58165">
        <ele>1395.49</ele>
        <time>2020-02-04T13:44:59Z</time>
      </trkpt>
      <trkpt lat="46.19781" lon="6.58175">
        <ele>1396.93</ele>
        <time>2020-02-04T13:45:09Z</time>
      </trkpt>
      <trkpt lat="46.19781" lon="6.5819">
        <ele>1397.41</ele>
        <time>2020-02-04T13:45:22Z</time>
      </trkpt>
      <trkpt lat="46.19784" lon="6.58204">
        <ele>1397.89</ele>
        <time>2020-02-04T13:45:34Z</time>
      </trkpt>
      <trkpt lat="46.19787" lon="6.58218">
        <ele>1397.89</ele>
        <time>2020-02-04T13:45:45Z</time>
      </trkpt>
      <trkpt lat="46.19788" lon="6.58221">
        <ele>1397.89</ele>
        <time>2020-02-04T13:45:47Z</time>
      </trkpt>
      <trkpt lat="46.19788" lon="6.58241">
        <ele>1398.86</ele>
        <time>2020-02-04T13:46:02Z</time>
      </trkpt>
      <trkpt lat="46.19789" lon="6.58254">
        <ele>1398.86</ele>
        <time>2020-02-04T13:46:14Z</time>
      </trkpt>
      <trkpt lat="46.1979" lon="6.5827">
        <ele>1398.86</ele>
        <time>2020-02-04T13:46:26Z</time>
      </trkpt>
      <trkpt lat="46.1979" lon="6.58287">
        <ele>1398.86</ele>
        <time>2020-02-04T13:46:39Z</time>
      </trkpt>
      <trkpt lat="46.19791" lon="6.58301">
        <ele>1399.34</ele>
        <time>2020-02-04T13:46:51Z</time>
      </trkpt>
      <trkpt lat="46.1979" lon="6.58318">
        <ele>1398.37</ele>
        <time>2020-02-04T13:47:06Z</time>
      </trkpt>
      <trkpt lat="46.19788" lon="6.58335">
        <ele>1397.41</ele>
        <time>2020-02-04T13:47:19Z</time>
      </trkpt>
      <trkpt lat="46.19786" lon="6.58354">
        <ele>1395.97</ele>
        <time>2020-02-04T13:47:34Z</time>
      </trkpt>
      <trkpt lat="46.19785" lon="6.58356">
        <ele>1395.49</ele>
        <time>2020-02-04T13:47:36Z</time>
      </trkpt>
      <trkpt lat="46.19786" lon="6.58372">
        <ele>1394.53</ele>
        <time>2020-02-04T13:47:51Z</time>
      </trkpt>
      <trkpt lat="46.19787" lon="6.58376">
        <ele>1394.05</ele>
        <time>2020-02-04T13:47:55Z</time>
      </trkpt>
      <trkpt lat="46.19788" lon="6.58392">
        <ele>1392.61</ele>
        <time>2020-02-04T13:48:09Z</time>
      </trkpt>
      <trkpt lat="46.19787" lon="6.58408">
        <ele>1391.65</ele>
        <time>2020-02-04T13:48:23Z</time>
      </trkpt>
      <trkpt lat="46.19787" lon="6.5842">
        <ele>1390.68</ele>
        <time>2020-02-04T13:48:34Z</time>
      </trkpt>
      <trkpt lat="46.19786" lon="6.58436">
        <ele>1388.76</ele>
        <time>2020-02-04T13:48:48Z</time>
      </trkpt>
      <trkpt lat="46.19782" lon="6.58452">
        <ele>1386.36</ele>
        <time>2020-02-04T13:49:02Z</time>
      </trkpt>
      <trkpt lat="46.19782" lon="6.58471">
        <ele>1385.4</ele>
        <time>2020-02-04T13:49:17Z</time>
      </trkpt>
      <trkpt lat="46.19783" lon="6.58479">
        <ele>1384.44</ele>
        <time>2020-02-04T13:49:22Z</time>
      </trkpt>
      <trkpt lat="46.19784" lon="6.58483">
        <ele>1383.96</ele>
        <time>2020-02-04T13:49:25Z</time>
      </trkpt>
      <trkpt lat="46.19785" lon="6.58497">
        <ele>1383.96</ele>
        <time>2020-02-04T13:49:36Z</time>
      </trkpt>
      <trkpt lat="46.19789" lon="6.58518">
        <ele>1381.55</ele>
        <time>2020-02-04T13:49:51Z</time>
      </trkpt>
      <trkpt lat="46.19789" lon="6.58527">
        <ele>1380.59</ele>
        <time>2020-02-04T13:50:05Z</time>
      </trkpt>
      <trkpt lat="46.19791" lon="6.58541">
        <ele>1380.11</ele>
        <time>2020-02-04T13:50:15Z</time>
      </trkpt>
      <trkpt lat="46.19794" lon="6.58557">
        <ele>1378.67</ele>
        <time>2020-02-04T13:50:26Z</time>
      </trkpt>
      <trkpt lat="46.19794" lon="6.5856">
        <ele>1378.67</ele>
        <time>2020-02-04T13:50:29Z</time>
      </trkpt>
      <trkpt lat="46.19787" lon="6.58572">
        <ele>1377.71</ele>
        <time>2020-02-04T13:50:41Z</time>
      </trkpt>
      <trkpt lat="46.19782" lon="6.58577">
        <ele>1376.75</ele>
        <time>2020-02-04T13:50:46Z</time>
      </trkpt>
      <trkpt lat="46.19778" lon="6.58577">
        <ele>1376.75</ele>
        <time>2020-02-04T13:50:50Z</time>
      </trkpt>
      <trkpt lat="46.19771" lon="6.58576">
        <ele>1376.26</ele>
        <time>2020-02-04T13:50:56Z</time>
      </trkpt>
      <trkpt lat="46.19756" lon="6.58573">
        <ele>1373.38</ele>
        <time>2020-02-04T13:51:11Z</time>
      </trkpt>
      <trkpt lat="46.19743" lon="6.58573">
        <ele>1371.94</ele>
        <time>2020-02-04T13:51:26Z</time>
      </trkpt>
      <trkpt lat="46.19734" lon="6.58573">
        <ele>1370.98</ele>
        <time>2020-02-04T13:51:37Z</time>
      </trkpt>
      <trkpt lat="46.1972" lon="6.58574">
        <ele>1369.54</ele>
        <time>2020-02-04T13:51:52Z</time>
      </trkpt>
      <trkpt lat="46.19709" lon="6.58572">
        <ele>1367.13</ele>
        <time>2020-02-04T13:52:06Z</time>
      </trkpt>
      <trkpt lat="46.19702" lon="6.58569">
        <ele>1366.65</ele>
        <time>2020-02-04T13:52:16Z</time>
      </trkpt>
      <trkpt lat="46.19695" lon="6.58562">
        <ele>1365.69</ele>
        <time>2020-02-04T13:52:27Z</time>
      </trkpt>
      <trkpt lat="46.19684" lon="6.58553">
        <ele>1364.73</ele>
        <time>2020-02-04T13:52:40Z</time>
      </trkpt>
      <trkpt lat="46.19674" lon="6.58544">
        <ele>1362.81</ele>
        <time>2020-02-04T13:52:54Z</time>
      </trkpt>
      <trkpt lat="46.19665" lon="6.58536">
        <ele>1361.36</ele>
        <time>2020-02-04T13:53:06Z</time>
      </trkpt>
      <trkpt lat="46.19652" lon="6.5853">
        <ele>1359.92</ele>
        <time>2020-02-04T13:53:21Z</time>
      </trkpt>
      <trkpt lat="46.19651" lon="6.5853">
        <ele>1359.44</ele>
        <time>2020-02-04T13:53:23Z</time>
      </trkpt>
      <trkpt lat="46.19643" lon="6.5853">
        <ele>1359.44</ele>
        <time>2020-02-04T13:53:34Z</time>
      </trkpt>
      <trkpt lat="46.19642" lon="6.5853">
        <ele>1358.96</ele>
        <time>2020-02-04T13:53:35Z</time>
      </trkpt>
      <trkpt lat="46.19635" lon="6.5854">
        <ele>1358.48</ele>
        <time>2020-02-04T13:53:50Z</time>
      </trkpt>
      <trkpt lat="46.19629" lon="6.58547">
        <ele>1356.56</ele>
        <time>2020-02-04T13:54:02Z</time>
      </trkpt>
      <trkpt lat="46.19628" lon="6.58547">
        <ele>1357.04</ele>
        <time>2020-02-04T13:54:19Z</time>
      </trkpt>
      <trkpt lat="46.19627" lon="6.58548">
        <ele>1356.56</ele>
        <time>2020-02-04T13:54:34Z</time>
      </trkpt>
      <trkpt lat="46.19626" lon="6.58549">
        <ele>1356.56</ele>
        <time>2020-02-04T13:55:46Z</time>
      </trkpt>
      <trkpt lat="46.19626" lon="6.58549">
        <ele>1357.52</ele>
        <time>2020-02-04T13:57:41Z</time>
      </trkpt>
      <trkpt lat="46.19622" lon="6.58553">
        <ele>1356.56</ele>
        <time>2020-02-04T13:58:26Z</time>
      </trkpt>
      <trkpt lat="46.19617" lon="6.58558">
        <ele>1356.56</ele>
        <time>2020-02-04T13:58:39Z</time>
      </trkpt>
      <trkpt lat="46.1961" lon="6.58567">
        <ele>1355.6</ele>
        <time>2020-02-04T13:58:52Z</time>
      </trkpt>
      <trkpt lat="46.19602" lon="6.58572">
        <ele>1354.15</ele>
        <time>2020-02-04T13:59:03Z</time>
      </trkpt>
      <trkpt lat="46.19595" lon="6.58578">
        <ele>1353.19</ele>
        <time>2020-02-04T13:59:14Z</time>
      </trkpt>
      <trkpt lat="46.19592" lon="6.5858">
        <ele>1351.75</ele>
        <time>2020-02-04T13:59:27Z</time>
      </trkpt>
      <trkpt lat="46.19588" lon="6.58599">
        <ele>1350.31</ele>
        <time>2020-02-04T13:59:41Z</time>
      </trkpt>
      <trkpt lat="46.1959" lon="6.58618">
        <ele>1347.91</ele>
        <time>2020-02-04T13:59:56Z</time>
      </trkpt>
      <trkpt lat="46.19594" lon="6.58628">
        <ele>1346.94</ele>
        <time>2020-02-04T14:00:06Z</time>
      </trkpt>
      <trkpt lat="46.19599" lon="6.58643">
        <ele>1345.98</ele>
        <time>2020-02-04T14:00:19Z</time>
      </trkpt>
      <trkpt lat="46.19603" lon="6.58654">
        <ele>1344.54</ele>
        <time>2020-02-04T14:00:31Z</time>
      </trkpt>
      <trkpt lat="46.19609" lon="6.58663">
        <ele>1343.58</ele>
        <time>2020-02-04T14:00:41Z</time>
      </trkpt>
      <trkpt lat="46.19621" lon="6.58669">
        <ele>1342.62</ele>
        <time>2020-02-04T14:00:55Z</time>
      </trkpt>
      <trkpt lat="46.19628" lon="6.58679">
        <ele>1341.66</ele>
        <time>2020-02-04T14:01:07Z</time>
      </trkpt>
      <trkpt lat="46.19631" lon="6.58684">
        <ele>1341.18</ele>
        <time>2020-02-04T14:01:13Z</time>
      </trkpt>
      <trkpt lat="46.19633" lon="6.58694">
        <ele>1340.7</ele>
        <time>2020-02-04T14:01:20Z</time>
      </trkpt>
      <trkpt lat="46.19633" lon="6.58698">
        <ele>1340.7</ele>
        <time>2020-02-04T14:01:23Z</time>
      </trkpt>
      <trkpt lat="46.19634" lon="6.58702">
        <ele>1339.73</ele>
        <time>2020-02-04T14:01:26Z</time>
      </trkpt>
      <trkpt lat="46.19635" lon="6.58705">
        <ele>1339.73</ele>
        <time>2020-02-04T14:01:29Z</time>
      </trkpt>
      <trkpt lat="46.19639" lon="6.58721">
        <ele>1338.29</ele>
        <time>2020-02-04T14:01:42Z</time>
      </trkpt>
      <trkpt lat="46.19641" lon="6.58726">
        <ele>1338.77</ele>
        <time>2020-02-04T14:01:46Z</time>
      </trkpt>
      <trkpt lat="46.19644" lon="6.58737">
        <ele>1337.33</ele>
        <time>2020-02-04T14:01:58Z</time>
      </trkpt>
      <trkpt lat="46.19645" lon="6.58738">
        <ele>1337.33</ele>
        <time>2020-02-04T14:02:00Z</time>
      </trkpt>
      <trkpt lat="46.19648" lon="6.58745">
        <ele>1336.85</ele>
        <time>2020-02-04T14:02:06Z</time>
      </trkpt>
      <trkpt lat="46.19652" lon="6.58753">
        <ele>1336.37</ele>
        <time>2020-02-04T14:02:13Z</time>
      </trkpt>
      <trkpt lat="46.19658" lon="6.58762">
        <ele>1335.89</ele>
        <time>2020-02-04T14:02:21Z</time>
      </trkpt>
      <trkpt lat="46.19666" lon="6.58771">
        <ele>1334.93</ele>
        <time>2020-02-04T14:02:33Z</time>
      </trkpt>
      <trkpt lat="46.19674" lon="6.58778">
        <ele>1334.45</ele>
        <time>2020-02-04T14:02:46Z</time>
      </trkpt>
      <trkpt lat="46.19678" lon="6.58791">
        <ele>1333.01</ele>
        <time>2020-02-04T14:02:58Z</time>
      </trkpt>
      <trkpt lat="46.1968" lon="6.58801">
        <ele>1332.52</ele>
        <time>2020-02-04T14:03:10Z</time>
      </trkpt>
      <trkpt lat="46.19681" lon="6.58802">
        <ele>1332.52</ele>
        <time>2020-02-04T14:03:26Z</time>
      </trkpt>
      <trkpt lat="46.19681" lon="6.58805">
        <ele>1332.04</ele>
        <time>2020-02-04T14:03:40Z</time>
      </trkpt>
      <trkpt lat="46.19681" lon="6.5881">
        <ele>1332.04</ele>
        <time>2020-02-04T14:03:57Z</time>
      </trkpt>
      <trkpt lat="46.19686" lon="6.58827">
        <ele>1331.08</ele>
        <time>2020-02-04T14:04:13Z</time>
      </trkpt>
      <trkpt lat="46.19687" lon="6.58828">
        <ele>1331.08</ele>
        <time>2020-02-04T14:04:15Z</time>
      </trkpt>
      <trkpt lat="46.19689" lon="6.58828">
        <ele>1330.12</ele>
        <time>2020-02-04T14:04:17Z</time>
      </trkpt>
      <trkpt lat="46.19693" lon="6.58824">
        <ele>1329.64</ele>
        <time>2020-02-04T14:04:22Z</time>
      </trkpt>
      <trkpt lat="46.19693" lon="6.58808">
        <ele>1329.16</ele>
        <time>2020-02-04T14:04:34Z</time>
      </trkpt>
      <trkpt lat="46.19692" lon="6.58791">
        <ele>1328.2</ele>
        <time>2020-02-04T14:04:50Z</time>
      </trkpt>
      <trkpt lat="46.19693" lon="6.58775">
        <ele>1327.72</ele>
        <time>2020-02-04T14:05:02Z</time>
      </trkpt>
      <trkpt lat="46.19693" lon="6.58774">
        <ele>1327.72</ele>
        <time>2020-02-04T14:05:03Z</time>
      </trkpt>
      <trkpt lat="46.19693" lon="6.5877">
        <ele>1327.72</ele>
        <time>2020-02-04T14:05:06Z</time>
      </trkpt>
      <trkpt lat="46.19697" lon="6.58755">
        <ele>1325.8</ele>
        <time>2020-02-04T14:05:18Z</time>
      </trkpt>
      <trkpt lat="46.19702" lon="6.58736">
        <ele>1325.8</ele>
        <time>2020-02-04T14:05:31Z</time>
      </trkpt>
      <trkpt lat="46.19703" lon="6.58733">
        <ele>1324.35</ele>
        <time>2020-02-04T14:05:34Z</time>
      </trkpt>
      <trkpt lat="46.19711" lon="6.5873">
        <ele>1323.87</ele>
        <time>2020-02-04T14:05:46Z</time>
      </trkpt>
      <trkpt lat="46.19726" lon="6.58737">
        <ele>1322.91</ele>
        <time>2020-02-04T14:05:59Z</time>
      </trkpt>
      <trkpt lat="46.19738" lon="6.58744">
        <ele>1321.47</ele>
        <time>2020-02-04T14:06:11Z</time>
      </trkpt>
      <trkpt lat="46.19745" lon="6.58752">
        <ele>1320.51</ele>
        <time>2020-02-04T14:06:23Z</time>
      </trkpt>
      <trkpt lat="46.19752" lon="6.58763">
        <ele>1318.59</ele>
        <time>2020-02-04T14:06:36Z</time>
      </trkpt>
      <trkpt lat="46.19761" lon="6.58775">
        <ele>1318.1</ele>
        <time>2020-02-04T14:06:50Z</time>
      </trkpt>
      <trkpt lat="46.19767" lon="6.58781">
        <ele>1316.66</ele>
        <time>2020-02-04T14:07:04Z</time>
      </trkpt>
      <trkpt lat="46.19773" lon="6.58786">
        <ele>1315.22</ele>
        <time>2020-02-04T14:07:22Z</time>
      </trkpt>
      <trkpt lat="46.19779" lon="6.58792">
        <ele>1313.78</ele>
        <time>2020-02-04T14:07:31Z</time>
      </trkpt>
      <trkpt lat="46.19783" lon="6.58796">
        <ele>1312.82</ele>
        <time>2020-02-04T14:07:37Z</time>
      </trkpt>
      <trkpt lat="46.19785" lon="6.58798">
        <ele>1312.82</ele>
        <time>2020-02-04T14:07:39Z</time>
      </trkpt>
      <trkpt lat="46.19794" lon="6.5881">
        <ele>1311.38</ele>
        <time>2020-02-04T14:07:53Z</time>
      </trkpt>
      <trkpt lat="46.19802" lon="6.5882">
        <ele>1309.45</ele>
        <time>2020-02-04T14:08:05Z</time>
      </trkpt>
      <trkpt lat="46.19811" lon="6.58828">
        <ele>1307.53</ele>
        <time>2020-02-04T14:08:18Z</time>
      </trkpt>
      <trkpt lat="46.19819" lon="6.58835">
        <ele>1307.05</ele>
        <time>2020-02-04T14:08:33Z</time>
      </trkpt>
      <trkpt lat="46.19825" lon="6.5883">
        <ele>1304.65</ele>
        <time>2020-02-04T14:08:45Z</time>
      </trkpt>
      <trkpt lat="46.19832" lon="6.58819">
        <ele>1303.2</ele>
        <time>2020-02-04T14:08:59Z</time>
      </trkpt>
      <trkpt lat="46.19837" lon="6.58806">
        <ele>1301.76</ele>
        <time>2020-02-04T14:09:13Z</time>
      </trkpt>
      <trkpt lat="46.19842" lon="6.58797">
        <ele>1300.32</ele>
        <time>2020-02-04T14:09:24Z</time>
      </trkpt>
      <trkpt lat="46.19848" lon="6.58786">
        <ele>1298.4</ele>
        <time>2020-02-04T14:09:36Z</time>
      </trkpt>
      <trkpt lat="46.19851" lon="6.58781">
        <ele>1297.92</ele>
        <time>2020-02-04T14:09:41Z</time>
      </trkpt>
      <trkpt lat="46.19858" lon="6.58765">
        <ele>1296.48</ele>
        <time>2020-02-04T14:09:55Z</time>
      </trkpt>
      <trkpt lat="46.19865" lon="6.58752">
        <ele>1294.55</ele>
        <time>2020-02-04T14:10:10Z</time>
      </trkpt>
      <trkpt lat="46.19872" lon="6.58739">
        <ele>1293.11</ele>
        <time>2020-02-04T14:10:23Z</time>
      </trkpt>
      <trkpt lat="46.19878" lon="6.58727">
        <ele>1291.67</ele>
        <time>2020-02-04T14:10:37Z</time>
      </trkpt>
      <trkpt lat="46.19886" lon="6.58712">
        <ele>1289.75</ele>
        <time>2020-02-04T14:10:52Z</time>
      </trkpt>
      <trkpt lat="46.19894" lon="6.58698">
        <ele>1288.3</ele>
        <time>2020-02-04T14:11:07Z</time>
      </trkpt>
      <trkpt lat="46.19897" lon="6.58687">
        <ele>1285.9</ele>
        <time>2020-02-04T14:11:19Z</time>
      </trkpt>
      <trkpt lat="46.19901" lon="6.58674">
        <ele>1285.42</ele>
        <time>2020-02-04T14:11:32Z</time>
      </trkpt>
      <trkpt lat="46.19902" lon="6.58659">
        <ele>1283.5</ele>
        <time>2020-02-04T14:11:46Z</time>
      </trkpt>
      <trkpt lat="46.19905" lon="6.58641">
        <ele>1281.57</ele>
        <time>2020-02-04T14:12:01Z</time>
      </trkpt>
      <trkpt lat="46.19909" lon="6.58621">
        <ele>1280.13</ele>
        <time>2020-02-04T14:12:15Z</time>
      </trkpt>
      <trkpt lat="46.19911" lon="6.58607">
        <ele>1278.69</ele>
        <time>2020-02-04T14:12:28Z</time>
      </trkpt>
      <trkpt lat="46.19914" lon="6.58591">
        <ele>1276.29</ele>
        <time>2020-02-04T14:12:43Z</time>
      </trkpt>
      <trkpt lat="46.1992" lon="6.58574">
        <ele>1275.81</ele>
        <time>2020-02-04T14:12:56Z</time>
      </trkpt>
      <trkpt lat="46.19922" lon="6.58562">
        <ele>1274.36</ele>
        <time>2020-02-04T14:13:05Z</time>
      </trkpt>
      <trkpt lat="46.19929" lon="6.58546">
        <ele>1273.4</ele>
        <time>2020-02-04T14:13:20Z</time>
      </trkpt>
      <trkpt lat="46.19936" lon="6.58533">
        <ele>1272.92</ele>
        <time>2020-02-04T14:13:32Z</time>
      </trkpt>
      <trkpt lat="46.19944" lon="6.58521">
        <ele>1272.92</ele>
        <time>2020-02-04T14:13:44Z</time>
      </trkpt>
      <trkpt lat="46.1995" lon="6.5851">
        <ele>1271.96</ele>
        <time>2020-02-04T14:13:56Z</time>
      </trkpt>
      <trkpt lat="46.19957" lon="6.58502">
        <ele>1271</ele>
        <time>2020-02-04T14:14:09Z</time>
      </trkpt>
      <trkpt lat="46.19965" lon="6.58487">
        <ele>1270.52</ele>
        <time>2020-02-04T14:14:21Z</time>
      </trkpt>
      <trkpt lat="46.19965" lon="6.58487">
        <ele>1270.04</ele>
        <time>2020-02-04T14:14:22Z</time>
      </trkpt>
      <trkpt lat="46.19971" lon="6.58481">
        <ele>1270.04</ele>
        <time>2020-02-04T14:14:26Z</time>
      </trkpt>
      <trkpt lat="46.19985" lon="6.5847">
        <ele>1270.04</ele>
        <time>2020-02-04T14:14:39Z</time>
      </trkpt>
      <trkpt lat="46.19987" lon="6.58474">
        <ele>1269.56</ele>
        <time>2020-02-04T14:14:46Z</time>
      </trkpt>
      <trkpt lat="46.19991" lon="6.58476">
        <ele>1269.08</ele>
        <time>2020-02-04T14:14:51Z</time>
      </trkpt>
      <trkpt lat="46.19998" lon="6.58482">
        <ele>1269.08</ele>
        <time>2020-02-04T14:14:59Z</time>
      </trkpt>
      <trkpt lat="46.20002" lon="6.58487">
        <ele>1268.12</ele>
        <time>2020-02-04T14:15:03Z</time>
      </trkpt>
      <trkpt lat="46.20013" lon="6.58503">
        <ele>1267.64</ele>
        <time>2020-02-04T14:15:17Z</time>
      </trkpt>
      <trkpt lat="46.20017" lon="6.58515">
        <ele>1266.19</ele>
        <time>2020-02-04T14:15:29Z</time>
      </trkpt>
      <trkpt lat="46.20026" lon="6.58525">
        <ele>1265.23</ele>
        <time>2020-02-04T14:15:42Z</time>
      </trkpt>
      <trkpt lat="46.20034" lon="6.58529">
        <ele>1264.27</ele>
        <time>2020-02-04T14:15:55Z</time>
      </trkpt>
      <trkpt lat="46.20045" lon="6.5853">
        <ele>1263.31</ele>
        <time>2020-02-04T14:16:08Z</time>
      </trkpt>
      <trkpt lat="46.20052" lon="6.58541">
        <ele>1261.87</ele>
        <time>2020-02-04T14:16:22Z</time>
      </trkpt>
      <trkpt lat="46.20059" lon="6.58543">
        <ele>1260.43</ele>
        <time>2020-02-04T14:16:37Z</time>
      </trkpt>
      <trkpt lat="46.20065" lon="6.58541">
        <ele>1259.46</ele>
        <time>2020-02-04T14:16:49Z</time>
      </trkpt>
      <trkpt lat="46.2007" lon="6.58541">
        <ele>1258.5</ele>
        <time>2020-02-04T14:16:59Z</time>
      </trkpt>
      <trkpt lat="46.2008" lon="6.58537">
        <ele>1257.06</ele>
        <time>2020-02-04T14:17:11Z</time>
      </trkpt>
      <trkpt lat="46.2009" lon="6.58535">
        <ele>1256.1</ele>
        <time>2020-02-04T14:17:21Z</time>
      </trkpt>
      <trkpt lat="46.20101" lon="6.5853">
        <ele>1255.62</ele>
        <time>2020-02-04T14:17:34Z</time>
      </trkpt>
      <trkpt lat="46.20115" lon="6.58527">
        <ele>1254.18</ele>
        <time>2020-02-04T14:17:48Z</time>
      </trkpt>
      <trkpt lat="46.20127" lon="6.58519">
        <ele>1253.22</ele>
        <time>2020-02-04T14:18:04Z</time>
      </trkpt>
      <trkpt lat="46.20134" lon="6.58515">
        <ele>1251.77</ele>
        <time>2020-02-04T14:18:21Z</time>
      </trkpt>
      <trkpt lat="46.2015" lon="6.58509">
        <ele>1250.33</ele>
        <time>2020-02-04T14:18:34Z</time>
      </trkpt>
      <trkpt lat="46.20161" lon="6.58503">
        <ele>1249.85</ele>
        <time>2020-02-04T14:18:48Z</time>
      </trkpt>
      <trkpt lat="46.20168" lon="6.58499">
        <ele>1248.89</ele>
        <time>2020-02-04T14:19:01Z</time>
      </trkpt>
      <trkpt lat="46.20169" lon="6.58498">
        <ele>1249.37</ele>
        <time>2020-02-04T14:19:15Z</time>
      </trkpt>
      <trkpt lat="46.20169" lon="6.58498">
        <ele>1249.37</ele>
        <time>2020-02-04T14:19:34Z</time>
      </trkpt>
      <trkpt lat="46.20171" lon="6.585">
        <ele>1249.37</ele>
        <time>2020-02-04T14:20:16Z</time>
      </trkpt>
      <trkpt lat="46.20174" lon="6.58509">
        <ele>1248.41</ele>
        <time>2020-02-04T14:20:26Z</time>
      </trkpt>
      <trkpt lat="46.20165" lon="6.58519">
        <ele>1247.45</ele>
        <time>2020-02-04T14:20:38Z</time>
      </trkpt>
      <trkpt lat="46.20162" lon="6.58519">
        <ele>1247.45</ele>
        <time>2020-02-04T14:20:50Z</time>
      </trkpt>
      <trkpt lat="46.20163" lon="6.58519">
        <ele>1246.97</ele>
        <time>2020-02-04T14:21:42Z</time>
      </trkpt>
      <trkpt lat="46.20166" lon="6.58518">
        <ele>1247.93</ele>
        <time>2020-02-04T14:22:08Z</time>
      </trkpt>
      <trkpt lat="46.20173" lon="6.58512">
        <ele>1248.89</ele>
        <time>2020-02-04T14:22:19Z</time>
      </trkpt>
      <trkpt lat="46.20174" lon="6.5851">
        <ele>1249.37</ele>
        <time>2020-02-04T14:22:37Z</time>
      </trkpt>
      <trkpt lat="46.20174" lon="6.5851">
        <ele>1248.89</ele>
        <time>2020-02-04T14:24:40Z</time>
      </trkpt>
      <trkpt lat="46.20175" lon="6.5851">
        <ele>1249.37</ele>
        <time>2020-02-04T14:26:26Z</time>
      </trkpt>
      <trkpt lat="46.20175" lon="6.58509">
        <ele>1248.89</ele>
        <time>2020-02-04T14:27:29Z</time>
      </trkpt>
      <trkpt lat="46.20177" lon="6.58505">
        <ele>1247.45</ele>
        <time>2020-02-04T14:28:04Z</time>
      </trkpt>
      <trkpt lat="46.20178" lon="6.58504">
        <ele>1247.45</ele>
        <time>2020-02-04T14:28:05Z</time>
      </trkpt>
      <trkpt lat="46.20185" lon="6.58495">
        <ele>1246.97</ele>
        <time>2020-02-04T14:28:18Z</time>
      </trkpt>
      <trkpt lat="46.20187" lon="6.58493">
        <ele>1246.49</ele>
        <time>2020-02-04T14:28:21Z</time>
      </trkpt>
      <trkpt lat="46.20197" lon="6.5847">
        <ele>1245.04</ele>
        <time>2020-02-04T14:28:36Z</time>
      </trkpt>
      <trkpt lat="46.20205" lon="6.58457">
        <ele>1243.6</ele>
        <time>2020-02-04T14:28:49Z</time>
      </trkpt>
      <trkpt lat="46.20212" lon="6.58446">
        <ele>1243.6</ele>
        <time>2020-02-04T14:29:04Z</time>
      </trkpt>
      <trkpt lat="46.20221" lon="6.58439">
        <ele>1242.64</ele>
        <time>2020-02-04T14:29:17Z</time>
      </trkpt>
      <trkpt lat="46.20229" lon="6.58436">
        <ele>1242.64</ele>
        <time>2020-02-04T14:29:30Z</time>
      </trkpt>
      <trkpt lat="46.20237" lon="6.58434">
        <ele>1242.64</ele>
        <time>2020-02-04T14:29:42Z</time>
      </trkpt>
      <trkpt lat="46.20244" lon="6.58434">
        <ele>1242.16</ele>
        <time>2020-02-04T14:29:52Z</time>
      </trkpt>
      <trkpt lat="46.20249" lon="6.58432">
        <ele>1242.64</ele>
        <time>2020-02-04T14:30:02Z</time>
      </trkpt>
      <trkpt lat="46.20256" lon="6.58429">
        <ele>1242.64</ele>
        <time>2020-02-04T14:30:15Z</time>
      </trkpt>
      <trkpt lat="46.20263" lon="6.58425">
        <ele>1243.12</ele>
        <time>2020-02-04T14:30:28Z</time>
      </trkpt>
      <trkpt lat="46.20273" lon="6.58419">
        <ele>1242.16</ele>
        <time>2020-02-04T14:30:40Z</time>
      </trkpt>
      <trkpt lat="46.20291" lon="6.58402">
        <ele>1242.64</ele>
        <time>2020-02-04T14:30:54Z</time>
      </trkpt>
      <trkpt lat="46.20303" lon="6.58391">
        <ele>1242.64</ele>
        <time>2020-02-04T14:31:06Z</time>
      </trkpt>
      <trkpt lat="46.20311" lon="6.58384">
        <ele>1242.64</ele>
        <time>2020-02-04T14:31:18Z</time>
      </trkpt>
      <trkpt lat="46.20327" lon="6.58371">
        <ele>1243.12</ele>
        <time>2020-02-04T14:31:30Z</time>
      </trkpt>
      <trkpt lat="46.20346" lon="6.58355">
        <ele>1242.64</ele>
        <time>2020-02-04T14:31:46Z</time>
      </trkpt>
      <trkpt lat="46.20352" lon="6.58349">
        <ele>1242.16</ele>
        <time>2020-02-04T14:31:55Z</time>
      </trkpt>
      <trkpt lat="46.20368" lon="6.58342">
        <ele>1241.68</ele>
        <time>2020-02-04T14:32:10Z</time>
      </trkpt>
      <trkpt lat="46.20381" lon="6.58341">
        <ele>1240.72</ele>
        <time>2020-02-04T14:32:24Z</time>
      </trkpt>
      <trkpt lat="46.20388" lon="6.58335">
        <ele>1240.72</ele>
        <time>2020-02-04T14:32:36Z</time>
      </trkpt>
      <trkpt lat="46.20388" lon="6.58335">
        <ele>1241.2</ele>
        <time>2020-02-04T14:33:15Z</time>
      </trkpt>
      <trkpt lat="46.20389" lon="6.58335">
        <ele>1240.24</ele>
        <time>2020-02-04T14:34:01Z</time>
      </trkpt>
      <trkpt lat="46.20388" lon="6.58318">
        <ele>1239.76</ele>
        <time>2020-02-04T14:34:14Z</time>
      </trkpt>
      <trkpt lat="46.20384" lon="6.58306">
        <ele>1238.8</ele>
        <time>2020-02-04T14:34:28Z</time>
      </trkpt>
      <trkpt lat="46.20381" lon="6.58301">
        <ele>1237.35</ele>
        <time>2020-02-04T14:34:37Z</time>
      </trkpt>
      <trkpt lat="46.20369" lon="6.58293">
        <ele>1236.39</ele>
        <time>2020-02-04T14:34:51Z</time>
      </trkpt>
      <trkpt lat="46.2036" lon="6.58288">
        <ele>1233.99</ele>
        <time>2020-02-04T14:35:04Z</time>
      </trkpt>
      <trkpt lat="46.20355" lon="6.5828">
        <ele>1232.55</ele>
        <time>2020-02-04T14:35:14Z</time>
      </trkpt>
      <trkpt lat="46.2034" lon="6.58276">
        <ele>1230.62</ele>
        <time>2020-02-04T14:35:28Z</time>
      </trkpt>
      <trkpt lat="46.2033" lon="6.58265">
        <ele>1228.7</ele>
        <time>2020-02-04T14:35:40Z</time>
      </trkpt>
      <trkpt lat="46.20321" lon="6.58253">
        <ele>1227.74</ele>
        <time>2020-02-04T14:35:51Z</time>
      </trkpt>
      <trkpt lat="46.20317" lon="6.58234">
        <ele>1225.34</ele>
        <time>2020-02-04T14:36:06Z</time>
      </trkpt>
      <trkpt lat="46.20318" lon="6.5822">
        <ele>1224.86</ele>
        <time>2020-02-04T14:36:20Z</time>
      </trkpt>
      <trkpt lat="46.20322" lon="6.58212">
        <ele>1222.93</ele>
        <time>2020-02-04T14:36:33Z</time>
      </trkpt>
      <trkpt lat="46.20326" lon="6.58214">
        <ele>1223.42</ele>
        <time>2020-02-04T14:36:46Z</time>
      </trkpt>
      <trkpt lat="46.20329" lon="6.58218">
        <ele>1221.97</ele>
        <time>2020-02-04T14:36:58Z</time>
      </trkpt>
      <trkpt lat="46.20333" lon="6.58222">
        <ele>1221.49</ele>
        <time>2020-02-04T14:37:04Z</time>
      </trkpt>
      <trkpt lat="46.20342" lon="6.58225">
        <ele>1220.53</ele>
        <time>2020-02-04T14:37:17Z</time>
      </trkpt>
      <trkpt lat="46.20352" lon="6.58218">
        <ele>1218.61</ele>
        <time>2020-02-04T14:37:31Z</time>
      </trkpt>
      <trkpt lat="46.20362" lon="6.58211">
        <ele>1216.21</ele>
        <time>2020-02-04T14:37:45Z</time>
      </trkpt>
      <trkpt lat="46.20369" lon="6.58206">
        <ele>1214.28</ele>
        <time>2020-02-04T14:37:57Z</time>
      </trkpt>
      <trkpt lat="46.20373" lon="6.58203">
        <ele>1213.8</ele>
        <time>2020-02-04T14:38:10Z</time>
      </trkpt>
      <trkpt lat="46.20376" lon="6.58199">
        <ele>1212.36</ele>
        <time>2020-02-04T14:38:24Z</time>
      </trkpt>
      <trkpt lat="46.2038" lon="6.58197">
        <ele>1210.92</ele>
        <time>2020-02-04T14:38:36Z</time>
      </trkpt>
      <trkpt lat="46.2038" lon="6.58196">
        <ele>1210.92</ele>
        <time>2020-02-04T14:39:16Z</time>
      </trkpt>
      <trkpt lat="46.20387" lon="6.58209">
        <ele>1210.44</ele>
        <time>2020-02-04T14:39:35Z</time>
      </trkpt>
      <trkpt lat="46.2039" lon="6.58214">
        <ele>1209.48</ele>
        <time>2020-02-04T14:39:46Z</time>
      </trkpt>
      <trkpt lat="46.20392" lon="6.58222">
        <ele>1207.55</ele>
        <time>2020-02-04T14:39:55Z</time>
      </trkpt>
      <trkpt lat="46.20393" lon="6.58223">
        <ele>1207.07</ele>
        <time>2020-02-04T14:39:56Z</time>
      </trkpt>
      <trkpt lat="46.20397" lon="6.58226">
        <ele>1205.63</ele>
        <time>2020-02-04T14:40:01Z</time>
      </trkpt>
      <trkpt lat="46.20406" lon="6.58226">
        <ele>1203.71</ele>
        <time>2020-02-04T14:40:14Z</time>
      </trkpt>
      <trkpt lat="46.20412" lon="6.58224">
        <ele>1201.79</ele>
        <time>2020-02-04T14:40:25Z</time>
      </trkpt>
      <trkpt lat="46.2042" lon="6.58231">
        <ele>1200.34</ele>
        <time>2020-02-04T14:40:36Z</time>
      </trkpt>
      <trkpt lat="46.20429" lon="6.58233">
        <ele>1199.38</ele>
        <time>2020-02-04T14:40:48Z</time>
      </trkpt>
      <trkpt lat="46.2043" lon="6.58233">
        <ele>1198.42</ele>
        <time>2020-02-04T14:40:49Z</time>
      </trkpt>
      <trkpt lat="46.20435" lon="6.5823">
        <ele>1197.94</ele>
        <time>2020-02-04T14:40:52Z</time>
      </trkpt>
      <trkpt lat="46.20444" lon="6.58221">
        <ele>1195.06</ele>
        <time>2020-02-04T14:41:03Z</time>
      </trkpt>
      <trkpt lat="46.20454" lon="6.58208">
        <ele>1193.61</ele>
        <time>2020-02-04T14:41:17Z</time>
      </trkpt>
      <trkpt lat="46.20465" lon="6.58201">
        <ele>1191.21</ele>
        <time>2020-02-04T14:41:31Z</time>
      </trkpt>
      <trkpt lat="46.20471" lon="6.58195">
        <ele>1190.25</ele>
        <time>2020-02-04T14:41:39Z</time>
      </trkpt>
      <trkpt lat="46.2048" lon="6.58187">
        <ele>1188.33</ele>
        <time>2020-02-04T14:41:54Z</time>
      </trkpt>
      <trkpt lat="46.20484" lon="6.58182">
        <ele>1187.85</ele>
        <time>2020-02-04T14:42:09Z</time>
      </trkpt>
      <trkpt lat="46.20484" lon="6.58182">
        <ele>1187.85</ele>
        <time>2020-02-04T14:42:31Z</time>
      </trkpt>
      <trkpt lat="46.20483" lon="6.58177">
        <ele>1187.37</ele>
        <time>2020-02-04T14:42:47Z</time>
      </trkpt>
      <trkpt lat="46.20483" lon="6.58177">
        <ele>1187.85</ele>
        <time>2020-02-04T14:43:05Z</time>
      </trkpt>
      <trkpt lat="46.20483" lon="6.58176">
        <ele>1187.37</ele>
        <time>2020-02-04T14:43:44Z</time>
      </trkpt>
      <trkpt lat="46.20483" lon="6.58176">
        <ele>1187.85</ele>
        <time>2020-02-04T14:44:08Z</time>
      </trkpt>
      <trkpt lat="46.20483" lon="6.58179">
        <ele>1187.37</ele>
        <time>2020-02-04T14:44:25Z</time>
      </trkpt>
      <trkpt lat="46.20488" lon="6.58191">
        <ele>1187.85</ele>
        <time>2020-02-04T14:44:38Z</time>
      </trkpt>
      <trkpt lat="46.20492" lon="6.58195">
        <ele>1187.37</ele>
        <time>2020-02-04T14:44:45Z</time>
      </trkpt>
      <trkpt lat="46.20496" lon="6.58208">
        <ele>1186.88</ele>
        <time>2020-02-04T14:44:57Z</time>
      </trkpt>
      <trkpt lat="46.20498" lon="6.58215">
        <ele>1186.4</ele>
        <time>2020-02-04T14:45:09Z</time>
      </trkpt>
      <trkpt lat="46.20505" lon="6.58224">
        <ele>1185.44</ele>
        <time>2020-02-04T14:45:21Z</time>
      </trkpt>
      <trkpt lat="46.2051" lon="6.58233">
        <ele>1185.44</ele>
        <time>2020-02-04T14:45:33Z</time>
      </trkpt>
      <trkpt lat="46.20511" lon="6.58235">
        <ele>1185.92</ele>
        <time>2020-02-04T14:45:34Z</time>
      </trkpt>
      <trkpt lat="46.20516" lon="6.58243">
        <ele>1185.92</ele>
        <time>2020-02-04T14:45:46Z</time>
      </trkpt>
      <trkpt lat="46.20521" lon="6.58245">
        <ele>1184.96</ele>
        <time>2020-02-04T14:45:58Z</time>
      </trkpt>
      <trkpt lat="46.20524" lon="6.58244">
        <ele>1184.48</ele>
        <time>2020-02-04T14:46:02Z</time>
      </trkpt>
      <trkpt lat="46.20534" lon="6.58249">
        <ele>1182.08</ele>
        <time>2020-02-04T14:46:16Z</time>
      </trkpt>
      <trkpt lat="46.20537" lon="6.58245">
        <ele>1182.08</ele>
        <time>2020-02-04T14:46:21Z</time>
      </trkpt>
      <trkpt lat="46.20544" lon="6.58231">
        <ele>1180.64</ele>
        <time>2020-02-04T14:46:35Z</time>
      </trkpt>
      <trkpt lat="46.20547" lon="6.58221">
        <ele>1179.19</ele>
        <time>2020-02-04T14:46:46Z</time>
      </trkpt>
      <trkpt lat="46.20553" lon="6.58206">
        <ele>1177.27</ele>
        <time>2020-02-04T14:46:58Z</time>
      </trkpt>
      <trkpt lat="46.20559" lon="6.582">
        <ele>1177.27</ele>
        <time>2020-02-04T14:47:07Z</time>
      </trkpt>
      <trkpt lat="46.20567" lon="6.58193">
        <ele>1176.31</ele>
        <time>2020-02-04T14:47:19Z</time>
      </trkpt>
      <trkpt lat="46.20571" lon="6.58185">
        <ele>1175.35</ele>
        <time>2020-02-04T14:47:31Z</time>
      </trkpt>
      <trkpt lat="46.20569" lon="6.58178">
        <ele>1174.39</ele>
        <time>2020-02-04T14:47:43Z</time>
      </trkpt>
      <trkpt lat="46.20572" lon="6.58171">
        <ele>1174.39</ele>
        <time>2020-02-04T14:47:49Z</time>
      </trkpt>
      <trkpt lat="46.20581" lon="6.58157">
        <ele>1173.91</ele>
        <time>2020-02-04T14:48:02Z</time>
      </trkpt>
      <trkpt lat="46.20584" lon="6.58149">
        <ele>1172.95</ele>
        <time>2020-02-04T14:48:11Z</time>
      </trkpt>
      <trkpt lat="46.20588" lon="6.58146">
        <ele>1172.95</ele>
        <time>2020-02-04T14:48:19Z</time>
      </trkpt>
      <trkpt lat="46.20592" lon="6.58142">
        <ele>1172.47</ele>
        <time>2020-02-04T14:48:31Z</time>
      </trkpt>
      <trkpt lat="46.20592" lon="6.58141">
        <ele>1171.98</ele>
        <time>2020-02-04T14:48:46Z</time>
      </trkpt>
      <trkpt lat="46.20594" lon="6.58139">
        <ele>1171.5</ele>
        <time>2020-02-04T14:48:53Z</time>
      </trkpt>
      <trkpt lat="46.20595" lon="6.58135">
        <ele>1171.5</ele>
        <time>2020-02-04T14:49:07Z</time>
      </trkpt>
      <trkpt lat="46.20597" lon="6.5813">
        <ele>1170.54</ele>
        <time>2020-02-04T14:49:21Z</time>
      </trkpt>
      <trkpt lat="46.20596" lon="6.58126">
        <ele>1170.06</ele>
        <time>2020-02-04T14:49:33Z</time>
      </trkpt>
      <trkpt lat="46.206" lon="6.58119">
        <ele>1170.06</ele>
        <time>2020-02-04T14:49:50Z</time>
      </trkpt>
      <trkpt lat="46.20606" lon="6.58112">
        <ele>1170.54</ele>
        <time>2020-02-04T14:50:02Z</time>
      </trkpt>
      <trkpt lat="46.20608" lon="6.5811">
        <ele>1170.06</ele>
        <time>2020-02-04T14:50:06Z</time>
      </trkpt>
      <trkpt lat="46.20609" lon="6.58106">
        <ele>1169.58</ele>
        <time>2020-02-04T14:50:09Z</time>
      </trkpt>
      <trkpt lat="46.20616" lon="6.58092">
        <ele>1170.54</ele>
        <time>2020-02-04T14:50:22Z</time>
      </trkpt>
      <trkpt lat="46.2062" lon="6.58089">
        <ele>1170.06</ele>
        <time>2020-02-04T14:50:34Z</time>
      </trkpt>
      <trkpt lat="46.20623" lon="6.58083">
        <ele>1170.54</ele>
        <time>2020-02-04T14:50:43Z</time>
      </trkpt>
      <trkpt lat="46.20631" lon="6.58073">
        <ele>1171.5</ele>
        <time>2020-02-04T14:50:55Z</time>
      </trkpt>
      <trkpt lat="46.20637" lon="6.58067">
        <ele>1171.5</ele>
        <time>2020-02-04T14:51:05Z</time>
      </trkpt>
      <trkpt lat="46.20641" lon="6.58062">
        <ele>1171.98</ele>
        <time>2020-02-04T14:51:15Z</time>
      </trkpt>
      <trkpt lat="46.20643" lon="6.58054">
        <ele>1171.98</ele>
        <time>2020-02-04T14:51:28Z</time>
      </trkpt>
      <trkpt lat="46.20643" lon="6.58053">
        <ele>1171.98</ele>
        <time>2020-02-04T14:51:30Z</time>
      </trkpt>
      <trkpt lat="46.20645" lon="6.58046">
        <ele>1171.02</ele>
        <time>2020-02-04T14:51:41Z</time>
      </trkpt>
      <trkpt lat="46.20647" lon="6.58043">
        <ele>1169.1</ele>
        <time>2020-02-04T14:51:58Z</time>
      </trkpt>
      <trkpt lat="46.2065" lon="6.58038">
        <ele>1168.14</ele>
        <time>2020-02-04T14:52:19Z</time>
      </trkpt>
      <trkpt lat="46.20653" lon="6.58024">
        <ele>1168.14</ele>
        <time>2020-02-04T14:52:32Z</time>
      </trkpt>
      <trkpt lat="46.20656" lon="6.58014">
        <ele>1167.18</ele>
        <time>2020-02-04T14:52:43Z</time>
      </trkpt>
      <trkpt lat="46.20658" lon="6.57994">
        <ele>1167.18</ele>
        <time>2020-02-04T14:52:56Z</time>
      </trkpt>
      <trkpt lat="46.20657" lon="6.57983">
        <ele>1166.7</ele>
        <time>2020-02-04T14:53:07Z</time>
      </trkpt>
      <trkpt lat="46.20656" lon="6.57972">
        <ele>1166.22</ele>
        <time>2020-02-04T14:53:20Z</time>
      </trkpt>
      <trkpt lat="46.20655" lon="6.57966">
        <ele>1165.74</ele>
        <time>2020-02-04T14:53:38Z</time>
      </trkpt>
      <trkpt lat="46.20664" lon="6.57952">
        <ele>1167.18</ele>
        <time>2020-02-04T14:53:51Z</time>
      </trkpt>
      <trkpt lat="46.20662" lon="6.57941">
        <ele>1167.18</ele>
        <time>2020-02-04T14:54:03Z</time>
      </trkpt>
      <trkpt lat="46.20663" lon="6.57932">
        <ele>1168.62</ele>
        <time>2020-02-04T14:54:14Z</time>
      </trkpt>
      <trkpt lat="46.20664" lon="6.57931">
        <ele>1168.62</ele>
        <time>2020-02-04T14:54:30Z</time>
      </trkpt>
      <trkpt lat="46.20664" lon="6.5793">
        <ele>1168.14</ele>
        <time>2020-02-04T14:55:01Z</time>
      </trkpt>
      <trkpt lat="46.20666" lon="6.57928">
        <ele>1167.66</ele>
        <time>2020-02-04T14:55:28Z</time>
      </trkpt>
      <trkpt lat="46.20677" lon="6.57928">
        <ele>1165.26</ele>
        <time>2020-02-04T14:55:42Z</time>
      </trkpt>
      <trkpt lat="46.2068" lon="6.57928">
        <ele>1164.77</ele>
        <time>2020-02-04T14:55:45Z</time>
      </trkpt>
      <trkpt lat="46.20692" lon="6.57924">
        <ele>1162.85</ele>
        <time>2020-02-04T14:55:59Z</time>
      </trkpt>
      <trkpt lat="46.20702" lon="6.57918">
        <ele>1161.89</ele>
        <time>2020-02-04T14:56:11Z</time>
      </trkpt>
      <trkpt lat="46.20703" lon="6.57917">
        <ele>1161.41</ele>
        <time>2020-02-04T14:56:14Z</time>
      </trkpt>
      <trkpt lat="46.20713" lon="6.57907">
        <ele>1160.45</ele>
        <time>2020-02-04T14:56:28Z</time>
      </trkpt>
      <trkpt lat="46.20716" lon="6.57903">
        <ele>1159.97</ele>
        <time>2020-02-04T14:56:33Z</time>
      </trkpt>
      <trkpt lat="46.20724" lon="6.57889">
        <ele>1159.49</ele>
        <time>2020-02-04T14:56:47Z</time>
      </trkpt>
      <trkpt lat="46.20727" lon="6.57884">
        <ele>1158.53</ele>
        <time>2020-02-04T14:56:52Z</time>
      </trkpt>
      <trkpt lat="46.20734" lon="6.57875">
        <ele>1157.08</ele>
        <time>2020-02-04T14:57:02Z</time>
      </trkpt>
      <trkpt lat="46.20736" lon="6.57869">
        <ele>1156.6</ele>
        <time>2020-02-04T14:57:08Z</time>
      </trkpt>
      <trkpt lat="46.20738" lon="6.57866">
        <ele>1156.6</ele>
        <time>2020-02-04T14:57:11Z</time>
      </trkpt>
      <trkpt lat="46.2074" lon="6.57864">
        <ele>1156.6</ele>
        <time>2020-02-04T14:57:13Z</time>
      </trkpt>
      <trkpt lat="46.20743" lon="6.5786">
        <ele>1156.12</ele>
        <time>2020-02-04T14:57:28Z</time>
      </trkpt>
      <trkpt lat="46.20744" lon="6.57858">
        <ele>1156.12</ele>
        <time>2020-02-04T14:57:42Z</time>
      </trkpt>
      <trkpt lat="46.20751" lon="6.57846">
        <ele>1155.16</ele>
        <time>2020-02-04T14:57:53Z</time>
      </trkpt>
      <trkpt lat="46.20754" lon="6.57843">
        <ele>1154.68</ele>
        <time>2020-02-04T14:57:57Z</time>
      </trkpt>
      <trkpt lat="46.20757" lon="6.57838">
        <ele>1153.72</ele>
        <time>2020-02-04T14:58:01Z</time>
      </trkpt>
      <trkpt lat="46.20761" lon="6.57829">
        <ele>1152.76</ele>
        <time>2020-02-04T14:58:08Z</time>
      </trkpt>
      <trkpt lat="46.20764" lon="6.57821">
        <ele>1152.76</ele>
        <time>2020-02-04T14:58:14Z</time>
      </trkpt>
      <trkpt lat="46.2077" lon="6.57799">
        <ele>1151.32</ele>
        <time>2020-02-04T14:58:28Z</time>
      </trkpt>
      <trkpt lat="46.20773" lon="6.57793">
        <ele>1150.84</ele>
        <time>2020-02-04T14:58:32Z</time>
      </trkpt>
      <trkpt lat="46.20775" lon="6.57786">
        <ele>1149.87</ele>
        <time>2020-02-04T14:58:36Z</time>
      </trkpt>
      <trkpt lat="46.20777" lon="6.57782">
        <ele>1149.39</ele>
        <time>2020-02-04T14:58:39Z</time>
      </trkpt>
      <trkpt lat="46.20782" lon="6.5776">
        <ele>1147.95</ele>
        <time>2020-02-04T14:58:52Z</time>
      </trkpt>
      <trkpt lat="46.20783" lon="6.57753">
        <ele>1146.51</ele>
        <time>2020-02-04T14:58:57Z</time>
      </trkpt>
      <trkpt lat="46.20783" lon="6.57747">
        <ele>1146.99</ele>
        <time>2020-02-04T14:59:01Z</time>
      </trkpt>
      <trkpt lat="46.20783" lon="6.57744">
        <ele>1146.51</ele>
        <time>2020-02-04T14:59:03Z</time>
      </trkpt>
      <trkpt lat="46.20784" lon="6.57737">
        <ele>1146.03</ele>
        <time>2020-02-04T14:59:07Z</time>
      </trkpt>
      <trkpt lat="46.20783" lon="6.57716">
        <ele>1145.55</ele>
        <time>2020-02-04T14:59:21Z</time>
      </trkpt>
      <trkpt lat="46.20782" lon="6.57713">
        <ele>1146.03</ele>
        <time>2020-02-04T14:59:27Z</time>
      </trkpt>
      <trkpt lat="46.20782" lon="6.57698">
        <ele>1145.07</ele>
        <time>2020-02-04T14:59:36Z</time>
      </trkpt>
      <trkpt lat="46.20783" lon="6.57692">
        <ele>1144.11</ele>
        <time>2020-02-04T14:59:39Z</time>
      </trkpt>
      <trkpt lat="46.20783" lon="6.57673">
        <ele>1142.66</ele>
        <time>2020-02-04T14:59:51Z</time>
      </trkpt>
      <trkpt lat="46.20784" lon="6.57664">
        <ele>1142.18</ele>
        <time>2020-02-04T14:59:57Z</time>
      </trkpt>
      <trkpt lat="46.20784" lon="6.57661">
        <ele>1142.18</ele>
        <time>2020-02-04T15:00:00Z</time>
      </trkpt>
      <trkpt lat="46.20787" lon="6.57647">
        <ele>1140.26</ele>
        <time>2020-02-04T15:00:11Z</time>
      </trkpt>
      <trkpt lat="46.20786" lon="6.57633">
        <ele>1140.26</ele>
        <time>2020-02-04T15:00:24Z</time>
      </trkpt>
      <trkpt lat="46.20786" lon="6.57619">
        <ele>1139.3</ele>
        <time>2020-02-04T15:00:34Z</time>
      </trkpt>
      <trkpt lat="46.20788" lon="6.57614">
        <ele>1138.82</ele>
        <time>2020-02-04T15:00:38Z</time>
      </trkpt>
      <trkpt lat="46.20789" lon="6.57607">
        <ele>1138.34</ele>
        <time>2020-02-04T15:00:42Z</time>
      </trkpt>
      <trkpt lat="46.20794" lon="6.57599">
        <ele>1137.38</ele>
        <time>2020-02-04T15:00:48Z</time>
      </trkpt>
      <trkpt lat="46.208" lon="6.57593">
        <ele>1136.42</ele>
        <time>2020-02-04T15:00:56Z</time>
      </trkpt>
      <trkpt lat="46.20809" lon="6.57606">
        <ele>1135.45</ele>
        <time>2020-02-04T15:01:08Z</time>
      </trkpt>
      <trkpt lat="46.20813" lon="6.57616">
        <ele>1134.49</ele>
        <time>2020-02-04T15:01:15Z</time>
      </trkpt>
      <trkpt lat="46.20818" lon="6.57636">
        <ele>1132.57</ele>
        <time>2020-02-04T15:01:31Z</time>
      </trkpt>
      <trkpt lat="46.20824" lon="6.57649">
        <ele>1130.65</ele>
        <time>2020-02-04T15:01:43Z</time>
      </trkpt>
      <trkpt lat="46.20825" lon="6.57653">
        <ele>1130.65</ele>
        <time>2020-02-04T15:01:46Z</time>
      </trkpt>
      <trkpt lat="46.20835" lon="6.5767">
        <ele>1128.24</ele>
        <time>2020-02-04T15:02:01Z</time>
      </trkpt>
      <trkpt lat="46.20844" lon="6.57685">
        <ele>1126.8</ele>
        <time>2020-02-04T15:02:14Z</time>
      </trkpt>
      <trkpt lat="46.20846" lon="6.57693">
        <ele>1126.32</ele>
        <time>2020-02-04T15:02:19Z</time>
      </trkpt>
      <trkpt lat="46.20847" lon="6.57698">
        <ele>1125.84</ele>
        <time>2020-02-04T15:02:23Z</time>
      </trkpt>
      <trkpt lat="46.2085" lon="6.57702">
        <ele>1124.88</ele>
        <time>2020-02-04T15:02:27Z</time>
      </trkpt>
      <trkpt lat="46.20863" lon="6.57709">
        <ele>1122.48</ele>
        <time>2020-02-04T15:02:41Z</time>
      </trkpt>
      <trkpt lat="46.20871" lon="6.57702">
        <ele>1120.07</ele>
        <time>2020-02-04T15:02:56Z</time>
      </trkpt>
      <trkpt lat="46.20872" lon="6.577">
        <ele>1120.55</ele>
        <time>2020-02-04T15:04:05Z</time>
      </trkpt>
      <trkpt lat="46.20869" lon="6.5769">
        <ele>1120.07</ele>
        <time>2020-02-04T15:04:21Z</time>
      </trkpt>
      <trkpt lat="46.20862" lon="6.57678">
        <ele>1118.15</ele>
        <time>2020-02-04T15:04:32Z</time>
      </trkpt>
      <trkpt lat="46.20861" lon="6.57676">
        <ele>1117.67</ele>
        <time>2020-02-04T15:04:34Z</time>
      </trkpt>
      <trkpt lat="46.20849" lon="6.57657">
        <ele>1116.23</ele>
        <time>2020-02-04T15:04:49Z</time>
      </trkpt>
      <trkpt lat="46.20847" lon="6.57653">
        <ele>1116.23</ele>
        <time>2020-02-04T15:04:53Z</time>
      </trkpt>
      <trkpt lat="46.20847" lon="6.57646">
        <ele>1115.75</ele>
        <time>2020-02-04T15:04:57Z</time>
      </trkpt>
      <trkpt lat="46.20848" lon="6.57639">
        <ele>1115.27</ele>
        <time>2020-02-04T15:05:01Z</time>
      </trkpt>
      <trkpt lat="46.20852" lon="6.57628">
        <ele>1115.27</ele>
        <time>2020-02-04T15:05:10Z</time>
      </trkpt>
      <trkpt lat="46.20853" lon="6.57624">
        <ele>1115.27</ele>
        <time>2020-02-04T15:05:12Z</time>
      </trkpt>
      <trkpt lat="46.20855" lon="6.57621">
        <ele>1115.75</ele>
        <time>2020-02-04T15:05:15Z</time>
      </trkpt>
      <trkpt lat="46.2086" lon="6.57611">
        <ele>1115.75</ele>
        <time>2020-02-04T15:05:23Z</time>
      </trkpt>
      <trkpt lat="46.20862" lon="6.57607">
        <ele>1115.75</ele>
        <time>2020-02-04T15:05:26Z</time>
      </trkpt>
      <trkpt lat="46.20864" lon="6.57604">
        <ele>1115.27</ele>
        <time>2020-02-04T15:05:29Z</time>
      </trkpt>
      <trkpt lat="46.20866" lon="6.57602">
        <ele>1115.75</ele>
        <time>2020-02-04T15:05:32Z</time>
      </trkpt>
      <trkpt lat="46.20873" lon="6.57582">
        <ele>1114.79</ele>
        <time>2020-02-04T15:05:47Z</time>
      </trkpt>
      <trkpt lat="46.20875" lon="6.57567">
        <ele>1114.31</ele>
        <time>2020-02-04T15:05:58Z</time>
      </trkpt>
      <trkpt lat="46.20876" lon="6.57562">
        <ele>1114.79</ele>
        <time>2020-02-04T15:06:01Z</time>
      </trkpt>
      <trkpt lat="46.20877" lon="6.57542">
        <ele>1114.31</ele>
        <time>2020-02-04T15:06:14Z</time>
      </trkpt>
      <trkpt lat="46.20881" lon="6.57534">
        <ele>1114.31</ele>
        <time>2020-02-04T15:06:21Z</time>
      </trkpt>
      <trkpt lat="46.20896" lon="6.57527">
        <ele>1110.94</ele>
        <time>2020-02-04T15:06:36Z</time>
      </trkpt>
      <trkpt lat="46.20908" lon="6.5752">
        <ele>1110.94</ele>
        <time>2020-02-04T15:06:50Z</time>
      </trkpt>
      <trkpt lat="46.20921" lon="6.57514">
        <ele>1110.46</ele>
        <time>2020-02-04T15:07:04Z</time>
      </trkpt>
      <trkpt lat="46.2093" lon="6.5751">
        <ele>1109.98</ele>
        <time>2020-02-04T15:07:19Z</time>
      </trkpt>
      <trkpt lat="46.20942" lon="6.57504">
        <ele>1109.98</ele>
        <time>2020-02-04T15:07:34Z</time>
      </trkpt>
      <trkpt lat="46.20954" lon="6.57498">
        <ele>1109.5</ele>
        <time>2020-02-04T15:07:46Z</time>
      </trkpt>
      <trkpt lat="46.20966" lon="6.57487">
        <ele>1109.02</ele>
        <time>2020-02-04T15:08:01Z</time>
      </trkpt>
      <trkpt lat="46.20976" lon="6.57479">
        <ele>1108.54</ele>
        <time>2020-02-04T15:08:14Z</time>
      </trkpt>
      <trkpt lat="46.20986" lon="6.57471">
        <ele>1107.58</ele>
        <time>2020-02-04T15:08:25Z</time>
      </trkpt>
      <trkpt lat="46.20999" lon="6.57463">
        <ele>1106.61</ele>
        <time>2020-02-04T15:08:39Z</time>
      </trkpt>
      <trkpt lat="46.21008" lon="6.57454">
        <ele>1106.13</ele>
        <time>2020-02-04T15:08:50Z</time>
      </trkpt>
      <trkpt lat="46.21014" lon="6.57447">
        <ele>1105.17</ele>
        <time>2020-02-04T15:08:58Z</time>
      </trkpt>
      <trkpt lat="46.21021" lon="6.57432">
        <ele>1105.17</ele>
        <time>2020-02-04T15:09:11Z</time>
      </trkpt>
      <trkpt lat="46.21027" lon="6.57417">
        <ele>1104.21</ele>
        <time>2020-02-04T15:09:21Z</time>
      </trkpt>
      <trkpt lat="46.21031" lon="6.57411">
        <ele>1103.73</ele>
        <time>2020-02-04T15:09:26Z</time>
      </trkpt>
      <trkpt lat="46.21038" lon="6.574">
        <ele>1103.73</ele>
        <time>2020-02-04T15:09:36Z</time>
      </trkpt>
      <trkpt lat="46.2104" lon="6.57396">
        <ele>1103.73</ele>
        <time>2020-02-04T15:09:40Z</time>
      </trkpt>
      <trkpt lat="46.21051" lon="6.57382">
        <ele>1103.25</ele>
        <time>2020-02-04T15:09:54Z</time>
      </trkpt>
      <trkpt lat="46.2106" lon="6.57365">
        <ele>1102.29</ele>
        <time>2020-02-04T15:10:08Z</time>
      </trkpt>
      <trkpt lat="46.2107" lon="6.57356">
        <ele>1101.81</ele>
        <time>2020-02-04T15:10:20Z</time>
      </trkpt>
      <trkpt lat="46.2108" lon="6.57348">
        <ele>1100.37</ele>
        <time>2020-02-04T15:10:33Z</time>
      </trkpt>
      <trkpt lat="46.21094" lon="6.5734">
        <ele>1099.89</ele>
        <time>2020-02-04T15:10:48Z</time>
      </trkpt>
      <trkpt lat="46.21096" lon="6.57337">
        <ele>1099.4</ele>
        <time>2020-02-04T15:10:50Z</time>
      </trkpt>
      <trkpt lat="46.21099" lon="6.57329">
        <ele>1098.92</ele>
        <time>2020-02-04T15:10:56Z</time>
      </trkpt>
      <trkpt lat="46.21102" lon="6.57317">
        <ele>1098.44</ele>
        <time>2020-02-04T15:11:04Z</time>
      </trkpt>
      <trkpt lat="46.21105" lon="6.5731">
        <ele>1099.4</ele>
        <time>2020-02-04T15:11:08Z</time>
      </trkpt>
      <trkpt lat="46.21108" lon="6.57304">
        <ele>1098.44</ele>
        <time>2020-02-04T15:11:12Z</time>
      </trkpt>
      <trkpt lat="46.21112" lon="6.57293">
        <ele>1098.44</ele>
        <time>2020-02-04T15:11:20Z</time>
      </trkpt>
      <trkpt lat="46.21115" lon="6.57287">
        <ele>1098.44</ele>
        <time>2020-02-04T15:11:25Z</time>
      </trkpt>
      <trkpt lat="46.21121" lon="6.57269">
        <ele>1099.4</ele>
        <time>2020-02-04T15:11:40Z</time>
      </trkpt>
      <trkpt lat="46.21121" lon="6.57267">
        <ele>1098.44</ele>
        <time>2020-02-04T15:11:42Z</time>
      </trkpt>
      <trkpt lat="46.21118" lon="6.57252">
        <ele>1097.48</ele>
        <time>2020-02-04T15:11:54Z</time>
      </trkpt>
      <trkpt lat="46.21117" lon="6.57247">
        <ele>1097.96</ele>
        <time>2020-02-04T15:11:57Z</time>
      </trkpt>
      <trkpt lat="46.21116" lon="6.57227">
        <ele>1095.56</ele>
        <time>2020-02-04T15:12:10Z</time>
      </trkpt>
      <trkpt lat="46.21116" lon="6.57224">
        <ele>1095.08</ele>
        <time>2020-02-04T15:12:13Z</time>
      </trkpt>
      <trkpt lat="46.21114" lon="6.57209">
        <ele>1093.64</ele>
        <time>2020-02-04T15:12:23Z</time>
      </trkpt>
      <trkpt lat="46.21115" lon="6.57201">
        <ele>1093.64</ele>
        <time>2020-02-04T15:12:28Z</time>
      </trkpt>
      <trkpt lat="46.21115" lon="6.57198">
        <ele>1094.12</ele>
        <time>2020-02-04T15:12:30Z</time>
      </trkpt>
      <trkpt lat="46.21113" lon="6.5719">
        <ele>1093.64</ele>
        <time>2020-02-04T15:12:34Z</time>
      </trkpt>
      <trkpt lat="46.21114" lon="6.57176">
        <ele>1093.16</ele>
        <time>2020-02-04T15:12:43Z</time>
      </trkpt>
      <trkpt lat="46.21115" lon="6.57172">
        <ele>1093.16</ele>
        <time>2020-02-04T15:12:45Z</time>
      </trkpt>
      <trkpt lat="46.21116" lon="6.57156">
        <ele>1092.2</ele>
        <time>2020-02-04T15:12:56Z</time>
      </trkpt>
      <trkpt lat="46.21122" lon="6.57142">
        <ele>1092.2</ele>
        <time>2020-02-04T15:13:08Z</time>
      </trkpt>
      <trkpt lat="46.21124" lon="6.5714">
        <ele>1091.23</ele>
        <time>2020-02-04T15:13:11Z</time>
      </trkpt>
      <trkpt lat="46.21127" lon="6.57134">
        <ele>1091.71</ele>
        <time>2020-02-04T15:13:15Z</time>
      </trkpt>
      <trkpt lat="46.2114" lon="6.57121">
        <ele>1091.23</ele>
        <time>2020-02-04T15:13:30Z</time>
      </trkpt>
      <trkpt lat="46.21143" lon="6.57112">
        <ele>1091.71</ele>
        <time>2020-02-04T15:13:38Z</time>
      </trkpt>
      <trkpt lat="46.21144" lon="6.57109">
        <ele>1091.23</ele>
        <time>2020-02-04T15:13:40Z</time>
      </trkpt>
      <trkpt lat="46.21144" lon="6.57106">
        <ele>1091.23</ele>
        <time>2020-02-04T15:13:42Z</time>
      </trkpt>
      <trkpt lat="46.21148" lon="6.5709">
        <ele>1091.23</ele>
        <time>2020-02-04T15:13:53Z</time>
      </trkpt>
      <trkpt lat="46.2115" lon="6.57082">
        <ele>1090.75</ele>
        <time>2020-02-04T15:13:59Z</time>
      </trkpt>
      <trkpt lat="46.21154" lon="6.57061">
        <ele>1089.79</ele>
        <time>2020-02-04T15:14:12Z</time>
      </trkpt>
      <trkpt lat="46.21155" lon="6.5706">
        <ele>1089.79</ele>
        <time>2020-02-04T15:14:13Z</time>
      </trkpt>
      <trkpt lat="46.21157" lon="6.57055">
        <ele>1090.27</ele>
        <time>2020-02-04T15:14:16Z</time>
      </trkpt>
      <trkpt lat="46.21164" lon="6.5704">
        <ele>1090.75</ele>
        <time>2020-02-04T15:14:29Z</time>
      </trkpt>
      <trkpt lat="46.21167" lon="6.57035">
        <ele>1089.79</ele>
        <time>2020-02-04T15:14:43Z</time>
      </trkpt>
      <trkpt lat="46.21169" lon="6.57029">
        <ele>1089.79</ele>
        <time>2020-02-04T15:14:56Z</time>
      </trkpt>
      <trkpt lat="46.21178" lon="6.57012">
        <ele>1088.83</ele>
        <time>2020-02-04T15:15:08Z</time>
      </trkpt>
      <trkpt lat="46.21181" lon="6.57007">
        <ele>1089.79</ele>
        <time>2020-02-04T15:15:18Z</time>
      </trkpt>
      <trkpt lat="46.21183" lon="6.57004">
        <ele>1089.31</ele>
        <time>2020-02-04T15:15:34Z</time>
      </trkpt>
      <trkpt lat="46.21183" lon="6.57004">
        <ele>1089.79</ele>
        <time>2020-02-04T15:15:37Z</time>
      </trkpt>
      <trkpt lat="46.21184" lon="6.57001">
        <ele>1089.31</ele>
        <time>2020-02-04T15:15:40Z</time>
      </trkpt>
      <trkpt lat="46.21194" lon="6.56987">
        <ele>1090.27</ele>
        <time>2020-02-04T15:15:54Z</time>
      </trkpt>
      <trkpt lat="46.21197" lon="6.5698">
        <ele>1089.79</ele>
        <time>2020-02-04T15:16:09Z</time>
      </trkpt>
      <trkpt lat="46.21197" lon="6.5698">
        <ele>1088.83</ele>
        <time>2020-02-04T15:16:24Z</time>
      </trkpt>
      <trkpt lat="46.21196" lon="6.56973">
        <ele>1089.79</ele>
        <time>2020-02-04T15:16:28Z</time>
      </trkpt>
      <trkpt lat="46.21193" lon="6.56965">
        <ele>1089.31</ele>
        <time>2020-02-04T15:16:41Z</time>
      </trkpt>
      <trkpt lat="46.21193" lon="6.56965">
        <ele>1089.31</ele>
        <time>2020-02-04T15:16:42Z</time>
      </trkpt>
      <trkpt lat="46.21193" lon="6.56951">
        <ele>1089.31</ele>
        <time>2020-02-04T15:16:54Z</time>
      </trkpt>
      <trkpt lat="46.21191" lon="6.56935">
        <ele>1088.35</ele>
        <time>2020-02-04T15:17:06Z</time>
      </trkpt>
      <trkpt lat="46.21188" lon="6.56922">
        <ele>1088.83</ele>
        <time>2020-02-04T15:17:18Z</time>
      </trkpt>
      <trkpt lat="46.2119" lon="6.5691">
        <ele>1089.79</ele>
        <time>2020-02-04T15:17:24Z</time>
      </trkpt>
      <trkpt lat="46.21193" lon="6.569">
        <ele>1090.27</ele>
        <time>2020-02-04T15:17:32Z</time>
      </trkpt>
      <trkpt lat="46.21195" lon="6.56881">
        <ele>1091.23</ele>
        <time>2020-02-04T15:17:45Z</time>
      </trkpt>
      <trkpt lat="46.21195" lon="6.56873">
        <ele>1092.2</ele>
        <time>2020-02-04T15:17:55Z</time>
      </trkpt>
      <trkpt lat="46.21192" lon="6.56856">
        <ele>1093.64</ele>
        <time>2020-02-04T15:18:07Z</time>
      </trkpt>
      <trkpt lat="46.21201" lon="6.56841">
        <ele>1093.16</ele>
        <time>2020-02-04T15:18:20Z</time>
      </trkpt>
      <trkpt lat="46.21206" lon="6.56828">
        <ele>1092.68</ele>
        <time>2020-02-04T15:18:30Z</time>
      </trkpt>
      <trkpt lat="46.21209" lon="6.56819">
        <ele>1092.68</ele>
        <time>2020-02-04T15:18:37Z</time>
      </trkpt>
      <trkpt lat="46.21209" lon="6.56815">
        <ele>1092.2</ele>
        <time>2020-02-04T15:18:39Z</time>
      </trkpt>
      <trkpt lat="46.2121" lon="6.56804">
        <ele>1092.2</ele>
        <time>2020-02-04T15:18:48Z</time>
      </trkpt>
      <trkpt lat="46.21209" lon="6.56794">
        <ele>1091.71</ele>
        <time>2020-02-04T15:18:56Z</time>
      </trkpt>
      <trkpt lat="46.21209" lon="6.56788">
        <ele>1091.23</ele>
        <time>2020-02-04T15:19:00Z</time>
      </trkpt>
      <trkpt lat="46.21207" lon="6.56772">
        <ele>1090.27</ele>
        <time>2020-02-04T15:19:12Z</time>
      </trkpt>
      <trkpt lat="46.21205" lon="6.56765">
        <ele>1090.27</ele>
        <time>2020-02-04T15:19:22Z</time>
      </trkpt>
      <trkpt lat="46.21202" lon="6.56754">
        <ele>1090.27</ele>
        <time>2020-02-04T15:19:30Z</time>
      </trkpt>
      <trkpt lat="46.212" lon="6.56744">
        <ele>1089.31</ele>
        <time>2020-02-04T15:19:36Z</time>
      </trkpt>
      <trkpt lat="46.21199" lon="6.56737">
        <ele>1089.31</ele>
        <time>2020-02-04T15:19:40Z</time>
      </trkpt>
      <trkpt lat="46.21196" lon="6.56715">
        <ele>1088.35</ele>
        <time>2020-02-04T15:19:53Z</time>
      </trkpt>
      <trkpt lat="46.2119" lon="6.56701">
        <ele>1086.91</ele>
        <time>2020-02-04T15:20:02Z</time>
      </trkpt>
      <trkpt lat="46.21189" lon="6.56685">
        <ele>1084.99</ele>
        <time>2020-02-04T15:20:12Z</time>
      </trkpt>
      <trkpt lat="46.21192" lon="6.56679">
        <ele>1084.99</ele>
        <time>2020-02-04T15:20:17Z</time>
      </trkpt>
      <trkpt lat="46.21194" lon="6.56672">
        <ele>1084.5</ele>
        <time>2020-02-04T15:20:21Z</time>
      </trkpt>
      <trkpt lat="46.21202" lon="6.56657">
        <ele>1083.54</ele>
        <time>2020-02-04T15:20:34Z</time>
      </trkpt>
      <trkpt lat="46.21209" lon="6.56647">
        <ele>1083.06</ele>
        <time>2020-02-04T15:20:42Z</time>
      </trkpt>
      <trkpt lat="46.21217" lon="6.56638">
        <ele>1082.58</ele>
        <time>2020-02-04T15:20:52Z</time>
      </trkpt>
      <trkpt lat="46.21219" lon="6.56634">
        <ele>1082.58</ele>
        <time>2020-02-04T15:20:55Z</time>
      </trkpt>
      <trkpt lat="46.21221" lon="6.56633">
        <ele>1082.1</ele>
        <time>2020-02-04T15:20:57Z</time>
      </trkpt>
      <trkpt lat="46.21226" lon="6.56622">
        <ele>1081.62</ele>
        <time>2020-02-04T15:21:09Z</time>
      </trkpt>
      <trkpt lat="46.21227" lon="6.56622">
        <ele>1081.62</ele>
        <time>2020-02-04T15:21:10Z</time>
      </trkpt>
      <trkpt lat="46.2123" lon="6.56618">
        <ele>1081.62</ele>
        <time>2020-02-04T15:21:14Z</time>
      </trkpt>
      <trkpt lat="46.21232" lon="6.56618">
        <ele>1081.14</ele>
        <time>2020-02-04T15:21:16Z</time>
      </trkpt>
      <trkpt lat="46.21236" lon="6.56616">
        <ele>1081.14</ele>
        <time>2020-02-04T15:21:19Z</time>
      </trkpt>
      <trkpt lat="46.21245" lon="6.56611">
        <ele>1080.66</ele>
        <time>2020-02-04T15:21:29Z</time>
      </trkpt>
      <trkpt lat="46.21252" lon="6.56607">
        <ele>1080.66</ele>
        <time>2020-02-04T15:21:36Z</time>
      </trkpt>
      <trkpt lat="46.21259" lon="6.56599">
        <ele>1080.66</ele>
        <time>2020-02-04T15:21:44Z</time>
      </trkpt>
      <trkpt lat="46.2126" lon="6.56597">
        <ele>1080.66</ele>
        <time>2020-02-04T15:21:46Z</time>
      </trkpt>
      <trkpt lat="46.21265" lon="6.5659">
        <ele>1080.18</ele>
        <time>2020-02-04T15:21:53Z</time>
      </trkpt>
      <trkpt lat="46.21267" lon="6.56588">
        <ele>1080.18</ele>
        <time>2020-02-04T15:21:55Z</time>
      </trkpt>
      <trkpt lat="46.21269" lon="6.56585">
        <ele>1080.18</ele>
        <time>2020-02-04T15:21:58Z</time>
      </trkpt>
      <trkpt lat="46.2128" lon="6.56585">
        <ele>1079.7</ele>
        <time>2020-02-04T15:22:10Z</time>
      </trkpt>
      <trkpt lat="46.21281" lon="6.56585">
        <ele>1079.22</ele>
        <time>2020-02-04T15:22:11Z</time>
      </trkpt>
      <trkpt lat="46.21288" lon="6.56593">
        <ele>1079.7</ele>
        <time>2020-02-04T15:22:23Z</time>
      </trkpt>
      <trkpt lat="46.21283" lon="6.566">
        <ele>1079.7</ele>
        <time>2020-02-04T15:22:34Z</time>
      </trkpt>
      <trkpt lat="46.21288" lon="6.56609">
        <ele>1079.7</ele>
        <time>2020-02-04T15:22:44Z</time>
      </trkpt>
      <trkpt lat="46.21301" lon="6.56619">
        <ele>1079.22</ele>
        <time>2020-02-04T15:22:53Z</time>
      </trkpt>
      <trkpt lat="46.21308" lon="6.56617">
        <ele>1078.26</ele>
        <time>2020-02-04T15:23:01Z</time>
      </trkpt>
      <trkpt lat="46.21312" lon="6.56617">
        <ele>1078.26</ele>
        <time>2020-02-04T15:23:04Z</time>
      </trkpt>
      <trkpt lat="46.21314" lon="6.56617">
        <ele>1077.78</ele>
        <time>2020-02-04T15:23:06Z</time>
      </trkpt>
      <trkpt lat="46.21321" lon="6.56619">
        <ele>1079.22</ele>
        <time>2020-02-04T15:23:18Z</time>
      </trkpt>
      <trkpt lat="46.21323" lon="6.5662">
        <ele>1079.22</ele>
        <time>2020-02-04T15:23:22Z</time>
      </trkpt>
      <trkpt lat="46.21327" lon="6.56622">
        <ele>1079.7</ele>
        <time>2020-02-04T15:23:29Z</time>
      </trkpt>
      <trkpt lat="46.2133" lon="6.56621">
        <ele>1079.22</ele>
        <time>2020-02-04T15:23:32Z</time>
      </trkpt>
      <trkpt lat="46.21332" lon="6.56618">
        <ele>1079.22</ele>
        <time>2020-02-04T15:23:36Z</time>
      </trkpt>
      <trkpt lat="46.21332" lon="6.56607">
        <ele>1077.78</ele>
        <time>2020-02-04T15:23:48Z</time>
      </trkpt>
      <trkpt lat="46.21332" lon="6.56603">
        <ele>1078.26</ele>
        <time>2020-02-04T15:23:51Z</time>
      </trkpt>
      <trkpt lat="46.21334" lon="6.56591">
        <ele>1077.78</ele>
        <time>2020-02-04T15:23:59Z</time>
      </trkpt>
      <trkpt lat="46.2134" lon="6.5658">
        <ele>1079.22</ele>
        <time>2020-02-04T15:24:11Z</time>
      </trkpt>
      <trkpt lat="46.21342" lon="6.56579">
        <ele>1079.22</ele>
        <time>2020-02-04T15:24:12Z</time>
      </trkpt>
      <trkpt lat="46.21351" lon="6.5657">
        <ele>1079.7</ele>
        <time>2020-02-04T15:24:23Z</time>
      </trkpt>
      <trkpt lat="46.21358" lon="6.56564">
        <ele>1080.18</ele>
        <time>2020-02-04T15:24:34Z</time>
      </trkpt>
      <trkpt lat="46.21369" lon="6.56554">
        <ele>1080.18</ele>
        <time>2020-02-04T15:24:47Z</time>
      </trkpt>
      <trkpt lat="46.21371" lon="6.56548">
        <ele>1081.62</ele>
        <time>2020-02-04T15:24:55Z</time>
      </trkpt>
      <trkpt lat="46.21374" lon="6.56542">
        <ele>1083.06</ele>
        <time>2020-02-04T15:25:04Z</time>
      </trkpt>
      <trkpt lat="46.21377" lon="6.56538">
        <ele>1083.54</ele>
        <time>2020-02-04T15:25:09Z</time>
      </trkpt>
      <trkpt lat="46.2138" lon="6.56536">
        <ele>1083.54</ele>
        <time>2020-02-04T15:25:12Z</time>
      </trkpt>
      <trkpt lat="46.21382" lon="6.56532">
        <ele>1083.54</ele>
        <time>2020-02-04T15:25:18Z</time>
      </trkpt>
      <trkpt lat="46.21389" lon="6.56531">
        <ele>1084.99</ele>
        <time>2020-02-04T15:25:28Z</time>
      </trkpt>
      <trkpt lat="46.21396" lon="6.5653">
        <ele>1086.43</ele>
        <time>2020-02-04T15:25:39Z</time>
      </trkpt>
      <trkpt lat="46.21407" lon="6.56531">
        <ele>1086.43</ele>
        <time>2020-02-04T15:25:51Z</time>
      </trkpt>
      <trkpt lat="46.21415" lon="6.56527">
        <ele>1087.39</ele>
        <time>2020-02-04T15:26:01Z</time>
      </trkpt>
      <trkpt lat="46.21428" lon="6.56523">
        <ele>1088.35</ele>
        <time>2020-02-04T15:26:15Z</time>
      </trkpt>
      <trkpt lat="46.21442" lon="6.56515">
        <ele>1089.31</ele>
        <time>2020-02-04T15:26:29Z</time>
      </trkpt>
      <trkpt lat="46.21444" lon="6.56512">
        <ele>1089.79</ele>
        <time>2020-02-04T15:26:33Z</time>
      </trkpt>
      <trkpt lat="46.21452" lon="6.56501">
        <ele>1089.31</ele>
        <time>2020-02-04T15:26:47Z</time>
      </trkpt>
      <trkpt lat="46.21459" lon="6.56494">
        <ele>1089.31</ele>
        <time>2020-02-04T15:26:59Z</time>
      </trkpt>
      <trkpt lat="46.21467" lon="6.56486">
        <ele>1088.35</ele>
        <time>2020-02-04T15:27:10Z</time>
      </trkpt>
      <trkpt lat="46.21471" lon="6.56482">
        <ele>1088.35</ele>
        <time>2020-02-04T15:27:21Z</time>
      </trkpt>
      <trkpt lat="46.21471" lon="6.56481">
        <ele>1089.31</ele>
        <time>2020-02-04T15:27:37Z</time>
      </trkpt>
      <trkpt lat="46.21471" lon="6.56479">
        <ele>1087.87</ele>
        <time>2020-02-04T15:27:59Z</time>
      </trkpt>
      <trkpt lat="46.21476" lon="6.56468">
        <ele>1087.39</ele>
        <time>2020-02-04T15:28:29Z</time>
      </trkpt>
      <trkpt lat="46.21478" lon="6.56453">
        <ele>1085.95</ele>
        <time>2020-02-04T15:28:42Z</time>
      </trkpt>
      <trkpt lat="46.21482" lon="6.56442">
        <ele>1085.47</ele>
        <time>2020-02-04T15:28:52Z</time>
      </trkpt>
      <trkpt lat="46.21485" lon="6.56428">
        <ele>1084.99</ele>
        <time>2020-02-04T15:29:03Z</time>
      </trkpt>
      <trkpt lat="46.21485" lon="6.56427">
        <ele>1084.99</ele>
        <time>2020-02-04T15:29:04Z</time>
      </trkpt>
      <trkpt lat="46.21486" lon="6.56423">
        <ele>1084.5</ele>
        <time>2020-02-04T15:29:07Z</time>
      </trkpt>
      <trkpt lat="46.21489" lon="6.56414">
        <ele>1082.58</ele>
        <time>2020-02-04T15:29:13Z</time>
      </trkpt>
      <trkpt lat="46.21498" lon="6.56398">
        <ele>1083.54</ele>
        <time>2020-02-04T15:29:27Z</time>
      </trkpt>
      <trkpt lat="46.21499" lon="6.56392">
        <ele>1082.58</ele>
        <time>2020-02-04T15:29:32Z</time>
      </trkpt>
      <trkpt lat="46.215" lon="6.56379">
        <ele>1080.66</ele>
        <time>2020-02-04T15:29:42Z</time>
      </trkpt>
      <trkpt lat="46.21503" lon="6.56376">
        <ele>1082.1</ele>
        <time>2020-02-04T15:29:46Z</time>
      </trkpt>
      <trkpt lat="46.21511" lon="6.56374">
        <ele>1080.18</ele>
        <time>2020-02-04T15:29:54Z</time>
      </trkpt>
      <trkpt lat="46.21515" lon="6.56372">
        <ele>1080.18</ele>
        <time>2020-02-04T15:29:58Z</time>
      </trkpt>
      <trkpt lat="46.21521" lon="6.56364">
        <ele>1080.66</ele>
        <time>2020-02-04T15:30:06Z</time>
      </trkpt>
      <trkpt lat="46.21522" lon="6.56362">
        <ele>1081.14</ele>
        <time>2020-02-04T15:30:08Z</time>
      </trkpt>
      <trkpt lat="46.21526" lon="6.56358">
        <ele>1080.18</ele>
        <time>2020-02-04T15:30:12Z</time>
      </trkpt>
      <trkpt lat="46.21534" lon="6.56343">
        <ele>1080.66</ele>
        <time>2020-02-04T15:30:25Z</time>
      </trkpt>
      <trkpt lat="46.2154" lon="6.56329">
        <ele>1080.66</ele>
        <time>2020-02-04T15:30:38Z</time>
      </trkpt>
      <trkpt lat="46.21544" lon="6.56323">
        <ele>1080.66</ele>
        <time>2020-02-04T15:30:44Z</time>
      </trkpt>
      <trkpt lat="46.21548" lon="6.56307">
        <ele>1080.18</ele>
        <time>2020-02-04T15:30:55Z</time>
      </trkpt>
      <trkpt lat="46.21553" lon="6.56294">
        <ele>1079.7</ele>
        <time>2020-02-04T15:31:05Z</time>
      </trkpt>
      <trkpt lat="46.21554" lon="6.56291">
        <ele>1079.7</ele>
        <time>2020-02-04T15:31:07Z</time>
      </trkpt>
      <trkpt lat="46.21555" lon="6.56287">
        <ele>1079.7</ele>
        <time>2020-02-04T15:31:10Z</time>
      </trkpt>
      <trkpt lat="46.21557" lon="6.56282">
        <ele>1079.7</ele>
        <time>2020-02-04T15:31:14Z</time>
      </trkpt>
      <trkpt lat="46.2156" lon="6.56279">
        <ele>1079.7</ele>
        <time>2020-02-04T15:31:18Z</time>
      </trkpt>
      <trkpt lat="46.21564" lon="6.56272">
        <ele>1079.22</ele>
        <time>2020-02-04T15:31:24Z</time>
      </trkpt>
      <trkpt lat="46.21566" lon="6.56269">
        <ele>1078.74</ele>
        <time>2020-02-04T15:31:27Z</time>
      </trkpt>
      <trkpt lat="46.21575" lon="6.56256">
        <ele>1078.74</ele>
        <time>2020-02-04T15:31:39Z</time>
      </trkpt>
      <trkpt lat="46.21579" lon="6.56251">
        <ele>1077.78</ele>
        <time>2020-02-04T15:31:44Z</time>
      </trkpt>
      <trkpt lat="46.21589" lon="6.56239">
        <ele>1077.78</ele>
        <time>2020-02-04T15:31:57Z</time>
      </trkpt>
      <trkpt lat="46.2159" lon="6.56237">
        <ele>1078.26</ele>
        <time>2020-02-04T15:31:58Z</time>
      </trkpt>
      <trkpt lat="46.21594" lon="6.56233">
        <ele>1078.74</ele>
        <time>2020-02-04T15:32:02Z</time>
      </trkpt>
      <trkpt lat="46.21596" lon="6.5623">
        <ele>1078.74</ele>
        <time>2020-02-04T15:32:05Z</time>
      </trkpt>
      <trkpt lat="46.21601" lon="6.5622">
        <ele>1077.78</ele>
        <time>2020-02-04T15:32:13Z</time>
      </trkpt>
      <trkpt lat="46.21611" lon="6.56203">
        <ele>1077.78</ele>
        <time>2020-02-04T15:32:27Z</time>
      </trkpt>
      <trkpt lat="46.21614" lon="6.56198">
        <ele>1077.78</ele>
        <time>2020-02-04T15:32:31Z</time>
      </trkpt>
      <trkpt lat="46.21617" lon="6.56195">
        <ele>1077.78</ele>
        <time>2020-02-04T15:32:34Z</time>
      </trkpt>
      <trkpt lat="46.21619" lon="6.56191">
        <ele>1077.78</ele>
        <time>2020-02-04T15:32:37Z</time>
      </trkpt>
      <trkpt lat="46.2162" lon="6.56187">
        <ele>1078.26</ele>
        <time>2020-02-04T15:32:39Z</time>
      </trkpt>
      <trkpt lat="46.21629" lon="6.56176">
        <ele>1078.74</ele>
        <time>2020-02-04T15:32:52Z</time>
      </trkpt>
      <trkpt lat="46.21631" lon="6.56174">
        <ele>1078.26</ele>
        <time>2020-02-04T15:32:55Z</time>
      </trkpt>
      <trkpt lat="46.21639" lon="6.56169">
        <ele>1079.7</ele>
        <time>2020-02-04T15:33:06Z</time>
      </trkpt>
      <trkpt lat="46.21645" lon="6.56163">
        <ele>1079.7</ele>
        <time>2020-02-04T15:33:13Z</time>
      </trkpt>
      <trkpt lat="46.21648" lon="6.56158">
        <ele>1079.7</ele>
        <time>2020-02-04T15:33:17Z</time>
      </trkpt>
      <trkpt lat="46.21654" lon="6.56153">
        <ele>1079.7</ele>
        <time>2020-02-04T15:33:24Z</time>
      </trkpt>
      <trkpt lat="46.21658" lon="6.56149">
        <ele>1079.7</ele>
        <time>2020-02-04T15:33:29Z</time>
      </trkpt>
      <trkpt lat="46.21662" lon="6.56142">
        <ele>1080.18</ele>
        <time>2020-02-04T15:33:34Z</time>
      </trkpt>
      <trkpt lat="46.2167" lon="6.56129">
        <ele>1080.66</ele>
        <time>2020-02-04T15:33:46Z</time>
      </trkpt>
      <trkpt lat="46.21679" lon="6.56117">
        <ele>1080.18</ele>
        <time>2020-02-04T15:33:59Z</time>
      </trkpt>
      <trkpt lat="46.21687" lon="6.5611">
        <ele>1080.66</ele>
        <time>2020-02-04T15:34:10Z</time>
      </trkpt>
      <trkpt lat="46.21692" lon="6.56101">
        <ele>1081.14</ele>
        <time>2020-02-04T15:34:22Z</time>
      </trkpt>
      <trkpt lat="46.217" lon="6.56092">
        <ele>1081.62</ele>
        <time>2020-02-04T15:34:33Z</time>
      </trkpt>
      <trkpt lat="46.21708" lon="6.56085">
        <ele>1082.1</ele>
        <time>2020-02-04T15:34:45Z</time>
      </trkpt>
      <trkpt lat="46.21709" lon="6.56084">
        <ele>1082.1</ele>
        <time>2020-02-04T15:34:46Z</time>
      </trkpt>
      <trkpt lat="46.21715" lon="6.56073">
        <ele>1082.1</ele>
        <time>2020-02-04T15:35:00Z</time>
      </trkpt>
      <trkpt lat="46.21722" lon="6.56064">
        <ele>1081.62</ele>
        <time>2020-02-04T15:35:11Z</time>
      </trkpt>
      <trkpt lat="46.2173" lon="6.56056">
        <ele>1081.62</ele>
        <time>2020-02-04T15:35:22Z</time>
      </trkpt>
      <trkpt lat="46.21738" lon="6.56048">
        <ele>1081.62</ele>
        <time>2020-02-04T15:35:35Z</time>
      </trkpt>
      <trkpt lat="46.21744" lon="6.56042">
        <ele>1081.62</ele>
        <time>2020-02-04T15:35:47Z</time>
      </trkpt>
      <trkpt lat="46.21748" lon="6.56034">
        <ele>1081.62</ele>
        <time>2020-02-04T15:35:57Z</time>
      </trkpt>
      <trkpt lat="46.21754" lon="6.56023">
        <ele>1081.62</ele>
        <time>2020-02-04T15:36:09Z</time>
      </trkpt>
      <trkpt lat="46.21761" lon="6.56016">
        <ele>1081.62</ele>
        <time>2020-02-04T15:36:21Z</time>
      </trkpt>
      <trkpt lat="46.21766" lon="6.56007">
        <ele>1082.1</ele>
        <time>2020-02-04T15:36:31Z</time>
      </trkpt>
      <trkpt lat="46.21772" lon="6.56001">
        <ele>1081.62</ele>
        <time>2020-02-04T15:36:41Z</time>
      </trkpt>
      <trkpt lat="46.21774" lon="6.55995">
        <ele>1082.1</ele>
        <time>2020-02-04T15:37:02Z</time>
      </trkpt>
      <trkpt lat="46.21777" lon="6.5599">
        <ele>1082.1</ele>
        <time>2020-02-04T15:37:19Z</time>
      </trkpt>
      <trkpt lat="46.21779" lon="6.55985">
        <ele>1082.1</ele>
        <time>2020-02-04T15:37:23Z</time>
      </trkpt>
      <trkpt lat="46.21785" lon="6.55974">
        <ele>1082.58</ele>
        <time>2020-02-04T15:37:33Z</time>
      </trkpt>
      <trkpt lat="46.21793" lon="6.55962">
        <ele>1082.58</ele>
        <time>2020-02-04T15:37:45Z</time>
      </trkpt>
      <trkpt lat="46.21799" lon="6.55957">
        <ele>1082.58</ele>
        <time>2020-02-04T15:37:51Z</time>
      </trkpt>
      <trkpt lat="46.218" lon="6.55955">
        <ele>1082.1</ele>
        <time>2020-02-04T15:37:53Z</time>
      </trkpt>
      <trkpt lat="46.21803" lon="6.55953">
        <ele>1081.62</ele>
        <time>2020-02-04T15:37:57Z</time>
      </trkpt>
      <trkpt lat="46.21805" lon="6.5595">
        <ele>1082.1</ele>
        <time>2020-02-04T15:38:00Z</time>
      </trkpt>
      <trkpt lat="46.21809" lon="6.55948">
        <ele>1082.1</ele>
        <time>2020-02-04T15:38:04Z</time>
      </trkpt>
      <trkpt lat="46.21812" lon="6.55944">
        <ele>1081.62</ele>
        <time>2020-02-04T15:38:09Z</time>
      </trkpt>
      <trkpt lat="46.21821" lon="6.55936">
        <ele>1081.14</ele>
        <time>2020-02-04T15:38:20Z</time>
      </trkpt>
      <trkpt lat="46.2183" lon="6.55932">
        <ele>1081.14</ele>
        <time>2020-02-04T15:38:30Z</time>
      </trkpt>
      <trkpt lat="46.21834" lon="6.55928">
        <ele>1081.62</ele>
        <time>2020-02-04T15:38:36Z</time>
      </trkpt>
      <trkpt lat="46.21838" lon="6.55925">
        <ele>1081.14</ele>
        <time>2020-02-04T15:38:41Z</time>
      </trkpt>
      <trkpt lat="46.21848" lon="6.55917">
        <ele>1081.62</ele>
        <time>2020-02-04T15:38:53Z</time>
      </trkpt>
      <trkpt lat="46.21852" lon="6.55914">
        <ele>1081.14</ele>
        <time>2020-02-04T15:38:57Z</time>
      </trkpt>
      <trkpt lat="46.21864" lon="6.55908">
        <ele>1081.14</ele>
        <time>2020-02-04T15:39:10Z</time>
      </trkpt>
      <trkpt lat="46.21872" lon="6.55902">
        <ele>1081.14</ele>
        <time>2020-02-04T15:39:21Z</time>
      </trkpt>
      <trkpt lat="46.21882" lon="6.55891">
        <ele>1081.14</ele>
        <time>2020-02-04T15:39:33Z</time>
      </trkpt>
      <trkpt lat="46.21892" lon="6.55877">
        <ele>1081.14</ele>
        <time>2020-02-04T15:39:46Z</time>
      </trkpt>
      <trkpt lat="46.21899" lon="6.55863">
        <ele>1081.62</ele>
        <time>2020-02-04T15:39:58Z</time>
      </trkpt>
      <trkpt lat="46.21901" lon="6.55859">
        <ele>1081.14</ele>
        <time>2020-02-04T15:40:01Z</time>
      </trkpt>
      <trkpt lat="46.21901" lon="6.55851">
        <ele>1081.14</ele>
        <time>2020-02-04T15:40:06Z</time>
      </trkpt>
      <trkpt lat="46.21901" lon="6.55842">
        <ele>1081.14</ele>
        <time>2020-02-04T15:40:13Z</time>
      </trkpt>
      <trkpt lat="46.219" lon="6.55834">
        <ele>1081.14</ele>
        <time>2020-02-04T15:40:19Z</time>
      </trkpt>
      <trkpt lat="46.219" lon="6.55831">
        <ele>1081.62</ele>
        <time>2020-02-04T15:40:34Z</time>
      </trkpt>
      <trkpt lat="46.21899" lon="6.55831">
        <ele>1080.66</ele>
        <time>2020-02-04T15:41:50Z</time>
      </trkpt>
    </trkseg>
  </trk>
</gpx>